[[{"header":{"parameterUnit":"m.s-1","parameterCategory":1,"la1":31.0,"la2":29.5877,"lo1":-88.7671,"lo2":-86.6584,"dy":0.0162,"dx":0.0185,"nx":115,"ny":88,"refTime":"2024-05-23T18:00:00:Z","depth":0,"parameterNumber":2,"parameterNumberName":"U-component_of_WINDS"},"data":[0.0,0.0,0.0,0.0,0.0,0.0,0.0,0.0,0.0,0.0,0.0,0.0,0.0,0.0,0.0,0.0,0.0,0.0,0.0,0.0,0.0,0.0,0.0,0.0,0.0,0.0,0.0,0.0,0.0,0.0,0.0,0.0,0.0,0.0,0.0,0.0,0.0,0.0,0.0,0.0,0.0,0.0,0.0,0.0,0.0,0.0,0.0,0.0,0.0,0.0,0.0,0.0,0.0,0.0,0.0,0.0,0.0,0.0,0.0,0.0,0.0,0.0,0.0,0.0,0.0,0.0,0.0,0.0,0.0,0.0,0.0,0.0,0.0,0.0,0.0,0.0,0.0,0.0,0.0,0.0,0.0,0.0,0.0,0.0,0.0,0.0,0.0,0.0,0.0,0.0,0.0,0.0,0.0,0.0,0.0,0.0,0.0,0.0,0.0,0.0,0.0,0.0,0.0,0.0,0.0,0.0,0.0,0.0,0.0,0.0,0.0,0.0,0.0,0.0,0.0,0.0,0.0,0.0,0.0,0.0,0.0,0.0,0.0,0.0,0.0,0.0,0.0,0.0,0.0,0.0,0.0,0.0,0.0,0.0,0.0,0.0,0.0,0.0,0.0,0.0,0.0,0.0,0.0,0.0,0.0,0.0,0.0,0.0,0.0,0.0,0.0,0.0,0.0,0.0,0.0,0.0,0.0,0.0,0.0,0.0,0.0,0.0,0.0,0.0,0.0,0.0,0.0,0.0,0.0,0.0,0.0,0.0,0.0,0.0,0.0,0.0,0.0,0.0,0.0,0.0,0.0,0.0,0.0,0.0,0.0,0.0,0.0,0.0,0.0,0.0,0.0,0.0,0.0,0.0,0.0,0.0,0.0,0.0,0.0,0.0,0.0,0.0,0.0,0.0,0.0,0.0,0.0,0.0,0.0,0.0,0.0,0.0,0.0,0.0,0.0,0.0,0.0,0.0,0.0,0.0,0.0,0.0,0.0,0.0,0.0,0.0,0.0,0.0,0.0,0.0,0.0,0.0,0.0,0.0,0.0,0.0,0.0,0.0,0.0,0.0,0.0,0.0,0.0,0.0,0.0,0.0,0.0,0.0,0.0,0.0,0.0,0.0,0.0,0.0,0.0,0.0,0.0,0.0,0.0,0.0,0.0,0.0,0.0,0.0,0.0,0.0,0.0,0.0,0.0,0.0,0.0,0.0,0.0,0.0,0.0,0.0,0.0,0.0,0.0,0.0,0.0,0.0,0.0,0.0,0.0,0.0,0.0,0.0,0.0,0.0,0.0,0.0,0.0,0.0,0.0,0.0,0.0,0.0,0.0,0.0,0.0,0.0,0.0,0.0,0.0,0.0,0.0,0.0,0.0,0.0,0.0,0.0,0.0,0.0,0.0,0.0,0.0,0.0,0.0,0.0,0.0,0.0,0.0,0.0,0.0,0.0,0.0,0.0,0.0,0.0,0.0,0.0,0.0,0.0,0.0,0.0,0.0,0.0,0.0,0.0,0.0,0.0,0.0,0.0,0.0,0.0,0.0,0.0,0.0,0.0,0.0,0.0,0.0,0.0,0.0,0.0,0.0,0.0,0.0,0.0,0.0,0.0,0.0,0.0,0.0,0.0,0.0,0.0,0.0,0.0,0.0,0.0,0.0,0.0,0.0,0.0,0.0,0.0,0.0,0.0,0.0,0.0,0.0,0.0,0.0,0.0,0.0,0.0,0.0,0.0,0.0,0.0,0.0,0.0,0.0,0.0,0.0,0.0,0.0,0.0,0.0,0.0,0.0,0.0,0.0,0.0,0.0,0.0,0.0,0.0,0.0,0.0,0.0,0.0,0.0,0.0,0.0,0.0,0.0,0.0,0.0,0.0,0.0,0.0,0.0,0.0,0.0,0.0,0.0,0.0,0.0,0.0,0.0,0.0,0.0,0.0,0.0,0.0,0.0,0.0,0.0,0.0,0.0,0.0,0.0,0.0,0.0,0.0,0.0,0.0,0.0,0.0,0.0,0.0,0.0,0.0,0.0,0.0,0.0,0.0,0.0,0.0,0.0,0.0,0.0,0.0,0.0,0.0,0.0,0.0,0.0,0.0,0.0,0.0,0.0,0.0,0.0,0.0,0.0,0.0,0.0,0.0,0.0,0.0,0.0,0.0,0.0,0.0,0.0,0.0,0.0,0.0,0.0,0.0,0.0,0.0,0.0,0.0,0.0,0.0,0.0,0.0,0.0,0.0,0.0,0.0,0.0,0.0,0.0,0.0,0.0,0.0,0.0,0.0,0.0,0.0,0.0,0.0,0.0,0.0,0.0,0.0,0.0,0.0,0.0,0.0,0.0,0.0,0.0,0.0,0.0,0.0,0.0,0.0,0.0,0.0,0.0,0.0,0.0,0.0,0.0,0.0,0.0,0.0,0.0,0.0,0.0,0.0,0.0,0.0,0.0,0.0,0.0,0.0,0.0,0.0,0.0,0.0,0.0,0.0,0.0,0.0,0.0,0.0,0.0,0.0,0.0,0.0,0.0,0.0,0.0,0.0,0.0,0.0,0.0,0.0,0.0,0.0,0.0,0.0,0.0,0.0,0.0,0.0,0.0,0.0,0.0,0.0,0.0,0.0,0.0,0.0,0.0,0.0,0.0,0.0,0.0,0.0,0.0,0.0,0.0,0.0,0.0,0.0,0.0,0.0,0.0,0.0,0.0,0.0,0.0,0.0,0.0,0.0,0.0,0.0,0.0,0.0,0.0,0.0,0.0,0.0,0.0,0.0,0.0,0.0,0.0,0.0,0.0,0.0,0.0,0.0,0.0,0.0,0.0,0.0,0.0,0.0,0.0,0.0,0.0,0.0,0.0,0.0,0.0,0.0,0.0,0.0,0.0,0.0,0.0,0.0,0.0,0.0,0.0,0.0,0.0,0.0,0.0,0.0,0.0,0.0,0.0,0.0,0.0,0.0,0.0,0.0,0.0,0.0,0.0,0.0,0.0,0.0,0.0,0.0,0.0,0.0,0.0,0.0,0.0,0.0,0.0,0.0,0.0,0.0,0.0,0.0,0.0,0.0,0.0,0.0,0.0,0.0,0.0,0.0,0.0,0.0,0.0,0.0,0.0,0.0,0.0,0.0,0.0,0.0,0.0,0.0,0.0,0.0,0.0,0.0,0.0,0.0,0.0,0.0,0.0,0.0,0.0,0.0,0.0,0.0,0.0,0.0,0.0,0.0,0.0,0.0,0.0,0.0,0.0,0.0,0.0,0.0,0.0,0.0,0.0,0.0,0.0,0.0,0.0,0.0,0.0,0.0,0.0,0.0,0.0,0.0,0.0,0.0,0.0,0.0,0.0,0.0,0.0,0.0,0.0,0.0,0.0,0.0,0.0,0.0,0.0,0.0,0.0,0.0,0.0,0.0,0.0,0.0,0.0,0.0,0.0,0.0,0.0,0.0,0.0,0.0,0.0,0.0,0.0,0.0,0.0,0.0,0.0,0.0,0.0,0.0,0.0,0.0,0.0,0.0,0.0,0.0,0.0,0.0,0.0,0.0,0.0,0.0,0.0,0.0,0.0,0.0,0.0,0.0,0.0,0.0,0.0,0.0,0.0,0.0,0.0,0.0,0.0,0.0,0.0,0.0,0.0,0.0,0.0,0.0,0.0,0.0,0.0,0.0,0.0,0.0,0.0,0.0,0.0,0.0,0.0,0.0,0.0,0.0,0.0,0.0,0.0,0.0,0.0,0.0,0.0,0.0,0.0,0.0,0.0,0.0,0.0,0.0,0.0,0.0,0.0,0.0,0.0,0.0,0.0,0.0,0.0,0.0,0.0,0.0,0.0,0.0,0.0,0.0,0.0,0.0,0.0,0.0,0.0,0.0,0.0,0.0,0.0,0.0,0.0,0.0,0.0,0.0,0.0,0.0,0.0,0.0,0.0,0.0,0.0,0.0,0.0,0.0,0.0,0.0,0.0,0.0,0.0,0.0,0.0,0.0,0.0,0.0,0.0,0.0,0.0,0.0,0.0,0.0,0.0,0.0,0.0,0.0,0.0,0.0,0.0,0.0,0.0,0.0,0.0,0.0,0.0,0.0,0.0,0.0,0.0,0.0,0.0,0.0,0.0,0.0,0.0,0.0,0.0,0.0,0.0,0.0,0.0,0.0,0.0,0.0,0.0,0.0,0.0,0.0,0.0,0.0,0.0,0.0,0.0,0.0,0.0,0.0,0.0,0.0,0.0,0.0,0.0,0.0,0.0,0.0,0.0,0.0,0.0,0.0,0.0,0.0,0.0,0.0,-0.8619,0.0,0.0,0.0,0.0,0.0,0.0,0.0,0.0,0.0,0.0,0.0,0.0,0.0,0.0,0.0,0.0,0.0,0.0,0.0,0.0,0.0,0.0,0.0,0.0,0.0,0.0,0.0,0.0,0.0,0.0,0.0,0.0,0.0,0.0,0.0,0.0,0.0,0.0,0.0,0.0,0.0,0.0,0.0,0.0,0.0,0.0,0.0,0.0,0.0,0.0,0.0,0.0,0.0,0.0,0.0,0.0,0.0,0.0,0.0,0.0,0.0,0.0,0.0,0.0,0.0,0.0,0.0,0.0,0.0,0.0,0.0,0.0,0.0,0.0,0.0,0.0,0.0,0.0,0.0,0.0,0.0,0.0,0.0,0.0,0.0,0.0,0.0,0.0,0.0,0.0,0.0,0.0,0.0,0.0,0.0,0.0,0.0,0.0,0.0,0.0,0.0,0.0,0.0,0.0,0.0,0.0,0.0,0.0,0.0,0.0,-0.9255,-0.9402,-0.8941,-0.8685,-0.8677,0.0,0.0,0.0,0.0,0.0,0.0,0.0,0.0,0.0,0.0,0.0,0.0,0.0,0.0,0.0,0.0,0.0,0.0,0.0,0.0,0.0,0.0,0.0,0.0,0.0,0.0,0.0,0.0,0.0,0.0,0.0,0.0,0.0,0.0,0.0,0.0,0.0,0.0,0.0,0.0,0.0,0.0,0.0,0.0,0.0,0.0,0.0,0.0,0.0,0.0,0.0,0.0,0.0,0.0,0.0,0.0,0.0,0.0,0.0,0.0,0.0,0.0,0.0,0.0,0.0,0.0,0.0,0.0,0.0,0.0,0.0,0.0,0.0,0.0,0.0,0.0,0.0,0.0,0.0,0.0,0.0,0.0,0.0,0.0,0.0,0.0,0.0,0.0,0.0,0.0,0.0,0.0,0.0,0.0,0.0,0.0,0.0,0.0,0.0,0.0,0.0,0.0,0.0,0.0,0.0,0.0,0.0,0.0,0.0,0.0,0.0,0.0,-0.9263,-0.8958,-0.8812,0.0,0.0,0.0,0.0,0.0,0.0,0.0,0.0,0.0,0.0,0.0,0.0,0.0,0.0,0.0,0.0,0.0,0.0,0.0,0.0,0.0,0.0,0.0,0.0,0.0,0.0,0.0,0.0,0.0,0.0,0.0,0.0,0.0,0.0,0.0,0.0,0.0,0.0,0.0,0.0,0.0,0.0,0.0,0.0,0.0,0.0,0.0,0.0,0.0,0.0,0.0,0.0,0.0,0.0,0.0,0.0,0.0,0.0,0.0,0.0,0.0,0.0,0.0,0.0,0.0,0.0,0.0,0.0,0.0,0.0,0.0,0.0,0.0,0.0,0.0,0.0,0.0,0.0,0.0,0.0,0.0,0.0,0.0,0.0,0.0,0.0,0.0,0.0,0.0,0.0,0.0,0.0,0.0,0.0,0.0,0.0,0.0,0.0,0.0,0.0,0.0,0.0,0.0,0.0,0.0,0.0,0.0,0.0,0.0,0.0,-0.9153,-1.0024,-0.9994,0.0,-0.9282,0.0,0.0,0.0,0.0,0.0,0.0,0.0,0.0,0.0,0.0,0.0,0.0,0.0,0.0,0.0,0.0,0.0,0.0,0.0,0.0,0.0,0.0,0.0,0.0,0.0,0.0,0.0,0.0,0.0,0.0,0.0,0.0,0.0,0.0,0.0,0.0,0.0,0.0,0.0,0.0,0.0,0.0,0.0,0.0,0.0,0.0,0.0,0.0,0.0,0.0,0.0,0.0,0.0,0.0,0.0,0.0,0.0,0.0,0.0,0.0,0.0,0.0,0.0,0.0,0.0,0.0,0.0,0.0,0.0,0.0,0.0,0.0,0.0,0.0,0.0,0.0,0.0,0.0,0.0,0.0,0.0,0.0,0.0,0.0,0.0,0.0,0.0,0.0,0.0,0.0,0.0,0.0,0.0,0.0,0.0,0.0,0.0,0.0,0.0,0.0,0.0,0.0,0.0,0.0,0.0,0.0,0.0,0.0,0.0,0.0,0.0,-1.0089,-0.9767,-0.9263,0.0,0.0,0.0,0.0,0.0,0.0,0.0,0.0,0.0,0.0,0.0,0.0,0.0,0.0,0.0,0.0,0.0,0.0,0.0,0.0,0.0,0.0,0.0,0.0,0.0,0.0,0.0,0.0,0.0,0.0,0.0,0.0,0.0,0.0,0.0,0.0,0.0,0.0,0.0,0.0,0.0,0.0,0.0,0.0,0.0,0.0,0.0,0.0,0.0,0.0,0.0,0.0,0.0,0.0,0.0,0.0,0.0,0.0,0.0,0.0,0.0,0.0,0.0,0.0,0.0,0.0,0.0,0.0,0.0,0.0,0.0,0.0,0.0,0.0,0.0,0.0,0.0,0.0,0.0,0.0,0.0,0.0,0.0,0.0,0.0,0.0,0.0,0.0,0.0,0.0,0.0,0.0,0.0,0.0,0.0,0.0,0.0,0.0,0.0,0.0,0.0,0.0,0.0,0.0,0.0,0.0,0.0,0.0,0.0,0.0,-0.9315,0.0,-1.0324,-0.954,-0.8778,-0.8178,0.0,0.0,0.0,0.0,0.0,0.0,0.0,0.0,0.0,0.0,0.0,0.0,0.0,0.0,0.0,0.0,0.0,0.0,0.0,0.0,0.0,0.0,0.0,0.0,0.0,0.0,0.0,0.0,0.0,0.0,0.0,0.0,0.0,0.0,0.0,0.0,0.0,0.0,0.0,0.0,0.0,0.0,0.0,0.0,0.0,0.0,0.0,0.0,0.0,0.0,0.0,0.0,0.0,0.0,0.0,0.0,0.0,0.0,0.0,0.0,0.0,0.0,0.0,0.0,0.0,0.0,0.0,0.0,0.0,0.0,0.0,0.0,0.0,0.0,0.0,0.0,0.0,0.0,0.0,0.0,0.0,0.0,0.0,0.0,0.0,0.0,0.0,0.0,0.0,0.0,0.0,0.0,0.0,0.0,0.0,0.0,0.0,0.0,0.0,0.0,0.0,0.0,0.0,0.0,0.0,0.0,0.0,0.0,0.0,-0.9531,-0.97,-1.1041,-0.9385,-0.8458,0.0,0.0,0.0,0.0,0.0,0.0,0.0,0.0,0.0,0.0,0.0,0.0,0.0,0.0,0.0,0.0,0.0,0.0,0.0,0.0,0.0,0.0,0.0,0.0,0.0,0.0,0.0,0.0,0.0,0.0,0.0,0.0,0.0,0.0,0.0,0.0,0.0,0.0,0.0,0.0,0.0,0.0,0.0,0.0,0.0,0.0,0.0,0.0,0.0,0.0,0.0,0.0,0.0,0.0,0.0,0.0,0.0,0.0,0.0,0.0,0.0,0.0,0.0,0.0,0.0,0.0,0.0,0.0,0.0,0.0,0.0,0.0,0.0,0.0,0.0,0.0,0.0,0.0,0.0,0.0,0.0,0.0,0.0,0.0,0.0,0.0,0.0,0.0,0.0,0.0,0.0,0.0,0.0,0.0,0.0,0.0,0.0,0.0,0.0,0.0,0.0,0.0,0.0,0.0,0.0,0.0,0.0,0.0,0.0,-0.7841,-0.8403,-0.9328,0.0,-0.9261,-0.8534,0.0,0.0,0.0,0.0,0.0,0.0,0.0,0.0,0.0,0.0,0.0,0.0,0.0,0.0,0.0,0.0,0.0,0.0,0.0,0.0,0.0,0.0,0.0,0.0,0.0,0.0,0.0,0.0,0.0,0.0,0.0,0.0,0.0,0.0,0.0,0.0,0.0,0.0,0.0,0.0,0.0,0.0,0.0,0.0,0.0,0.0,0.0,0.0,0.0,0.0,0.0,0.0,0.0,0.0,0.0,0.0,0.0,0.0,0.0,0.0,0.0,0.0,0.0,0.0,0.0,0.0,0.0,0.0,0.0,0.0,0.0,0.0,0.0,0.0,0.0,0.0,0.0,0.0,0.0,0.0,0.0,0.0,0.0,0.0,0.0,0.0,0.0,0.0,0.0,0.0,0.0,0.0,0.0,0.0,0.0,0.0,0.0,0.0,0.0,0.0,0.0,0.0,0.0,0.0,0.0,0.0,0.0,0.0,0.0,-0.683,0.0,-0.9583,0.0,-0.9098,-0.8404,0.0,0.0,0.0,0.0,0.0,0.0,0.0,0.0,0.0,0.0,0.0,0.0,0.0,0.0,0.0,0.0,0.0,0.0,0.0,0.0,0.0,0.0,0.0,0.0,0.0,0.0,0.0,0.0,0.0,0.0,0.0,0.0,0.0,0.0,0.0,0.0,0.0,0.0,0.0,0.0,0.0,0.0,0.0,0.0,0.0,0.0,0.0,0.0,0.0,0.0,0.0,0.0,0.0,0.0,0.0,0.0,0.0,0.0,0.0,0.0,0.0,0.0,0.0,0.0,0.0,0.0,0.0,0.0,0.0,0.0,0.0,0.0,0.0,0.0,0.0,0.0,0.0,0.0,0.0,0.0,0.0,0.0,0.0,0.0,0.0,0.0,0.0,0.0,0.0,0.0,0.0,0.0,0.0,0.0,0.0,0.0,0.0,0.0,0.0,0.0,0.0,0.0,0.0,0.0,0.0,0.0,0.0,0.0,-0.6429,-0.7778,-0.9713,-1.0429,-1.013,-0.8951,-0.8052,0.0,0.0,0.0,0.0,0.0,0.0,0.0,0.0,0.0,0.0,0.0,0.0,0.0,0.0,0.0,0.0,0.0,0.0,0.0,0.0,0.0,0.0,0.0,0.0,0.0,0.0,0.0,0.0,0.0,0.0,0.0,0.0,0.0,0.0,0.0,0.0,0.0,0.0,0.0,0.0,0.0,0.0,0.0,0.0,0.0,0.0,0.0,0.0,0.0,0.0,0.0,0.0,0.0,0.0,0.0,0.0,0.0,0.0,0.0,0.0,0.0,0.0,0.0,0.0,0.0,0.0,0.0,0.0,0.0,0.0,0.0,0.0,0.0,0.0,0.0,0.0,0.0,0.0,0.0,0.0,0.0,0.0,0.0,0.0,0.0,0.0,0.0,0.0,0.0,0.0,0.0,0.0,0.0,0.0,0.0,0.0,0.0,0.0,0.0,0.0,0.0,0.0,0.0,0.0,0.0,0.0,0.0,0.0,0.0,-0.8462,-0.8948,-0.9733,-1.066,-0.9092,-0.8266,0.0,0.0,0.0,0.0,0.0,0.0,0.0,0.0,0.0,0.0,0.0,0.0,0.0,0.0,0.0,0.0,0.0,0.0,0.0,0.0,0.0,0.0,0.0,0.0,0.0,0.0,0.0,0.0,0.0,0.0,0.0,0.0,0.0,0.0,0.0,0.0,0.0,0.0,0.0,0.0,0.0,0.0,0.0,0.0,0.0,0.0,0.0,0.0,0.0,0.0,0.0,0.0,0.0,0.0,0.0,0.0,0.0,0.0,0.0,0.0,0.0,0.0,0.0,0.0,0.0,0.0,0.0,0.0,0.0,0.0,0.0,0.0,0.0,0.0,0.0,0.0,0.0,0.0,0.0,0.0,0.0,0.0,0.0,0.0,0.0,0.0,0.0,0.0,0.0,0.0,0.0,0.0,0.0,0.0,0.0,0.0,0.0,0.0,0.0,0.0,0.0,0.0,0.0,0.0,0.0,0.0,0.0,0.0,0.0,-0.8771,-0.9319,-0.9899,-1.0481,-0.9157,-0.8527,-0.8726,0.0,0.0,0.0,0.0,0.0,0.0,0.0,0.0,0.0,0.0,0.0,0.0,0.0,0.0,0.0,0.0,0.0,0.0,0.0,0.0,0.0,0.0,0.0,0.0,0.0,0.0,0.0,0.0,0.0,0.0,0.0,0.0,0.0,0.0,0.0,0.0,0.0,0.0,0.0,0.0,0.0,0.0,0.0,0.0,0.0,0.0,0.0,0.0,0.0,0.0,0.0,0.0,0.0,0.0,0.0,0.0,0.0,0.0,0.0,0.0,0.0,0.0,0.0,0.0,0.0,0.0,0.0,0.0,0.0,0.0,0.0,0.0,0.0,0.0,0.0,0.0,0.0,0.0,0.0,0.0,0.0,0.0,0.0,0.0,0.0,0.0,0.0,0.0,0.0,0.0,0.0,0.0,0.0,0.0,0.0,0.0,0.0,0.0,0.0,0.0,0.0,0.0,0.0,0.0,0.0,0.0,0.0,0.0,-0.8728,-1.0635,-1.095,-0.974,-0.9325,-0.8795,0.0,0.0,0.0,0.0,0.0,0.0,0.0,0.0,0.0,0.0,0.0,0.0,0.0,0.0,0.0,0.0,0.0,0.0,0.0,0.0,0.0,0.0,0.0,0.0,0.0,0.0,0.0,0.0,0.0,0.0,0.0,0.0,0.0,0.0,0.0,0.0,0.0,0.0,0.0,0.0,0.0,0.0,0.0,0.0,0.0,0.0,0.0,0.0,0.0,0.0,0.0,0.0,0.0,0.0,0.0,0.0,0.0,0.0,0.0,0.0,0.0,0.0,0.0,0.0,0.0,0.0,0.0,0.0,0.0,0.0,0.0,0.0,0.0,0.0,0.0,0.0,0.0,0.0,0.0,0.0,0.0,0.0,0.0,0.0,0.0,0.0,0.0,0.0,0.0,0.0,0.0,0.0,0.0,0.0,0.0,0.0,0.0,0.0,0.0,0.0,0.0,0.0,0.0,0.0,0.0,0.0,0.0,0.0,0.0,-0.9364,-1.1508,-1.227,-1.1292,-1.0024,-0.9208,0.0,0.0,0.0,0.0,0.0,0.0,0.0,0.0,0.0,0.0,0.0,0.0,0.0,0.0,0.0,0.0,0.0,0.0,0.0,0.0,0.0,0.0,0.0,0.0,0.0,0.0,0.0,0.0,0.0,0.0,0.0,0.0,0.0,0.0,0.0,0.0,0.0,0.0,0.0,0.0,0.0,0.0,0.0,0.0,0.0,0.0,0.0,0.0,0.0,0.0,0.0,0.0,0.0,0.0,0.0,0.0,0.0,0.0,0.0,0.0,0.0,0.0,0.0,0.0,0.0,0.0,0.0,0.0,0.0,0.0,0.0,0.0,0.0,0.0,0.0,0.0,0.0,0.0,0.0,0.0,0.0,0.0,0.0,0.0,0.0,0.0,0.0,0.0,0.0,0.0,0.0,0.0,0.0,0.0,0.0,0.0,0.0,0.0,0.0,0.0,0.0,0.0,0.0,0.0,0.0,0.0,0.0,0.0,-0.9737,-1.0528,-1.2345,-1.2704,-1.1634,-1.0977,-1.0125,0.0,0.0,0.0,0.0,0.0,0.0,0.0,0.0,0.0,0.0,0.0,0.0,0.0,0.0,0.0,0.0,0.0,0.0,0.0,0.0,0.0,0.0,0.0,0.0,0.0,0.0,0.0,0.0,0.0,0.0,0.0,0.0,0.0,0.0,0.0,0.0,0.0,0.0,0.0,0.0,0.0,0.0,0.0,0.0,0.0,0.0,0.0,0.0,0.0,0.0,0.0,0.0,0.0,0.0,0.0,0.0,0.0,0.0,0.0,0.0,0.0,0.0,0.0,0.0,0.0,0.0,0.0,0.0,0.0,0.0,0.0,0.0,0.0,0.0,0.0,0.0,0.0,0.0,0.0,0.0,0.0,0.0,0.0,0.0,0.0,0.0,0.0,0.0,0.0,0.0,0.0,0.0,0.0,0.0,0.0,0.0,0.0,0.0,0.0,0.0,0.0,0.0,0.0,0.0,0.0,0.0,0.0,0.0,-1.0248,-1.1892,-1.2886,-1.2734,-1.1273,-1.1809,-1.0947,0.0,0.0,0.0,0.0,0.0,0.0,0.0,0.0,0.0,0.0,0.0,0.0,0.0,0.0,0.0,0.0,0.0,0.0,0.0,0.0,0.0,0.0,0.0,0.0,0.0,0.0,0.0,0.0,0.0,0.0,0.0,0.0,0.0,0.0,0.0,0.0,0.0,0.0,0.0,0.0,0.0,0.0,0.0,0.0,0.0,0.0,0.0,0.0,0.0,0.0,0.0,0.0,0.0,0.0,0.0,0.0,0.0,0.0,0.0,0.0,0.0,0.0,0.0,0.0,0.0,0.0,0.0,0.0,0.0,0.0,0.0,0.0,0.0,0.0,0.0,0.0,0.0,0.0,0.0,0.0,0.0,0.0,0.0,0.0,0.0,0.0,0.0,0.0,0.0,0.0,0.0,0.0,0.0,0.0,0.0,0.0,0.0,0.0,0.0,0.0,0.0,0.0,0.0,0.0,0.0,0.0,0.0,0.0,-1.1329,-1.1878,-1.2503,-1.231,-1.1189,-1.0916,-0.9677,0.0,0.0,0.0,0.0,0.0,0.0,0.0,0.0,0.0,0.0,0.0,0.0,0.0,0.0,0.0,0.0,0.0,0.0,0.0,0.0,0.0,0.0,0.0,0.0,0.0,0.0,0.0,0.0,0.0,0.0,0.0,0.0,0.0,0.0,0.0,0.0,0.0,0.0,0.0,0.0,0.0,0.0,0.0,0.0,0.0,0.0,0.0,0.0,-0.9057,0.0,0.0,0.0,0.0,0.0,0.0,0.0,0.0,0.0,0.0,0.0,0.0,0.0,0.0,0.0,0.0,0.0,0.0,0.0,0.0,0.0,0.0,0.0,0.0,0.0,0.0,0.0,0.0,0.0,0.0,0.0,0.0,0.0,0.0,0.0,0.0,0.0,0.0,0.0,0.0,0.0,0.0,0.0,0.0,0.0,0.0,0.0,0.0,0.0,0.0,0.0,0.0,0.0,0.0,0.0,0.0,0.0,0.0,0.0,-1.1061,-1.2193,-1.211,-1.1303,-0.9803,-0.9632,-0.8912,0.0,0.0,0.0,0.0,0.0,0.0,0.0,0.0,0.0,0.0,0.0,0.0,0.0,0.0,0.0,0.0,0.0,0.0,0.0,0.0,0.0,0.0,0.0,0.0,0.0,0.0,0.0,0.0,0.0,0.0,0.0,0.0,0.0,0.0,0.0,0.0,0.0,0.0,0.0,0.0,0.0,0.0,0.0,0.0,0.0,0.0,0.0,0.0,0.0,0.0,0.0,0.0,0.0,0.0,0.0,0.0,0.0,0.0,0.0,0.0,0.0,0.0,0.0,0.0,0.0,0.0,0.0,0.0,0.0,0.0,0.0,0.0,0.0,0.0,0.0,0.0,0.0,0.0,0.0,0.0,0.0,0.0,0.0,0.0,0.0,0.0,0.0,0.0,0.0,0.0,0.0,0.0,0.0,0.0,0.0,0.0,0.0,0.0,0.0,0.0,0.0,0.0,0.0,0.0,0.0,0.0,0.0,-0.8622,-1.0274,-1.2194,-1.1404,-0.9976,-0.8076,-0.8442,-0.8259,-0.7289,0.0,0.0,0.0,0.0,0.0,0.0,0.0,0.0,0.0,0.0,0.0,0.0,0.0,0.0,0.0,0.0,0.0,0.0,0.0,0.0,0.0,0.0,0.0,0.0,0.0,0.0,0.0,0.0,0.0,0.0,0.0,0.0,0.0,0.0,0.0,0.0,0.0,0.0,-0.7878,-0.8538,0.0,0.0,0.0,0.0,0.0,0.0,0.0,0.0,-0.9299,0.0,0.0,0.0,0.0,0.0,0.0,0.0,0.0,0.0,0.0,0.0,0.0,0.0,0.0,0.0,0.0,0.0,0.0,0.0,0.0,0.0,0.0,0.0,0.0,0.0,0.0,0.0,0.0,0.0,0.0,0.0,0.0,0.0,0.0,0.0,0.0,0.0,0.0,0.0,0.0,0.0,0.0,0.0,0.0,0.0,0.0,0.0,0.0,0.0,0.0,0.0,0.0,0.0,0.0,0.0,0.0,-0.8138,-0.8907,-0.9819,-1.0772,-1.0206,-0.9312,-0.8021,-0.7914,-0.7404,-0.6578,0.0,0.0,0.0,0.0,0.0,0.0,0.0,0.0,0.0,0.0,0.0,0.0,0.0,0.0,0.0,0.0,0.0,0.0,0.0,0.0,0.0,0.0,0.0,0.0,0.0,0.0,0.0,0.0,0.0,0.0,0.0,0.0,0.0,0.0,0.0,0.0,0.0,0.0,0.0,-0.9505,-0.9862,0.0,0.0,0.0,0.0,0.0,0.0,0.0,0.0,-0.9349,0.0,0.0,0.0,0.0,0.0,0.0,0.0,0.0,0.0,0.0,0.0,0.0,0.0,0.0,0.0,0.0,0.0,0.0,0.0,0.0,0.0,0.0,0.0,0.0,0.0,0.0,0.0,0.0,0.0,0.0,0.0,0.0,0.0,0.0,0.0,0.0,0.0,0.0,0.0,0.0,0.0,0.0,0.0,0.0,0.0,0.0,0.0,0.0,0.0,0.0,0.0,0.0,0.0,0.0,0.0,-0.7013,-0.8305,-0.9041,-0.9092,-0.889,-0.8531,-0.8028,-0.7529,-0.6943,0.0,0.0,0.0,0.0,0.0,0.0,0.0,0.0,0.0,0.0,0.0,0.0,0.0,0.0,0.0,0.0,0.0,0.0,0.0,0.0,0.0,0.0,0.0,0.0,0.0,0.0,0.0,0.0,0.0,0.0,0.0,0.0,0.0,0.0,0.0,0.0,0.0,0.0,0.0,0.0,-0.9759,-1.0052,-1.0652,0.0,0.0,0.0,0.0,0.0,0.0,-0.998,-0.9793,0.0,0.0,0.0,0.0,0.0,0.0,0.0,0.0,0.0,0.0,0.0,0.0,0.0,0.0,0.0,0.0,0.0,0.0,0.0,0.0,0.0,0.0,0.0,0.0,0.0,0.0,0.0,0.0,0.0,0.0,0.0,0.0,0.0,0.0,0.0,0.0,0.0,0.0,0.0,0.0,0.0,0.0,0.0,0.0,0.0,0.0,0.0,0.0,0.0,0.0,0.0,0.0,0.0,0.0,0.0,-0.5848,-0.735,-0.8173,-0.8011,-0.8038,-0.8038,-0.8028,-0.7377,-0.678,0.0,0.0,0.0,0.0,0.0,0.0,0.0,0.0,0.0,0.0,0.0,0.0,0.0,0.0,0.0,0.0,0.0,0.0,0.0,0.0,0.0,0.0,0.0,0.0,0.0,0.0,0.0,0.0,0.0,0.0,0.0,0.0,0.0,0.0,0.0,0.0,0.0,0.0,0.0,0.0,0.0,-1.0278,-1.1076,-1.118,0.0,0.0,0.0,0.0,-1.0868,-1.0762,0.0,0.0,0.0,0.0,0.0,0.0,0.0,0.0,0.0,0.0,0.0,0.0,0.0,0.0,0.0,0.0,0.0,0.0,0.0,0.0,0.0,0.0,0.0,0.0,0.0,0.0,0.0,0.0,0.0,0.0,0.0,0.0,0.0,0.0,0.0,0.0,0.0,0.0,0.0,0.0,0.0,0.0,0.0,0.0,0.0,0.0,0.0,0.0,0.0,0.0,0.0,0.0,0.0,0.0,0.0,0.0,-0.5758,-0.6559,-0.7232,-0.7997,-0.8038,-0.8038,-0.8031,-0.7573,-0.6987,0.0,0.0,0.0,0.0,0.0,0.0,0.0,0.0,0.0,0.0,0.0,0.0,0.0,0.0,0.0,0.0,0.0,0.0,0.0,0.0,0.0,0.0,0.0,0.0,0.0,0.0,0.0,0.0,0.0,0.0,0.0,0.0,0.0,0.0,0.0,0.0,0.0,0.0,0.0,0.0,0.0,-1.0935,-1.1455,-1.172,-1.1744,0.0,0.0,-1.177,-1.2058,-1.2291,0.0,0.0,0.0,0.0,0.0,0.0,0.0,0.0,0.0,0.0,0.0,0.0,0.0,0.0,0.0,0.0,0.0,0.0,0.0,0.0,0.0,0.0,0.0,0.0,0.0,0.0,0.0,0.0,0.0,0.0,0.0,0.0,0.0,0.0,0.0,0.0,0.0,0.0,0.0,0.0,0.0,0.0,0.0,0.0,0.0,0.0,0.0,0.0,0.0,0.0,0.0,0.0,0.0,0.0,0.0,-0.5058,-0.5935,-0.6774,-0.7449,-0.8018,-0.8038,-0.7895,-0.7811,-0.7312,-0.6722,0.0,0.0,0.0,0.0,0.0,0.0,0.0,0.0,0.0,0.0,0.0,0.0,0.0,0.0,0.0,0.0,0.0,0.0,0.0,0.0,0.0,0.0,0.0,0.0,0.0,0.0,0.0,0.0,0.0,0.0,0.0,0.0,0.0,0.0,0.0,0.0,0.0,0.0,0.0,0.0,0.0,0.0,-1.255,-1.2408,0.0,0.0,0.0,-1.2107,-1.2935,0.0,0.0,0.0,0.0,0.0,0.0,0.0,0.0,0.0,0.0,0.0,0.0,0.0,0.0,0.0,0.0,0.0,0.0,0.0,0.0,0.0,0.0,0.0,0.0,0.0,0.0,0.0,0.0,0.0,0.0,0.0,0.0,0.0,0.0,0.0,0.0,0.0,0.0,0.0,0.0,0.0,0.0,0.0,0.0,0.0,0.0,0.0,0.0,0.0,0.0,0.0,0.0,0.0,0.0,0.0,0.0,0.0,-0.6018,-0.7054,-0.7743,-0.8028,-0.8038,-0.7885,-0.766,-0.7091,0.0,0.0,0.0,0.0,0.0,0.0,0.0,0.0,0.0,0.0,0.0,0.0,0.0,0.0,0.0,0.0,0.0,0.0,0.0,0.0,0.0,0.0,0.0,0.0,0.0,0.0,0.0,-0.4851,0.0,0.0,0.0,0.0,0.0,0.0,0.0,0.0,0.0,0.0,0.0,0.0,0.0,0.0,-1.1209,-1.3241,-1.3182,-1.313,0.0,0.0,-1.2876,-1.3851,-1.3721,-1.316,0.0,0.0,0.0,0.0,0.0,0.0,0.0,0.0,0.0,0.0,0.0,0.0,0.0,0.0,0.0,0.0,0.0,0.0,0.0,0.0,0.0,0.0,0.0,0.0,0.0,0.0,0.0,0.0,0.0,0.0,0.0,0.0,0.0,0.0,0.0,0.0,0.0,0.0,0.0,0.0,0.0,0.0,0.0,0.0,0.0,0.0,0.0,0.0,0.0,0.0,0.0,0.0,0.0,0.0,0.0,-0.6025,-0.7054,-0.7743,-0.8024,-0.8038,-0.8035,-0.8014,-0.7431,-0.6837,0.0,0.0,0.0,0.0,0.0,0.0,0.0,0.0,0.0,0.0,0.0,0.0,0.0,0.0,0.0,0.0,0.0,0.0,0.0,0.0,0.0,0.0,0.0,0.0,0.0,0.0,0.0,0.0,0.0,0.0,0.0,0.0,0.0,0.0,0.0,0.0,0.0,0.0,0.0,0.0,0.0,-1.1249,-1.311,-1.3946,-1.4475,0.0,0.0,-1.4556,-1.4863,-1.5284,-1.4596,-1.1783,0.0,0.0,0.0,0.0,0.0,0.0,0.0,0.0,0.0,0.0,0.0,0.0,0.0,0.0,0.0,0.0,0.0,0.0,0.0,0.0,0.0,0.0,0.0,0.0,0.0,0.0,0.0,0.0,0.0,0.0,0.0,0.0,0.0,0.0,0.0,0.0,0.0,0.0,0.0,0.0,0.0,0.0,0.0,0.0,0.0,0.0,0.0,0.0,0.0,0.0,0.0,0.0,0.0,-0.5606,-0.618,-0.7143,-0.7743,-0.8024,-0.8038,-0.7994,-0.8004,-0.7499,-0.7046,0.0,0.0,0.0,0.0,0.0,0.0,0.0,0.0,0.0,0.0,0.0,0.0,0.0,0.0,0.0,0.0,0.0,0.0,0.0,0.0,0.0,0.0,0.0,0.0,0.0,0.0,0.0,0.0,-0.6121,-0.6334,-0.6537,0.0,0.0,0.0,0.0,0.0,0.0,0.0,0.0,0.0,0.0,-1.2596,-1.4366,-1.4366,0.0,0.0,-1.4568,-1.4228,-1.5372,-1.5285,-1.4416,-1.232,-1.145,0.0,0.0,0.0,0.0,0.0,0.0,0.0,0.0,0.0,0.0,0.0,0.0,0.0,0.0,0.0,0.0,0.0,0.0,0.0,0.0,0.0,0.0,0.0,0.0,0.0,0.0,0.0,0.0,0.0,0.0,0.0,0.0,0.0,0.0,0.0,0.0,0.0,0.0,0.0,0.0,0.0,0.0,0.0,0.0,0.0,0.0,0.0,0.0,0.0,0.0,0.0,0.0,-0.5686,-0.624,-0.7078,-0.7743,-0.8031,-0.8038,-0.7991,-0.7976,-0.7646,-0.7149,0.0,0.0,0.0,0.0,0.0,0.0,0.0,0.0,0.0,0.0,0.0,0.0,0.0,0.0,0.0,0.0,0.0,0.0,0.0,0.0,0.0,0.0,0.0,0.0,0.0,0.0,0.0,0.0,-0.6381,-0.6549,-0.6455,0.0,0.0,0.0,0.0,0.0,0.0,0.0,0.0,0.0,0.0,-1.3598,-1.5186,-1.4621,-1.4358,-1.5222,-1.4609,-1.4458,-1.5222,-1.517,-1.4482,-1.2952,0.0,0.0,0.0,0.0,0.0,0.0,0.0,0.0,0.0,0.0,0.0,0.0,0.0,0.0,0.0,0.0,0.0,0.0,0.0,0.0,0.0,0.0,0.0,0.0,0.0,0.0,0.0,0.0,0.0,0.0,-0.1659,0.0,0.0,0.0,0.0,0.0,0.0,0.0,0.0,0.0,0.0,0.0,0.0,0.0,0.0,0.0,0.0,0.0,0.0,0.0,0.0,0.0,0.0,-0.5732,-0.5968,-0.7035,-0.7743,-0.8028,-0.8038,-0.8035,-0.8021,-0.7604,-0.716,-0.6692,0.0,0.0,0.0,0.0,0.0,0.0,0.0,0.0,0.0,0.0,0.0,0.0,0.0,0.0,0.0,0.0,0.0,0.0,0.0,0.0,0.0,0.0,0.0,0.0,0.0,0.0,-0.5629,-0.6183,-0.6568,0.0,0.0,0.0,0.0,0.0,0.0,0.0,0.0,0.0,0.0,-1.2915,-1.392,-1.5226,-1.4785,-1.4394,-1.44,-1.514,-1.5364,-1.4508,-1.5121,-1.5219,0.0,0.0,0.0,0.0,0.0,0.0,0.0,0.0,0.0,0.0,0.0,0.0,0.0,0.0,0.0,0.0,0.0,0.0,0.0,0.0,0.0,0.0,0.0,0.0,0.0,0.0,0.0,-0.2883,-0.2667,0.0,0.0,0.0,0.0,0.0,0.0,0.0,0.0,0.0,0.0,0.0,-0.5326,-0.5407,0.0,0.0,0.0,0.0,0.0,0.0,0.0,0.0,0.0,0.0,0.0,0.0,-0.5921,-0.6077,-0.7125,-0.7838,-0.8031,-0.8038,-0.8038,-0.8038,-0.7794,-0.7312,-0.6569,0.0,0.0,0.0,0.0,0.0,0.0,0.0,0.0,0.0,0.0,0.0,0.0,0.0,0.0,0.0,0.0,0.0,0.0,0.0,0.0,0.0,0.0,0.0,0.0,0.0,-0.5611,0.0,0.0,0.0,0.0,0.0,0.0,0.0,0.0,0.0,0.0,0.0,-1.356,-1.3109,-1.4039,-1.4963,-1.5631,-1.5645,-1.5635,0.0,0.0,0.0,0.0,0.0,0.0,0.0,0.0,0.0,0.0,0.0,0.0,0.0,0.0,-1.3095,-1.1077,-1.0905,-1.101,-1.0773,0.0,0.0,0.0,0.0,0.0,0.0,0.0,0.0,0.0,0.0,0.0,0.0,0.0,0.0,-0.365,0.0,-0.3469,0.0,0.0,0.0,0.0,0.0,0.0,0.0,0.0,-0.5426,-0.5724,-0.602,-0.61,-0.6153,0.0,-0.628,-0.5755,0.0,0.0,0.0,0.0,0.0,0.0,0.0,0.0,-0.6227,-0.6376,-0.7339,-0.7882,-0.8031,-0.8038,-0.8041,-0.8233,-0.8035,-0.7633,-0.6824,-0.6403,-0.5877,0.0,0.0,0.0,0.0,0.0,0.0,0.0,0.0,0.0,0.0,0.0,0.0,0.0,0.0,0.0,0.0,0.0,0.0,0.0,0.0,0.0,0.0,0.0,-0.605,0.0,0.0,0.0,0.0,0.0,0.0,0.0,0.0,0.0,-0.9089,-1.2811,-1.5035,-1.4423,-1.5022,-1.5685,-1.6079,0.0,0.0,0.0,0.0,0.0,0.0,0.0,-1.4284,-1.469,-1.4086,-1.3356,-1.2991,-1.4282,-1.519,-1.4712,0.0,0.0,-1.3074,-1.2363,-1.2172,-1.2092,-1.2569,-1.2971,-1.3067,-1.3411,-1.3734,0.0,0.0,0.0,0.0,0.0,0.0,0.0,0.0,-0.3863,-0.4103,0.0,-0.4072,0.0,0.0,0.0,0.0,0.0,-0.5162,0.0,0.0,-0.6491,-0.678,-0.6957,-0.6957,-0.6892,-0.6777,-0.7292,-0.7148,-0.6446,-0.5561,0.0,0.0,0.0,0.0,0.0,0.0,-0.6566,-0.7041,-0.7587,-0.7889,-0.8031,-0.8038,-0.8237,-0.863,-0.8523,-0.8057,-0.7435,-0.7303,-0.6753,-0.5829,-0.5472,0.0,0.0,0.0,0.0,0.0,0.0,0.0,0.0,0.0,0.0,0.0,0.0,0.0,0.0,0.0,0.0,0.0,0.0,0.0,0.0,-0.61,0.0,0.0,0.0,0.0,0.0,0.0,0.0,0.0,0.0,0.0,-1.0784,-1.3815,-1.5784,-1.5758,0.0,0.0,0.0,0.0,-1.491,-1.5261,-1.441,-1.4083,-1.5184,-1.6098,-1.6693,-1.668,0.0,0.0,-1.4914,-1.5862,-1.6255,-1.4939,-1.5875,-1.6627,-1.6299,-1.5425,-1.5003,-1.499,-1.4983,-1.5104,-1.5364,-1.5438,-1.5818,-0.3364,0.0,0.0,0.0,0.0,-0.3648,-0.4351,-0.5083,-0.5448,-0.551,-0.5378,-0.5269,0.0,0.0,0.0,0.0,0.0,0.0,-0.5949,-0.6445,-0.6878,-0.7214,-0.7572,-0.7674,-0.7753,-0.7816,-0.7888,-0.7714,-0.7389,-0.6934,-0.6264,-0.5413,0.0,0.0,0.0,0.0,-0.6837,-0.7118,-0.7647,-0.7994,-0.8038,-0.8031,-0.8329,-0.8935,-0.8724,-0.8378,-0.8163,-0.7763,-0.733,-0.6779,-0.6043,0.0,0.0,0.0,0.0,0.0,0.0,0.0,0.0,0.0,0.0,0.0,0.0,0.0,0.0,0.0,0.0,0.0,0.0,0.0,-0.6147,-0.6672,-0.7417,0.0,0.0,0.0,0.0,0.0,0.0,0.0,0.0,0.0,-1.2904,-1.5093,-1.6183,0.0,0.0,-1.6209,-1.5563,-1.6094,-1.6514,-1.6593,0.0,0.0,0.0,-1.7049,-1.7157,-1.6727,-1.6881,-1.6925,-1.676,-1.7111,-1.7171,-1.6787,-1.6939,-1.6994,-1.6901,-1.6533,-1.6219,-1.6206,-1.6206,-1.6226,-1.6313,-1.6406,-1.6473,-0.5173,-0.4105,-0.4489,-0.4778,-0.4953,-0.5296,-0.5686,-0.6164,-0.6358,-0.6352,-0.6252,-0.6135,-0.5871,-0.5507,-0.5583,0.0,0.0,0.0,-0.67,-0.724,-0.74,-0.7769,-0.814,-0.8233,-0.8334,-0.8353,-0.8258,-0.8167,-0.8072,-0.7841,-0.7275,-0.641,0.0,0.0,-0.6346,-0.6844,-0.7158,-0.7353,-0.7771,-0.8041,-0.8137,-0.8329,-0.873,-0.9236,-0.9135,-0.8898,-0.882,-0.8454,-0.8009,-0.7583,-0.6761,-0.5956,0.0,0.0,0.0,0.0,0.0,0.0,0.0,0.0,0.0,0.0,0.0,-0.5571,0.0,0.0,0.0,0.0,-0.6623,-0.7131,-0.785,-0.8548,0.0,0.0,0.0,0.0,0.0,0.0,0.0,-1.094,-1.2335,-1.398,-1.5532,-1.6673,-1.698,-1.603,-1.6371,-1.6524,-1.6245,0.0,-1.7402,-1.7642,-1.7675,-1.7675,-1.7675,-1.7833,-1.785,-1.7428,-1.7555,-1.7675,-1.7742,-1.7762,-1.7722,-1.7595,-1.7435,-1.7321,-1.7321,-1.7174,-1.6961,-1.676,-1.6807,-1.6881,-1.6881,-1.6974,-1.7054,-0.5482,-0.7399,-0.6956,-0.6918,-0.6886,-0.6897,-0.6857,-0.6834,-0.6714,-0.6725,-0.682,-0.6692,-0.6513,-0.6396,-0.6458,0.0,-0.6801,-0.7217,-0.7604,-0.8171,-0.8184,-0.8295,-0.8503,-0.8516,-0.8509,-0.8499,-0.8499,-0.8492,-0.8469,-0.8347,-0.8075,-0.7668,-0.7258,-0.7088,-0.7163,-0.7322,-0.7546,-0.7828,-0.7967,-0.8137,-0.8432,-0.8935,-0.9343,-0.9545,-0.962,-0.9527,-0.936,-0.9173,-0.8826,-0.8308,-0.7651,-0.6903,-0.6051,0.0,0.0,0.0,0.0,0.0,0.0,0.0,0.0,0.0,0.0,0.0,0.0,0.0,0.0,0.0,-0.942,0.0,-1.0323,-1.1076,0.0,0.0,0.0,-1.1307,-1.196,-1.324,-1.3552,-1.2219,0.0,0.0,-1.8408,0.0,-1.803,-1.7405,-1.7021,-1.7038,-1.7862,-1.7722,-1.7856,-1.8364,-1.8092,-1.7857,-1.828,-1.841,-1.8397,-1.8384,-1.8497,-1.8357,-1.8136,-1.8083,-1.7963,-1.7742,-1.7642,-1.7622,-1.7622,-1.7582,-1.7415,-1.6894,-1.7007,-1.7188,-1.7194,-1.7368,-1.7522,-0.7082,-0.7558,-0.7437,-0.729,-0.7149,-0.7133,-0.7184,-0.7195,-0.7081,-0.7043,-0.7056,-0.706,-0.7142,-0.7401,-0.734,-0.7545,-0.7814,-0.7846,-0.8102,-0.8384,-0.8498,-0.8548,-0.8662,-0.8774,-0.8771,-0.8659,-0.8659,-0.8598,-0.8486,-0.8448,-0.8381,-0.8272,-0.8163,-0.7848,-0.7346,-0.7573,-0.7801,-0.7984,-0.8216,-0.8432,-0.8726,-0.9034,-0.9335,-0.9632,-0.9494,-0.9401,-0.9352,-0.9051,-0.8844,-0.8653,-0.7907,-0.7418,-0.7472,-0.6106,0.0,0.0,0.0,0.0,0.0,0.0,0.0,0.0,0.0,-0.7949,-0.6421,0.0,-0.8333,0.0,-1.0981,-1.1668,-1.1502,-1.1563,0.0,0.0,-1.3414,-1.3617,-1.5255,-1.5671,-1.5647,-1.5499,-1.6711,-1.7721,-1.8442,-1.8639,-1.8502,-1.8183,-1.8103,-1.7816,-1.7233,-1.7767,-1.8323,-1.847,-1.8517,-1.8497,-1.8517,-1.8497,-1.851,-1.8497,-1.8497,-1.8464,-1.8397,-1.839,-1.8357,-1.8277,-1.8083,-1.7956,-1.7936,-1.7749,-1.7562,-1.7408,-1.7435,-1.7482,-1.7482,-1.7542,-1.7589,-0.7867,-0.7926,-0.792,-0.7954,-0.7936,-0.7665,-0.7645,-0.764,-0.7684,-0.7769,-0.776,-0.7727,-0.7859,-0.8029,-0.8134,-0.8208,-0.8252,-0.8363,-0.8578,-0.8689,-0.8771,-0.8811,-0.8815,-0.8899,-0.8893,-0.8815,-0.8815,-0.8767,-0.8686,-0.8618,-0.8584,-0.8581,-0.8516,-0.8275,-0.7889,-0.7967,-0.8124,-0.8137,-0.8535,-0.8733,-0.8825,-0.9229,-0.9395,-0.9409,-0.9486,-0.9401,-0.9242,-0.9047,-0.8873,-0.8702,-0.8086,-0.7793,-0.8026,-0.7328,-0.6836,0.0,0.0,0.0,0.0,0.0,0.0,0.0,0.0,0.0,0.0,0.0,-0.9913,-1.0568,-1.2222,-1.3131,-1.295,-1.3376,-1.4337,-1.5638,-1.521,-1.5484,-1.6807,-1.6881,-1.6979,-1.7112,-1.7655,-1.8272,-1.8867,-1.8816,-1.8863,-1.8858,-1.8878,-1.8605,-1.7904,-1.8341,-1.8724,-1.8851,-1.9011,-1.9004,-1.8878,-1.8885,-1.8878,-1.8885,-1.8885,-1.8838,-1.8718,-1.8684,-1.8651,-1.851,-1.8357,-1.825,-1.8237,-1.8116,-1.7956,-1.7822,-1.7789,-1.7736,-1.7615,-1.7589,-1.7589,-0.8258,-0.8491,-0.8494,-0.861,-0.8836,-0.8364,-0.8149,-0.8146,-0.8359,-0.8577,-0.8558,-0.8558,-0.8499,-0.8508,-0.8733,-0.8771,-0.8654,-0.8883,-0.8994,-0.8994,-0.8974,-0.8967,-0.8964,-0.8947,-0.8937,-0.8937,-0.8937,-0.8937,-0.8933,-0.8804,-0.874,-0.8733,-0.8608,-0.8635,-0.8611,-0.8495,-0.8544,-0.8567,-0.8947,-0.9133,-0.8924,-0.9324,-0.9449,-0.92,-0.9401,-0.9417,-0.9112,-0.9072,-0.8922,-0.8613,-0.8357,-0.8267,-0.8443,-0.8699,-0.8942,0.0,-0.9433,0.0,0.0,0.0,0.0,0.0,0.0,0.0,0.0,-1.1872,-1.1852,-1.1519,-1.3452,-1.4687,-1.4553,-1.5628,-1.6446,-1.6727,-1.6794,-1.6934,-1.7235,-1.7522,-1.7696,-1.7757,-1.826,-1.8783,-1.9319,-1.9112,-1.9085,-1.9279,-1.9319,-1.9225,-1.9038,-1.8985,-1.9065,-1.9339,-1.9366,-1.9299,-1.9312,-1.9339,-1.9332,-1.9345,-1.9325,-1.9279,-1.9018,-1.8985,-1.8898,-1.8684,-1.8591,-1.8544,-1.8544,-1.851,-1.839,-1.815,-1.8103,-1.7989,-1.7682,-1.7589,-1.7589,-0.8835,-0.8854,-0.8854,-0.8854,-0.897,-0.9039,-0.8896,-0.8769,-0.8659,-0.8667,-0.88,-0.8797,-0.8904,-0.9225,-0.9225,-0.9208,-0.9181,-0.9296,-0.9296,-0.9293,-0.9171,-0.911,-0.9106,-0.8994,-0.8937,-0.8937,-0.8937,-0.8937,-0.8937,-0.891,-0.8896,-0.8893,-0.9085,-0.9114,-0.9098,0.0,0.0,0.0,-0.9207,-0.9236,-0.9426,-0.9525,-0.9612,-0.9469,-0.9328,0.0,-0.91,-0.8954,-0.8844,-0.8771,-0.9262,0.0,0.0,0.0,0.0,0.0,0.0,0.0,0.0,0.0,0.0,0.0,-1.2056,-1.1933,-1.217,-1.3477,-1.4151,-1.3664,-1.5078,-1.6079,-1.6216,-1.6454,-1.674,-1.7034,-1.7275,-1.7535,-1.7842,-1.8136,-1.8313,-1.8341,-1.8559,-1.8958,-1.934,-1.9292,-1.9299,-1.9352,-1.9366,-1.9345,-1.9285,-1.9265,-1.9299,-1.9359,-1.9366,-1.9366,-1.9366,-1.9366,-1.9366,-1.9366,-1.9366,-1.9339,-1.9285,-1.9265,-1.9279,-1.9172,-1.8998,-1.8838,-1.8838,-1.8651,-1.8504,-1.8424,-1.8404,-1.8243,-1.7709,-1.7589,-1.7589,-0.924,0.0,-0.9299,-0.9386,0.0,-0.9565,-0.9526,-0.9335,-0.9261,-0.9307,-0.9364,-0.9361,-0.9442,-0.9493,-0.9496,-0.9452,-0.9381,-0.9381,-0.9381,-0.9378,-0.93,-0.9266,-0.9262,-0.9191,-0.9157,-0.9154,-0.9083,-0.9157,-0.9262,-0.8974,-0.9047,-0.9375,-0.9379,-0.9449,-0.9472,-0.95,-0.955,-0.9614,-0.9544,-0.955,-0.9646,-0.9569,-0.9587,-0.96,0.0,0.0,0.0,0.0,0.0,0.0,0.0,0.0,0.0,0.0,0.0,-1.2306,-1.25,-1.2575,-1.2588,-1.2762,-1.3262,-1.4028,-1.4326,-1.4218,-1.3873,-1.4909,-1.5631,-1.5422,-1.6117,-1.6607,-1.6887,-1.6921,-1.7101,-1.7528,-1.7722,-1.7936,-1.823,-1.8524,-1.8625,-1.8525,-1.8917,-1.9205,-1.9345,-1.9366,-1.9366,-1.9366,-1.9366,-1.9366,-1.9366,-1.9366,-1.9366,-1.9366,-1.9366,-1.9366,-1.9366,-1.9366,-1.9366,-1.9366,-1.9366,-1.9366,-1.9366,-1.9366,-1.9366,-1.9359,-1.9239,-1.9145,-1.9132,-1.9018,-1.8878,-1.8744,-1.8704,-1.8571,-1.813,-1.8023,-1.8029,-0.9656,-0.9885,-0.9885,-0.9946,-1.009,-1.0093,-1.0019,-0.99,0.0,0.0,0.0,-0.9819,-0.9754,-0.9649,-0.9646,-0.9581,-0.9462,-0.9459,-0.9459,-0.9459,-0.9432,-0.9422,-0.9422,-0.9395,-0.9381,-0.9374,-0.9367,-0.9401,-0.9596,-0.9255,-0.9293,-0.971,-0.9599,-0.971,-0.9915,-0.9783,-0.9754,-0.9937,-0.9836,-0.9811,-0.9568,-0.9642,-0.969,-0.9606,-0.9616,-0.9441,-0.9157,-0.9279,-0.9313,-0.9204,-0.9366,-0.9908,-1.099,-1.1852,-1.282,-1.3748,-1.4643,-1.5044,-1.5044,-1.509,-1.5237,-1.5531,-1.6039,-1.6146,-1.5665,-1.6066,-1.6473,-1.676,-1.678,-1.6907,-1.7194,-1.7281,-1.7502,-1.7996,-1.8136,-1.8303,-1.8544,-1.8824,-1.8878,-1.877,-1.909,-1.9366,-1.9366,-1.9366,-1.9366,-1.9366,-1.9366,-1.9366,-1.9366,-1.9366,-1.9366,-1.9366,-1.9366,-1.9366,-1.9366,-1.9366,-1.9366,-1.9366,-1.9366,-1.9366,-1.9366,-1.9366,-1.9366,-1.9366,-1.9366,-1.9352,-1.9359,-1.9332,-1.9279,-1.9045,-1.8998,-1.8931,-1.8718,-1.8644,-1.8597,-1.0263,-1.0276,-1.0276,-1.0266,-1.0246,-1.0249,-1.0232,-1.0195,-0.9937,-0.9822,-0.9819,-0.9819,-0.9808,-0.9791,-0.9791,-0.9781,-0.9761,-0.9758,-0.9758,0.0,-0.9635,-0.9578,-0.9571,-0.9442,-0.9381,-0.9381,-0.9704,-0.9738,-0.9614,-0.9807,-0.995,-0.9831,-1.0033,-1.0253,-1.0468,-1.0339,-1.0315,-1.0611,-0.9973,-0.9733,-0.9571,-0.9754,-0.9766,-0.9596,-0.9466,-0.9376,-0.9324,-0.944,-0.9806,-1.0598,-1.1348,-1.2274,-1.3286,-1.4022,-1.4641,-1.479,-1.5106,-1.5331,-1.5344,-1.5565,-1.5832,-1.6126,-1.646,-1.6607,-1.6533,-1.6593,-1.6767,-1.7048,-1.7094,-1.7208,-1.7488,-1.7756,-1.7943,-1.8083,-1.8504,-1.8818,-1.8865,-1.9105,-1.9285,-1.9279,-1.9332,-1.9366,-1.9366,-1.9366,-1.9366,-1.9366,-1.9366,-1.9366,-1.9366,-1.9366,-1.9366,-1.9366,-1.9366,-1.9366,-1.9366,-1.9366,-1.9366,-1.9366,-1.9366,-1.9366,-1.9366,-1.9366,-1.9366,-1.9366,-1.9366,-1.9366,-1.9366,-1.9366,-1.9339,-1.9265,-1.9272,-1.9245,-1.9178,-1.9185,-1.9058,-1.0578,-1.0521,-1.0517,-1.047,-1.0392,-1.0314,-1.028,-1.0393,-1.0996,-1.1117,-1.1038,-1.1038,-1.0989,-1.0789,-1.0061,-0.9819,-0.9819,-0.9819,-0.9819,-0.9815,-0.9875,-0.9844,-0.9717,-1.001,-1.0094,-0.9972,-1.0126,-1.0627,-1.1224,-1.057,-1.067,-1.1381,-1.0847,-1.0582,-1.0692,-1.0472,-1.0688,-1.1546,-1.065,-1.0164,-1.0188,-1.0087,-0.9949,-0.9666,-1.0169,-1.0471,-1.0365,-1.0941,-1.1419,-1.19,-1.2283,-1.2953,-1.3998,-1.4372,-1.4868,-1.5345,-1.5558,-1.5705,-1.5865,-1.6139,-1.6426,-1.672,-1.6867,-1.7021,-1.7168,-1.7034,-1.7068,-1.7361,-1.7528,-1.7689,-1.7829,-1.811,-1.835,-1.8504,-1.8771,-1.8985,-1.9145,-1.9272,-1.9366,-1.9366,-1.9366,-1.9366,-1.9366,-1.9366,-1.9366,-1.9366,-1.9366,-1.9366,-1.9366,-1.9366,-1.9366,-1.9366,-1.9366,-1.9366,-1.9366,-1.9366,-1.9366,-1.9366,-1.9366,-1.9366,-1.9366,-1.9366,-1.9366,-1.9366,-1.9366,-1.9366,-1.9366,-1.9366,-1.9366,-1.9366,-1.9366,-1.9366,-1.9366,-1.9366,-1.9205,-1.0721,-1.0721,-1.0721,-1.0781,-1.1052,-1.132,-1.1268,-1.152,-1.2902,-1.3295,-1.3,-1.2662,-1.2302,-1.1691,-1.1046,-1.0664,-1.0664,-1.0664,-1.066,-1.0664,-1.1023,-1.102,-1.0899,-1.1382,-1.1503,-1.1249,-1.1256,-1.1761,-1.2624,-1.157,-1.1727,-1.3068,-1.2018,-1.1489,-1.145,-1.1227,-1.166,-1.262,-1.1729,-1.1095,-1.0724,-1.091,-1.0953,-1.0662,-1.1452,-1.1854,-1.1649,-1.2417,-1.2883,-1.3028,-1.3022,-1.3511,-1.458,-1.4675,-1.4994,-1.5823,-1.5932,-1.6059,-1.6353,-1.664,-1.6907,-1.7134,-1.7215,-1.7341,-1.7535,-1.7448,-1.7442,-1.7675,-1.7889,-1.805,-1.8163,-1.8417,-1.8677,-1.8898,-1.8991,-1.9118,-1.9319,-1.9366,-1.9366,-1.9366,-1.9366,-1.9366,-1.9366,-1.9366,-1.9366,-1.9366,-1.9366,-1.9366,-1.9366,-1.9366,-1.9366,-1.9366,-1.9366,-1.9366,-1.9366,-1.9366,-1.9366,-1.9366,-1.9366,-1.9366,-1.9366,-1.9366,-1.9366,-1.9366,-1.9366,-1.9366,-1.9366,-1.9366,-1.9366,-1.9366,-1.9366,-1.9366,-1.9366,-1.9366,-1.9305,-1.0721,-1.0721,-1.085,-1.1501,-1.2652,-1.3935,-1.4317,-1.4572,-1.6271,-1.6658,-1.5887,-1.4632,-1.3237,-1.2208,-1.291,-1.3195,-1.3195,-1.3306,-1.3306,-1.3306,-1.3651,-1.376,-1.3641,-1.4004,-1.4247,-1.4009,-1.3269,-1.3049,-1.3124,-1.3087,-1.357,-1.4314,-1.4014,-1.3691,-1.3732,-1.3496,-1.3599,-1.3917,-1.3788,-1.2768,-1.0914,-1.2556,-1.3559,-1.3749,-1.3512,-1.3292,-1.3066,-1.305,-1.345,-1.4027,-1.4214,-1.4592,-1.5547,-1.5648,-1.5856,-1.6206,-1.6239,-1.6359,-1.6647,-1.6941,-1.7121,-1.7264,-1.7395,-1.7549,-1.7602,-1.7816,-1.7963,-1.8029,-1.8023,-1.8176,-1.8424,-1.8718,-1.8898,-1.8958,-1.9165,-1.9345,-1.9359,-1.9366,-1.9366,-1.9366,-1.9366,-1.9366,-1.9366,-1.9366,-1.9366,-1.9366,-1.9406,-1.9419,-1.9419,-1.9452,-1.9432,-1.9399,-1.9372,-1.9379,-1.9372,-1.9366,-1.9366,-1.9366,-1.9366,-1.9366,-1.9366,-1.9366,-1.9366,-1.9366,-1.9366,-1.9366,-1.9366,-1.9366,-1.9366,-1.9366,-1.9366,-1.9366,-1.9366,-1.9366,-1.9332,-1.2425,-1.321,-1.321,-1.3595,-1.4376,-1.4898,-1.5289,-1.5669,-1.7103,-1.7049,-1.6157,-1.698,-1.6376,-1.4627,-1.4178,-1.3961,-1.4188,-1.4072,-1.4013,-1.4247,-1.4604,-1.4604,-1.448,-1.4966,-1.509,-1.4966,-1.4733,-1.4924,-1.5514,-1.5621,-1.5445,-1.5031,-1.4772,-1.4573,-1.4363,-1.4233,-1.4494,-1.5108,-1.5209,-1.5016,-1.4773,-1.4283,-1.469,-1.594,-1.5166,-1.4561,-1.4441,-1.4908,-1.5364,-1.5665,-1.575,-1.5855,-1.6346,-1.6235,-1.6288,-1.6526,-1.67,-1.684,-1.6967,-1.7235,-1.7408,-1.7402,-1.7515,-1.7649,-1.7842,-1.7976,-1.8176,-1.8504,-1.8557,-1.8617,-1.8751,-1.9011,-1.9192,-1.9199,-1.9299,-1.9366,-1.9366,-1.9366,-1.9366,-1.9366,-1.9366,-1.9366,-1.9366,-1.9366,-1.9366,-1.9392,-1.9499,-1.9619,-1.9626,-1.9766,-1.9793,-1.9659,-1.9626,-1.9539,-1.9419,-1.9366,-1.9366,-1.9366,-1.9366,-1.9366,-1.9366,-1.9366,-1.9366,-1.9366,-1.9366,-1.9366,-1.9366,-1.9366,-1.9366,-1.9366,-1.9366,-1.9366,-1.9366,-1.9366,-1.9366,-1.3997,-1.4912,-1.5429,-1.5814,-1.6063,-1.6457,-1.6834,-1.7221,-1.8262,-1.7876,-1.6953,-1.8969,-1.9043,-1.7445,-1.6028,-1.564,-1.5724,-1.5512,-1.5531,-1.5764,-1.6065,-1.6031,-1.5908,-1.6391,-1.6514,-1.6279,-1.6161,-1.6626,-1.743,-1.7389,-1.691,-1.6344,-1.6171,-1.5956,-1.5725,-1.5534,-1.5837,-1.6417,-1.6449,-1.6717,-1.7252,-1.5962,-1.5837,-1.7312,-1.6618,-1.5975,-1.5821,-1.6416,-1.6787,-1.67,-1.6707,-1.6707,-1.6707,-1.6487,-1.6513,-1.6739,-1.7101,-1.7371,-1.7268,-1.7468,-1.7589,-1.7595,-1.7655,-1.7802,-1.8016,-1.819,-1.847,-1.8831,-1.8991,-1.9032,-1.9072,-1.9239,-1.9359,-1.9366,-1.9366,-1.9366,-1.9366,-1.9366,-1.9366,-1.9366,-1.9366,-1.9366,-1.9379,-1.9439,-1.9512,-1.9533,-1.974,-1.9913,-1.9933,-2.008,-2.0134,-1.996,-1.992,-1.9766,-1.9459,-1.9366,-1.9366,-1.9366,-1.9366,-1.9366,-1.9366,-1.9366,-1.9366,-1.9366,-1.9366,-1.9366,-1.9366,-1.9366,-1.9366,-1.9366,-1.9366,-1.9366,-1.9366,-1.9366,-1.9366,-1.4912,-1.5173,-1.6732,-1.7378,-1.7507,-1.9066,-1.9845,-1.9711,-2.0221,-2.0221,-1.9717,-2.0329,-2.0322,-1.9745,-1.9106,-1.8991,-1.8947,-1.8576,-1.8457,-1.8546,-1.8542,-1.8642,-1.8758,-1.912,-1.9127,-1.8765,-1.7818,-1.7455,-1.7566,-1.7554,-1.7896,-1.859,-1.8564,-1.8526,-1.8138,-1.7779,-1.7833,-1.7787,-1.7543,-1.749,-1.7589,-1.7483,-1.7364,-1.7575,-1.7457,-1.7297,-1.7065,-1.7128,-1.7014,-1.6727,-1.6747,-1.6734,-1.6727,-1.6506,-1.6632,-1.6998,-1.7388,-1.7562,-1.7562,-1.7602,-1.7622,-1.7649,-1.7883,-1.8043,-1.815,-1.8544,-1.8838,-1.8931,-1.9172,-1.9319,-1.9312,-1.9332,-1.9366,-1.9366,-1.9366,-1.9366,-1.9366,-1.9366,-1.9366,-1.9366,-1.9366,-1.9392,-1.9392,-1.9613,-1.974,-1.982,-2.0027,-2.0214,-2.0227,-2.0247,-2.0267,-2.0241,-2.018,-2.0027,-1.9519,-1.9432,-1.9419,-1.9406,-1.9432,-1.9372,-1.9366,-1.9366,-1.9366,-1.9366,-1.9366,-1.9366,-1.9366,-1.9366,-1.9366,-1.9366,-1.9366,-1.9366,-1.9366,-1.9366,-1.9366,-1.685,-1.7893,-1.8536,-1.906,-1.9577,-2.0221,-2.0482,-2.0736,-2.0856,-2.0736,-2.0488,-2.0736,-2.0736,-2.0348,-2.0393,-2.0191,-1.9892,-1.9607,-1.9598,-1.9679,-1.9536,-1.9522,-1.9502,-1.9452,-1.9366,-1.9366,-1.8887,-1.8765,-1.8765,-1.8771,-1.8835,-1.911,-1.9205,-1.9058,-1.8798,-1.8664,-1.8524,-1.8323,-1.8029,-1.7762,-1.7622,-1.7569,-1.7589,-1.7589,-1.7589,-1.7535,-1.7428,-1.7428,-1.7382,-1.7268,-1.7268,-1.7268,-1.7268,-1.7255,-1.7198,-1.7415,-1.7522,-1.7669,-1.7842,-1.7883,-1.7963,-1.815,-1.8257,-1.8417,-1.8591,-1.8804,-1.8998,-1.9172,-1.9285,-1.9366,-1.9366,-1.9366,-1.9366,-1.9366,-1.9366,-1.9366,-1.9366,-1.9366,-1.9366,-1.9366,-1.9372,-1.9432,-1.9619,-1.9746,-1.9873,-2.0067,-2.0327,-2.0488,-2.0548,-2.0661,-2.0708,-2.0561,-2.0508,-2.0381,-2.0013,-1.9753,-1.9639,-1.9579,-1.9546,-1.9432,-1.9386,-1.9372,-1.9372,-1.9366,-1.9366,-1.9366,-1.9366,-1.9366,-1.9366,-1.9366,-1.9366,-1.9366,-1.9366,-1.9366,-1.9366,-1.8542,-1.9705,-1.9839,-2.0221,-2.0609,-2.0736,-2.0856,-2.1102,-2.1102,-2.0982,-2.0862,-2.0982,-2.0982,-2.0862,-2.0982,-2.0883,-2.0421,-2.0275,-2.0136,-2.0347,-2.008,-1.9893,-1.978,-1.9599,-1.9459,-1.9379,-1.9366,-1.9366,-1.9366,-1.9366,-1.9366,-1.9366,-1.9366,-1.9272,-1.9085,-1.8971,-1.8818,-1.8604,-1.8337,-1.7952,-1.7675,-1.7747,-1.7876,-1.7862,-1.7782,-1.7682,-1.7595,-1.7589,-1.7589,-1.7589,-1.7589,-1.7589,-1.7589,-1.7589,-1.7589,-1.7589,-1.7682,-1.7822,-1.8023,-1.813,-1.8277,-1.847,-1.8584,-1.8731,-1.8905,-1.9005,-1.9165,-1.9319,-1.9366,-1.9366,-1.9366,-1.9366,-1.9366,-1.9366,-1.9366,-1.9366,-1.9366,-1.9366,-1.9419,-1.9499,-1.9395,-1.9515,-1.988,-2.002,-2.0174,-2.0361,-2.0635,-2.0808,-2.0848,-2.0955,-2.1062,-2.0862,-2.0822,-2.0742,-2.0521,-2.0436,-2.004,-1.9947,-1.972,-1.9573,-1.9452,-1.9432,-1.9386,-1.9372,-1.9366,-1.9366,-1.9366,-1.9366,-1.9366,-1.9366,-1.9366,-1.9366,-1.9366,-1.9366,-1.9366,-1.9711,-2.0106,-2.0482,-2.0609,-2.0729,-2.0982,-2.1109,-2.1102,-2.1102,-2.1102,-2.0982,-2.1109,-2.1102,-2.1102,-2.1109,-2.1089,-2.1022,-2.0788,-2.0681,-2.0648,-2.0374,-2.01,-1.9887,-1.9833,-1.9653,-1.9426,-1.9386,-1.9379,-1.9366,-1.9366,-1.9366,-1.9366,-1.9366,-1.9352,-1.9352,-1.9092,-1.8945,-1.8865,-1.8644,-1.8242,-1.7747,-1.8183,-1.841,-1.8404,-1.819,-1.7916,-1.7629,-1.7595,-1.7589,-1.7589,-1.7589,-1.7589,-1.7589,-1.7589,-1.7589,-1.7662,-1.7869,-1.8029,-1.8116,-1.835,-1.8504,-1.8617,-1.8784,-1.8938,-1.9005,-1.9192,-1.9339,-1.9352,-1.9366,-1.9366,-1.9372,-1.9399,-1.9399,-1.9366,-1.9366,-1.9366,-1.9366,-1.9379,-1.9486,-1.9733,-1.9661,-1.9655,-2.0066,-2.0279,-2.0438,-2.0695,-2.0889,-2.1049,-2.1036,-2.1082,-2.1096,-2.1082,-2.1036,-2.0949,-2.1054,-2.1007,-2.0711,-2.0314,-2.0013,-1.9786,-1.9659,-1.9599,-1.9452,-1.9412,-1.9372,-1.9366,-1.9366,-1.9366,-1.9366,-1.9366,-1.9366,-1.9366,-1.9366,-1.9366,-1.9366,-2.01,-2.0482,-2.0609,-2.0729,-2.0982,-2.1109,-2.1102,-2.1102,-2.1102,-2.1102,-2.1102,-2.1102,-2.1102,-2.1102,-2.1102,-2.1102,-2.1096,-2.1015,-2.0975,-2.0915,-2.0675,-2.0488,-2.0368,-2.018,-1.9947,-1.9713,-1.9666,-1.9559,-1.9399,-1.9372,-1.9366,-1.9366,-1.9366,-1.9366,-1.9366,-1.9279,-1.9232,-1.9192,-1.8938,-1.8784,-1.8771,-1.8597,-1.8746,-1.8988,-1.8638,-1.821,-1.7916,-1.7695,-1.7589,-1.7589,-1.7589,-1.7589,-1.7589,-1.7589,-1.7795,-1.8131,-1.8104,-1.8257,-1.8604,-1.8738,-1.8878,-1.9045,-1.9178,-1.9219,-1.9232,-1.9305,-1.9366,-1.9366,-1.9366,-1.9366,-1.9399,-1.9559,-1.9573,-1.9386,-1.9366,-1.9399,-1.9439,-1.9559,-1.9793,-2.0034,-1.9833,-1.9965,-2.0332,-2.0531,-2.0624,-2.0922,-2.1049,-2.1102,-2.1102,-2.1102,-2.1102,-2.1102,-2.1102,-2.1102,-2.1049,-2.1135,-2.0869,-2.0615,-2.0334,-2.008,-1.994,-1.9773,-1.9619,-1.9459,-1.9412,-1.9366,-1.9366,-1.9366,-1.9366,-1.9366,-1.9366,-1.9366,-1.9366,-1.9366,-1.9366,-2.0482,-2.0736,-2.0729,-2.0856,-2.1102,-2.1102,-2.1102,-2.1102,-2.1102,-2.1102,-2.1102,-2.1102,-2.1102,-2.1102,-2.1102,-2.1102,-2.1102,-2.1102,-2.1102,-2.1089,-2.0942,-2.0788,-2.0661,-2.0374,-2.0154,-1.9967,-1.9853,-1.9713,-1.9526,-1.9419,-1.9366,-1.9366,-1.9366,-1.9366,-1.9366,-1.9366,-1.9366,-1.9332,-1.9185,-1.9219,-1.9307,-1.9038,-1.9063,-1.9309,-1.8955,-1.8564,-1.8357,-1.8076,-1.7816,-1.7635,-1.7589,-1.7629,-1.7609,-1.7762,-1.801,-1.8394,-1.846,-1.8551,-1.8891,-1.9011,-1.9158,-1.9332,-1.9366,-1.9366,-1.9366,-1.9366,-1.9366,-1.9366,-1.9366,-1.9366,-1.9406,-1.9626,-1.9693,-1.9559,-1.9653,-1.9679,-1.972,-1.9846,-2.008,-2.0301,-2.013,-2.0275,-2.0611,-2.0842,-2.0763,-2.1069,-2.1102,-2.1102,-2.1102,-2.1102,-2.1102,-2.1102,-2.1102,-2.1102,-2.1102,-2.1096,-2.1096,-2.0895,-2.0668,-2.0448,-2.0267,-2.008,-1.9907,-1.9633,-1.9512,-1.9386,-1.9366,-1.9366,-1.9366,-1.9366,-1.9366,-1.9366,-1.9366,-1.9366,-1.9366,-2.0862,-2.1102,-2.1102,-2.1102,-2.1102,-2.1102,-2.1102,-2.1102,-2.1102,-2.1102,-2.1102,-2.1102,-2.1102,-2.1102,-2.1102,-2.1102,-2.1102,-2.1102,-2.1102,-2.1102,-2.1056,-2.0955,-2.0728,-2.0501,-2.0354,-2.0227,-1.998,-1.9826,-1.9733,-1.9492,-1.9366,-1.9366,-1.9366,-1.9366,-1.9366,-1.9366,-1.9366,-1.9366,-1.9352,-1.9339,-1.9455,-1.9332,-1.9319,-1.9428,-1.9078,-1.8911,-1.8804,-1.8544,-1.8183,-1.7736,-1.7716,-1.7716,-1.7652,-1.7833,-1.8203,-1.8615,-1.8771,-1.8878,-1.8998,-1.9178,-1.9339,-1.9359,-1.9366,-1.9366,-1.9366,-1.9366,-1.9366,-1.9366,-1.9366,-1.9366,-1.9419,-1.9679,-1.9833,-1.992,-2.0054,-2.0147,-2.0234,-2.0254,-2.0394,-2.0615,-2.044,-2.0506,-2.1029,-2.1062,-2.1082,-2.1096,-2.1102,-2.1102,-2.1102,-2.1102,-2.1102,-2.1102,-2.1102,-2.1102,-2.1102,-2.1102,-2.1102,-2.1042,-2.0855,-2.0708,-2.0494,-2.0301,-2.006,-1.98,-1.9633,-1.9492,-1.9372,-1.9372,-1.9372,-1.9366,-1.9366,-1.9366,-1.9366,-1.9366,-1.9366,-2.0982,-2.1109,-2.1102,-2.1102,-2.1102,-2.1102,-2.1102,-2.1102,-2.1102,-2.1102,-2.1102,-2.1102,-2.1102,-2.1102,-2.1102,-2.1102,-2.1102,-2.1102,-2.1102,-2.1102,-2.1102,-2.1076,-2.1002,-2.0915,-2.0748,-2.0541,-2.0254,-2.0007,-1.9793,-1.9533,-1.9379,-1.9366,-1.9366,-1.9366,-1.9366,-1.9366,-1.9366,-1.9366,-1.9366,-1.9366,-1.9366,-1.9366,-1.9366,-1.9359,-1.9279,-1.9132,-1.8925,-1.8644,-1.8444,-1.829,-1.825,-1.8031,-1.7741,-1.8123,-1.8621,-1.9023,-1.9011,-1.9032,-1.9212,-1.9312,-1.9366,-1.9366,-1.9366,-1.9366,-1.9366,-1.9366,-1.9366,-1.9366,-1.9366,-1.9372,-1.9446,-1.9826,-2.0247,-2.0641,-2.0481,-2.0354,-2.0508,-2.0568,-2.0675,-2.0929,-2.0843,-2.0896,-2.1062,-2.1102,-2.1102,-2.1102,-2.1102,-2.1102,-2.1102,-2.1102,-2.1102,-2.1102,-2.1102,-2.1102,-2.1102,-2.1102,-2.1102,-2.1102,-2.1002,-2.0902,-2.0661,-2.0414,-2.0134,-1.9846,-1.982,-1.9713,-1.9499,-1.9379,-1.9379,-1.9432,-1.9372,-1.9372,-1.9366,-1.9366,-1.9366,-2.1102,-2.1102,-2.1102,-2.1102,-2.1102,-2.1102,-2.1102,-2.1102,-2.1102,-2.1102,-2.1102,-2.1102,-2.1102,-2.1102,-2.1102,-2.1102,-2.1102,-2.1102,-2.1102,-2.1102,-2.1102,-2.1096,-2.1096,-2.1096,-2.1015,-2.0848,-2.0555,-2.0274,-1.9987,-1.9693,-1.9506,-1.9386,-1.9366,-1.9366,-1.9366,-1.9366,-1.9366,-1.9366,-1.9366,-1.9366,-1.9366,-1.9366,-1.9366,-1.9366,-1.9366,-1.9265,-1.9098,-1.8945,-1.8764,-1.8564,-1.849,-1.8295,-1.8032,-1.8414,-1.8937,-1.9341,-1.924,-1.9199,-1.9319,-1.9366,-1.9366,-1.9366,-1.9366,-1.9366,-1.9366,-1.9366,-1.9366,-1.9366,-1.9366,-1.9432,-1.9626,-2.0074,-2.0595,-2.0935,-2.0802,-2.0668,-2.0842,-2.0862,-2.0935,-2.1056,-2.1102,-2.1102,-2.1102,-2.1102,-2.1102,-2.1102,-2.1102,-2.1102,-2.1102,-2.1102,-2.1102,-2.1102,-2.1102,-2.1102,-2.1102,-2.1102,-2.1102,-2.1102,-2.1089,-2.1002,-2.0855,-2.0595,-2.0401,-2.018,-2.0067,-1.9927,-1.9746,-1.9599,-1.9579,-1.9573,-1.9466,-1.9372,-1.9372,-1.9366,-1.9366,-2.1102,-2.1102,-2.1102,-2.1102,-2.1102,-2.1102,-2.1102,-2.1102,-2.1102,-2.1102,-2.1102,-2.1102,-2.1102,-2.1102,-2.1102,-2.1102,-2.1102,-2.1102,-2.1102,-2.1102,-2.1102,-2.1102,-2.1102,-2.1102,-2.1089,-2.1015,-2.0802,-2.0494,-2.018,-1.9913,-1.9639,-1.9432,-1.9366,-1.9366,-1.9366,-1.9366,-1.9366,-1.9366,-1.9366,-1.9366,-1.9366,-1.9366,-1.9366,-1.9366,-1.9366,-1.9359,-1.9332,-1.9292,-1.9118,-1.8617,-1.8577,-1.8619,-1.8684,-1.8844,-1.9078,-1.9279,-1.9325,-1.9339,-1.9366,-1.9366,-1.9366,-1.9366,-1.9366,-1.9366,-1.9366,-1.9366,-1.9366,-1.9366,-1.9366,-1.9519,-1.986,-2.0347,-2.0742,-2.1022,-2.1076,-2.1096,-2.1102,-2.1102,-2.1102,-2.1102,-2.1102,-2.1102,-2.1102,-2.1102,-2.1102,-2.1102,-2.1102,-2.1102,-2.1102,-2.1102,-2.1102,-2.1102,-2.1102,-2.1102,-2.1102,-2.1102,-2.1102,-2.1102,-2.1102,-2.1062,-2.1036,-2.0855,-2.0742,-2.0581,-2.0381,-2.0227,-2.0107,-1.9987,-1.9846,-1.9673,-1.9526,-1.9432,-1.9366,-1.9366,-1.9366,-2.1102,-2.1102,-2.1102,-2.1102,-2.1102,-2.1102,-2.1102,-2.1102,-2.1102,-2.1102,-2.1102,-2.1102,-2.1102,-2.1102,-2.1102,-2.1102,-2.1102,-2.1102,-2.1102,-2.1102,-2.1102,-2.1102,-2.1102,-2.1102,-2.1102,-2.1042,-2.0815,-2.0535,-2.0241,-1.9973,-1.9659,-1.9426,-1.9379,-1.9366,-1.9366,-1.9366,-1.9366,-1.9366,-1.9366,-1.9366,-1.9366,-1.9366,-1.9366,-1.9366,-1.9366,-1.9366,-1.9366,-1.9366,-1.9305,-1.9212,-1.9152,-1.9145,-1.9205,-1.9245,-1.9285,-1.9332,-1.9366,-1.9366,-1.9366,-1.9366,-1.9366,-1.9366,-1.9366,-1.9366,-1.9366,-1.9366,-1.9366,-1.9366,-1.9379,-1.9613,-2.0094,-2.0454,-2.0795,-2.1036,-2.1102,-2.1102,-2.1102,-2.1102,-2.1102,-2.1102,-2.1102,-2.1102,-2.1102,-2.1102,-2.1102,-2.1102,-2.1102,-2.1102,-2.1102,-2.1102,-2.1102,-2.1102,-2.1102,-2.1102,-2.1102,-2.1102,-2.1102,-2.1102,-2.1102,-2.1102,-2.1082,-2.1056,-2.0909,-2.0775,-2.0641,-2.0514,-2.0434,-2.012,-1.992,-1.976,-1.9613,-1.9519,-1.9446,-1.9419,-1.9426,-2.1102,-2.1102,-2.1102,-2.1102,-2.1102,-2.1102,-2.1102,-2.1102,-2.1102,-2.1102,-2.1102,-2.1102,-2.1102,-2.1102,-2.1102,-2.1102,-2.1102,-2.1102,-2.1102,-2.1102,-2.1102,-2.1102,-2.1102,-2.1102,-2.1102,-2.1076,-2.0962,-2.0715,-2.0434,-2.014,-1.9867,-1.9566,-1.9446,-1.9372,-1.9366,-1.9366,-1.9366,-1.9366,-1.9366,-1.9366,-1.9366,-1.9366,-1.9366,-1.9366,-1.9366,-1.9366,-1.9366,-1.9366,-1.9366,-1.9366,-1.9366,-1.9366,-1.9366,-1.9366,-1.9366,-1.9366,-1.9366,-1.9366,-1.9366,-1.9366,-1.9366,-1.9366,-1.9366,-1.9366,-1.9366,-1.9366,-1.9366,-1.9399,-1.9533,-1.9806,-2.0368,-2.0702,-2.0955,-2.1049,-2.1102,-2.1102,-2.1102,-2.1102,-2.1102,-2.1102,-2.1102,-2.1102,-2.1102,-2.1102,-2.1102,-2.1102,-2.1102,-2.1102,-2.1102,-2.1102,-2.1102,-2.1102,-2.1102,-2.1102,-2.1102,-2.1102,-2.1102,-2.1102,-2.1102,-2.1102,-2.1096,-2.1076,-2.1042,-2.0929,-2.0828,-2.0855,-2.0735,-2.0381,-2.0094,-1.9993,-1.9867,-1.9679,-1.9546,-1.9519,-1.9559,-2.1102,-2.1102,-2.1102,-2.1102,-2.1102,-2.1102,-2.1102,-2.1102,-2.1102,-2.1102,-2.1102,-2.1102,-2.1102,-2.1102,-2.1102,-2.1102,-2.1102,-2.1102,-2.1102,-2.1102,-2.1102,-2.1102,-2.1102,-2.1102,-2.1102,-2.1102,-2.1076,-2.0915,-2.0641,-2.0374,-2.0027,-1.978,-1.9499,-1.9379,-1.9366,-1.9366,-1.9366,-1.9366,-1.9366,-1.9366,-1.9366,-1.9366,-1.9366,-1.9366,-1.9366,-1.9366,-1.9366,-1.9366,-1.9366,-1.9366,-1.9366,-1.9366,-1.9366,-1.9366,-1.9366,-1.9366,-1.9366,-1.9366,-1.9366,-1.9366,-1.9366,-1.9366,-1.9366,-1.9366,-1.9366,-1.9366,-1.9366,-1.9486,-1.9653,-2.0074,-2.0615,-2.0895,-2.1049,-2.1102,-2.1102,-2.1102,-2.1102,-2.1102,-2.1102,-2.1102,-2.1102,-2.1102,-2.1102,-2.1102,-2.1102,-2.1102,-2.1102,-2.1102,-2.1102,-2.1102,-2.1102,-2.1102,-2.1102,-2.1102,-2.1102,-2.1102,-2.1102,-2.1102,-2.1102,-2.1102,-2.1102,-2.1089,-2.1082,-2.1089,-2.1042,-2.1036,-2.0955,-2.0675,-2.0441,-2.0301,-2.0114,-1.992,-1.9773,-1.9639,-1.972,-2.1102,-2.1102,-2.1102,-2.1102,-2.1102,-2.1102,-2.1102,-2.1102,-2.1102,-2.1102,-2.1102,-2.1102,-2.1102,-2.1102,-2.1102,-2.1102,-2.1102,-2.1102,-2.1102,-2.1102,-2.1102,-2.1109,-2.1348,-2.1488,-2.1355,-2.1102,-2.1355,-2.1345,-2.0695,-2.0381,-2.0107,-1.98,-1.9506,-1.9372,-1.9366,-1.9366,-1.9366,-1.9366,-1.9366,-1.9366,-1.9366,-1.9366,-1.9366,-1.9366,-1.9366,-1.9366,-1.9366,-1.9366,-1.9366,-1.9366,-1.9366,-1.9366,-1.9366,-1.9366,-1.9366,-1.9366,-1.9366,-1.9366,-1.9366,-1.9366,-1.9366,-1.9366,-1.9366,-1.9366,-1.9366,-1.9379,-1.9406,-1.9573,-1.988,-2.0314,-2.0641,-2.0949,-2.1076,-2.1102,-2.1102,-2.1102,-2.1102,-2.1102,-2.1102,-2.1102,-2.1102,-2.1102,-2.1102,-2.1102,-2.1102,-2.1102,-2.1102,-2.1102,-2.1102,-2.1102,-2.1102,-2.1102,-2.1102,-2.1102,-2.1102,-2.1102,-2.1102,-2.1102,-2.1102,-2.1102,-2.1102,-2.1102,-2.1102,-2.1102,-2.1102,-2.1082,-2.0975,-2.0855,-2.0708,-2.0514,-2.0334,-2.016,-2.008,-2.0007,-2.0034,-2.1102,-2.1102,-2.1102,-2.1102,-2.1102,-2.1102,-2.1102,-2.1102,-2.1102,-2.1102,-2.1102,-2.1102,-2.1102,-2.1102,-2.1102,-2.1102,-2.1102,-2.1102,-2.1102,-2.1102,-2.1102,-2.1601,-2.2097,-2.2369,-2.2731,-2.3113,-2.3509,-2.2591,-2.0987,-2.0441,-2.0288,-1.9967,-1.9599,-1.9372,-1.9366,-1.9366,-1.9366,-1.9366,-1.9366,-1.9366,-1.9366,-1.9366,-1.9366,-1.9366,-1.9366,-1.9366,-1.9366,-1.9366,-1.9366,-1.9366,-1.9366,-1.9366,-1.9366,-1.9482,-1.9366,-1.9359,-1.9366,-1.9366,-1.9366,-1.9366,-1.9366,-1.9366,-1.9366,-1.9366,-1.9366,-1.9386,-1.9499,-1.9833,-2.0154,-2.0581,-2.0882,-2.1029,-2.1089,-2.1102,-2.1102,-2.1102,-2.1102,-2.1102,-2.1102,-2.1229,-2.1229,-2.1229,-2.1102,-2.1102,-2.1102,-2.1102,-2.1102,-2.1102,-2.1102,-2.1102,-2.1102,-2.1102,-2.1102,-2.1102,-2.1102,-2.1102,-2.1102,-2.1102,-2.1102,-2.1102,-2.1102,-2.1102,-2.1102,-2.1102,-2.1102,-2.1102,-2.1076,-2.0982,-2.0848,-2.0728,-2.0575,-2.0454,-2.0414,-2.0394,-2.0401,-2.1102,-2.1102,-2.1102,-2.1102,-2.1102,-2.1102,-2.1102,-2.1102,-2.1102,-2.1102,-2.1102,-2.1102,-2.1102,-2.1102,-2.1102,-2.1102,-2.1102,-2.1102,-2.1229,-2.1594,-2.172,-2.2215,-2.334,-2.4007,-2.4402,-2.4587,-2.5445,-2.4835,-2.2587,-2.1589,-2.0981,-2.0633,-2.0103,-1.9597,-1.9482,-1.9366,-1.9366,-1.9366,-1.9366,-1.9366,-1.9366,-1.9366,-1.9366,-1.9366,-1.9366,-1.9482,-1.9822,-1.9482,-1.9707,-1.9822,-1.9815,-1.9693,-1.9441,-1.9577,-1.9693,-1.9441,-1.9461,-1.9366,-1.9366,-1.9366,-1.9366,-1.9366,-1.9366,-1.9366,-1.9406,-1.9479,-1.9673,-2.0154,-2.0488,-2.101,-2.1491,-2.1229,-2.1355,-2.1594,-2.1601,-2.1481,-2.1355,-2.1355,-2.1481,-2.1481,-2.1488,-2.1362,-2.1362,-2.1102,-2.1102,-2.1102,-2.1102,-2.1102,-2.1102,-2.1102,-2.1102,-2.1102,-2.1102,-2.1102,-2.1102,-2.1102,-2.1102,-2.1102,-2.1102,-2.1102,-2.1102,-2.1102,-2.1102,-2.1102,-2.1102,-2.1102,-2.1102,-2.1096,-2.0982,-2.0882,-2.0802,-2.0748,-2.0728,-2.0695,-2.0675,-2.1102,-2.1102,-2.1102,-2.1102,-2.1102,-2.1102,-2.1102,-2.1102,-2.1102,-2.1102,-2.1102,-2.1102,-2.1102,-2.1229,-2.1229,-2.1102,-2.1229,-2.1475,-2.2097,-2.2709,-2.2952,-2.3574,-2.471,-2.57,-2.5643,-2.57,-2.6313,-2.5683,-2.4439,-2.3743,-2.284,-2.1867,-2.1074,-2.05,-1.9707,-1.9482,-1.9366,-1.9482,-1.9482,-1.9475,-1.9468,-1.9468,-1.9713,-1.9611,-1.9713,-2.0046,-2.073,-2.0385,-2.0155,-2.0945,-2.0952,-2.0415,-1.9759,-2.0422,-2.0273,-1.98,-1.9381,-1.9366,-1.9366,-1.9366,-1.9366,-1.9482,-1.9482,-1.9482,-1.9918,-2.011,-2.0363,-2.018,-2.0637,-2.1534,-2.2402,-2.1846,-2.1964,-2.2459,-2.2834,-2.2215,-2.1846,-2.1957,-2.1964,-2.1797,-2.1783,-2.1846,-2.1754,-2.1362,-2.1102,-2.1102,-2.1102,-2.1102,-2.1102,-2.1102,-2.1102,-2.1102,-2.1102,-2.1102,-2.1102,-2.1102,-2.1102,-2.1102,-2.1102,-2.1102,-2.1102,-2.1102,-2.1102,-2.1102,-2.1102,-2.1102,-2.1102,-2.1096,-2.1076,-2.1029,-2.0949,-2.0982,-2.1049,-2.1002,-2.0909,-2.2996,-2.2943,-2.1776,-2.1853,-2.2348,-2.1727,-2.1362,-2.1362,-2.1235,-2.1102,-2.1102,-2.1102,-2.1475,-2.2097,-2.2215,-2.2709,-2.3084,-2.3208,-2.3581,-2.407,-2.4309,-2.4925,-2.5928,-2.6596,-2.6692,-2.7306,-2.7574,-2.7832,-2.6782,-2.5001,-2.341,-2.2372,-2.1641,-2.0945,-2.0385,-1.9707,-1.9931,-2.027,-2.0378,-2.0106,-1.995,-2.0673,-2.1454,-2.1428,-2.1462,-2.1638,-2.1851,-2.1851,-2.1623,-2.2191,-2.2191,-2.2047,-2.1427,-2.1229,-2.0644,-1.9603,-1.9394,-1.9359,-1.9366,-1.9482,-1.9482,-1.9707,-2.006,-2.0917,-2.1437,-2.195,-2.2268,-2.2736,-2.2933,-2.3417,-2.39,-2.369,-2.3698,-2.3946,-2.4193,-2.3822,-2.3201,-2.2812,-2.2673,-2.2498,-2.2477,-2.2841,-2.3171,-2.2885,-2.2244,-2.1102,-2.1229,-2.1229,-2.1102,-2.1102,-2.1102,-2.1102,-2.1102,-2.1102,-2.1102,-2.1102,-2.1102,-2.1102,-2.1102,-2.1102,-2.1102,-2.1102,-2.1102,-2.1102,-2.1102,-2.1102,-2.1102,-2.1096,-2.1089,-2.1096,-2.1102,-2.1102,-2.1102,-2.1089,-2.0995,-2.4703,-2.5107,-2.3185,-2.2835,-2.3327,-2.2231,-2.161,-2.1375,-2.1361,-2.1159,-2.1135,-2.1434,-2.2215,-2.3076,-2.345,-2.3938,-2.481,-2.4933,-2.5301,-2.5423,-2.5668,-2.6277,-2.7142,-2.7633,-2.8011,-2.8984,-2.8627,-2.8673,-2.7893,-2.6503,-2.4577,-2.3135,-2.2858,-2.2124,-2.1517,-2.0938,-2.0802,-2.0437,-2.1229,-2.1616,-2.1737,-2.2402,-2.3238,-2.3529,-2.3473,-2.3087,-2.3432,-2.2982,-2.2869,-2.3432,-2.3424,-2.3295,-2.3047,-2.2605,-2.2009,-2.1126,-2.0887,-2.0608,-2.05,-2.0385,-2.0046,-2.05,-2.0974,-2.2086,-2.3106,-2.38,-2.4142,-2.4228,-2.4444,-2.4862,-2.5301,-2.517,-2.5056,-2.5178,-2.5546,-2.5301,-2.5048,-2.454,-2.3447,-2.2326,-2.3017,-2.5075,-2.5246,-2.4928,-2.3766,-2.1734,-2.1229,-2.1355,-2.1229,-2.1102,-2.1102,-2.1102,-2.1102,-2.1102,-2.1102,-2.1102,-2.1102,-2.1102,-2.1102,-2.1102,-2.1102,-2.1102,-2.1102,-2.1102,-2.1102,-2.1102,-2.1102,-2.1102,-2.1102,-2.1102,-2.1102,-2.1102,-2.1102,-2.1102,-2.1089,-2.5683,-2.7577,-2.5417,-2.396,-2.305,-2.2662,-2.186,-2.1213,-2.164,-2.1446,-2.1087,-2.2164,-2.2996,-2.3544,-2.4378,-2.5008,-2.5178,-2.5056,-2.5912,-2.665,-2.7021,-2.7633,-2.8241,-2.8609,-2.8737,-2.8975,-2.8911,-2.8718,-2.8407,-2.7613,-2.646,-2.5771,-2.4419,-2.3729,-2.3207,-2.2515,-2.1466,-2.1256,-2.1918,-2.3948,-2.4223,-2.4449,-2.4174,-2.5302,-2.4328,-2.3544,-2.4556,-2.388,-2.3768,-2.4659,-2.4659,-2.4531,-2.4403,-2.4078,-2.359,-2.3111,-2.2469,-2.2297,-2.2305,-2.1737,-2.1737,-2.2418,-2.2901,-2.3254,-2.4245,-2.4174,-2.4276,-2.5019,-2.5626,-2.6001,-2.6156,-2.6034,-2.6164,-2.6529,-2.6771,-2.6529,-2.6399,-2.6277,-2.5027,-2.2941,-2.3542,-2.5888,-2.7025,-2.6688,-2.4494,-2.2466,-2.1475,-2.1601,-2.1229,-2.1102,-2.1102,-2.1102,-2.1102,-2.1102,-2.1102,-2.1102,-2.1102,-2.1102,-2.1102,-2.1102,-2.1102,-2.1102,-2.1102,-2.1102,-2.1102,-2.1102,-2.1102,-2.1102,-2.1102,-2.1102,-2.1102,-2.1102,-2.1102,-2.1102,-2.1102,-2.7085,-2.7886,-2.7022,-2.6118,-2.5177,-2.3535,-2.2833,-2.2595,-2.1534,-2.1229,-2.1605,-2.2916,-2.4154,-2.502,-2.5583,-2.6559,-2.7357,-2.7504,-2.7735,-2.8002,-2.837,-2.8609,-2.8984,-2.8984,-2.8984,-2.892,-2.8764,-2.859,-2.837,-2.7756,-2.7349,-2.6515,-2.5456,-2.4744,-2.4214,-2.4094,-2.3031,-2.2609,-2.3158,-2.5052,-2.5878,-2.6002,-2.5719,-2.618,-2.6104,-2.5357,-2.5798,-2.5459,-2.5569,-2.5688,-2.5789,-2.5661,-2.5415,-2.5101,-2.4744,-2.4361,-2.3623,-2.3656,-2.388,-2.3095,-2.2862,-2.3768,-2.4136,-2.4578,-2.5689,-2.6169,-2.6693,-2.7086,-2.7271,-2.7495,-2.7753,-2.7753,-2.7882,-2.8131,-2.8002,-2.7753,-2.7504,-2.7383,-2.722,-2.5399,-2.5618,-2.6986,-2.792,-2.8438,-2.5741,-2.3193,-2.2459,-2.1727,-2.1348,-2.1102,-2.1102,-2.1102,-2.1102,-2.1102,-2.1102,-2.1102,-2.1102,-2.1102,-2.1102,-2.1102,-2.1102,-2.1102,-2.1102,-2.1102,-2.1102,-2.1102,-2.1102,-2.1102,-2.1102,-2.1102,-2.1102,-2.1102,-2.1102,-2.1102,-2.1102,-2.8067,-2.796,-2.8067,-2.7406,-2.6223,-2.4392,-2.3813,-2.3705,-2.2398,-2.2024,-2.3035,-2.4061,-2.5068,-2.6091,-2.6754,-2.7328,-2.8138,-2.8328,-2.8564,-2.8619,-2.8655,-2.8874,-2.8948,-2.8957,-2.8911,-2.8792,-2.8563,-2.8352,-2.7921,-2.7435,-2.7169,-2.6616,-2.5958,-2.5485,-2.5348,-2.5221,-2.4922,-2.4522,-2.4803,-2.5631,-2.6564,-2.6582,-2.6518,-2.6582,-2.6436,-2.6373,-2.6473,-2.6245,-2.6364,-2.6473,-2.6473,-2.6582,-2.6245,-2.5898,-2.5313,-2.4855,-2.4522,-2.4556,-2.4787,-2.4787,-2.4496,-2.5412,-2.555,-2.6412,-2.7464,-2.7957,-2.7966,-2.8573,-2.8847,-2.8984,-2.8984,-2.8737,-2.8618,-2.8618,-2.8737,-2.837,-2.837,-2.8241,-2.837,-2.8051,-2.8295,-2.8064,-2.7953,-2.8358,-2.6596,-2.4186,-2.3076,-2.2215,-2.1229,-2.1102,-2.1102,-2.1102,-2.1102,-2.1102,-2.1102,-2.1102,-2.1102,-2.1102,-2.1102,-2.1102,-2.1102,-2.1102,-2.1102,-2.1102,-2.1102,-2.1102,-2.1102,-2.1109,-2.1102,-2.1102,-2.1102,-2.1102,-2.1102,-2.1102,-2.1102,-2.8291,-2.8291,-2.8291,-2.7342,-2.5887,-2.5357,-2.4599,-2.4003,-2.4228,-2.4611,-2.4792,-2.5413,-2.5707,-2.6229,-2.707,-2.7637,-2.7833,-2.7948,-2.8077,-2.8342,-2.8407,-2.8618,-2.8755,-2.8792,-2.8608,-2.8452,-2.8214,-2.7847,-2.7325,-2.716,-2.693,-2.6747,-2.64,-2.6364,-2.6482,-2.6591,-2.6464,-2.6464,-2.6354,-2.6491,-2.6509,-2.6609,-2.6628,-2.6628,-2.6619,-2.6591,-2.6591,-2.6591,-2.6591,-2.6591,-2.6591,-2.6591,-2.6473,-2.6473,-2.6245,-2.6236,-2.6236,-2.6364,-2.6473,-2.6473,-2.65,-2.6616,-2.6487,-2.7173,-2.8077,-2.8361,-2.848,-2.892,-2.8984,-2.8984,-2.8984,-2.8984,-2.8984,-2.8984,-2.8984,-2.8984,-2.8856,-2.8737,-2.8865,-2.8865,-2.8984,-2.8865,-2.8489,-2.8011,-2.6788,-2.5178,-2.3938,-2.2709,-2.172,-2.1475,-2.1601,-2.1102,-2.1102,-2.1102,-2.1102,-2.1102,-2.1102,-2.1102,-2.1102,-2.1102,-2.1102,-2.1102,-2.1102,-2.1102,-2.1102,-2.1102,-2.1109,-2.1109,-2.1109,-2.0976,-2.1102,-2.1102,-2.1102,-2.1102,-2.0976,-2.8174,-2.8067,-2.8067,-2.753,-2.6763,-2.6073,-2.5735,-2.5771,-2.5907,-2.5648,-2.519,-2.5913,-2.6462,-2.683,-2.7051,-2.749,-2.771,-2.7765,-2.7921,-2.7948,-2.7976,-2.8031,-2.8177,-2.8251,-2.8132,-2.793,-2.7746,-2.7563,-2.7205,-2.6976,-2.6774,-2.6609,-2.6591,-2.6591,-2.6591,-2.6591,-2.6582,-2.6582,-2.6582,-2.6591,-2.6591,-2.6591,-2.6591,-2.6591,-2.6591,-2.6591,-2.6591,-2.6591,-2.6591,-2.6591,-2.6591,-2.6591,-2.6591,-2.6591,-2.6591,-2.6591,-2.6591,-2.6591,-2.6591,-2.6591,-2.6637,-2.6839,-2.7123,-2.7462,-2.7911,-2.826,-2.8572,-2.8865,-2.8975,-2.8984,-2.8984,-2.8984,-2.8984,-2.8984,-2.8984,-2.8984,-2.8984,-2.8984,-2.8984,-2.8984,-2.8984,-2.8984,-2.8737,-2.8489,-2.7504,-2.665,-2.5415,-2.3938,-2.2834,-2.2459,-2.2341,-2.1475,-2.1102,-2.1102,-2.1102,-2.1102,-2.1102,-2.1102,-2.1102,-2.1102,-2.1102,-2.1102,-2.1102,-2.1102,-2.1102,-2.1102,-2.0982,-2.0982,-2.0982,-2.0976,-2.0976,-2.0982,-2.0982,-2.0856,-2.0729,-2.796,-2.7873,-2.7902,-2.7755,-2.7422,-2.6735,-2.6636,-2.6781,-2.6691,-2.6136,-2.5697,-2.6263,-2.6719,-2.6921,-2.6995,-2.7059,-2.7352,-2.7343,-2.7508,-2.7526,-2.7563,-2.7682,-2.7756,-2.7719,-2.7728,-2.7536,-2.7334,-2.7132,-2.693,-2.671,-2.6609,-2.66,-2.6591,-2.6591,-2.6591,-2.6591,-2.6591,-2.6591,-2.6591,-2.6591,-2.6591,-2.6591,-2.6591,-2.6591,-2.6591,-2.6591,-2.6591,-2.6591,-2.6591,-2.6591,-2.6591,-2.6591,-2.6591,-2.6591,-2.6591,-2.6591,-2.6591,-2.6591,-2.6591,-2.6591,-2.6674,-2.6875,-2.716,-2.7554,-2.7957,-2.8416,-2.8682,-2.8902,-2.8975,-2.8984,-2.8984,-2.8984,-2.8984,-2.8984,-2.8984,-2.8984,-2.8984,-2.8984,-2.8984,-2.8984,-2.8984,-2.8984,-2.8984,-2.8856,-2.8489,-2.7753,-2.69,-2.5538,-2.4186,-2.3822,-2.3325,-2.2341,-2.172,-2.172,-2.1475,-2.1102,-2.1102,-2.1102,-2.1102,-2.1102,-2.1102,-2.1102,-2.1102,-2.1102,-2.1102,-2.1102,-2.0856,-2.0856,-2.0856,-2.0982,-2.0982,-2.0982,-2.0989,-2.0736,-2.0482,-2.7656,-2.7705,-2.7864,-2.7795,-2.7707,-2.7168,-2.689,-2.6582,-2.6591,-2.6582,-2.6591,-2.6582,-2.6628,-2.6609,-2.6619,-2.6664,-2.671,-2.6701,-2.6894,-2.7086,-2.716,-2.7361,-2.7517,-2.7572,-2.737,-2.7224,-2.7077,-2.6903,-2.6637,-2.6609,-2.6591,-2.6591,-2.6591,-2.6591,-2.6591,-2.6591,-2.6591,-2.6591,-2.6591,-2.6591,-2.6591,-2.6591,-2.6591,-2.6591,-2.6591,-2.6591,-2.6591,-2.6591,-2.6591,-2.6591,-2.6591,-2.6591,-2.6591,-2.6591,-2.6591,-2.6591,-2.6591,-2.6591,-2.6591,-2.6591,-2.6784,-2.704,-2.7462,-2.7921,-2.8297,-2.8627,-2.8856,-2.8938,-2.8984,-2.8984,-2.8984,-2.8984,-2.8984,-2.8984,-2.8984,-2.8984,-2.8984,-2.8984,-2.8984,-2.8984,-2.8984,-2.8984,-2.8984,-2.8984,-2.8856,-2.8609,-2.7882,-2.7263,-2.6034,-2.5178,-2.4679,-2.3574,-2.2959,-2.2584,-2.2215,-2.1971,-2.1594,-2.1846,-2.1229,-2.1102,-2.1102,-2.1102,-2.1102,-2.1102,-2.1102,-2.0976,-2.0982,-2.0862,-2.0862,-2.0862,-2.0729,-2.0736,-2.0736,-2.0488,-2.0234,-2.7207,-2.7217,-2.7231,-2.7331,-2.7324,-2.7074,-2.6989,-2.689,-2.6691,-2.6591,-2.6591,-2.6591,-2.6691,-2.6591,-2.6591,-2.6582,-2.6591,-2.66,-2.6655,-2.6756,-2.683,-2.6857,-2.6921,-2.6985,-2.6857,-2.682,-2.6756,-2.6747,-2.6628,-2.6591,-2.6591,-2.6591,-2.6591,-2.6591,-2.6591,-2.6591,-2.6591,-2.6591,-2.6591,-2.6591,-2.6591,-2.6591,-2.6591,-2.6591,-2.6591,-2.6591,-2.6591,-2.6591,-2.6591,-2.6591,-2.6591,-2.6591,-2.6591,-2.6591,-2.6591,-2.6591,-2.6591,-2.6591,-2.6591,-2.6591,-2.6774,-2.7178,-2.7554,-2.7948,-2.8352,-2.8728,-2.8975,-2.8984,-2.8984,-2.8984,-2.8984,-2.8984,-2.8984,-2.8984,-2.8984,-2.8984,-2.8984,-2.8984,-2.8984,-2.8984,-2.8984,-2.8984,-2.8984,-2.8984,-2.8984,-2.8984,-2.8737,-2.8241,-2.7753,-2.6892,-2.5912,-2.4802,-2.4309,-2.4062,-2.369,-2.3325,-2.2834,-2.2459,-2.1971,-2.1348,-2.1355,-2.1355,-2.1102,-2.1102,-2.1102,-2.1102,-2.0982,-2.0982,-2.0862,-2.0482,-2.0348,-2.0482,-2.0354,-2.0106,-1.9851,-2.6768,-2.6787,-2.6851,-2.685,-2.6779,-2.672,-2.6695,-2.6864,-2.6825,-2.6682,-2.6591,-2.68,-2.68,-2.6591,-2.6691,-2.6682,-2.6591,-2.6591,-2.6609,-2.6619,-2.6591,-2.6628,-2.66,-2.6591,-2.6628,-2.6591,-2.6591,-2.6619,-2.6591,-2.6591,-2.6591,-2.6591,-2.6591,-2.6591,-2.6591,-2.6591,-2.6591,-2.6591,-2.6591,-2.6591,-2.6591,-2.6591,-2.6591,-2.6591,-2.6591,-2.6591,-2.6591,-2.6591,-2.6591,-2.6591,-2.6591,-2.6591,-2.6591,-2.6591,-2.6591,-2.6591,-2.6591,-2.6591,-2.6591,-2.6591,-2.6903,-2.7288,-2.7627,-2.8058,-2.8471,-2.8865,-2.8948,-2.8984,-2.8984,-2.8984,-2.8984,-2.8984,-2.8984,-2.8984,-2.8984,-2.8984,-2.8984,-2.8984,-2.8984,-2.8984,-2.8984,-2.8984,-2.8984,-2.8984,-2.8984,-2.8984,-2.8984,-2.8856,-2.8489,-2.8122,-2.7142,-2.6034,-2.579,-2.5538,-2.5048,-2.4679,-2.4186,-2.3574,-2.2834,-2.2341,-2.1846,-2.1475,-2.1355,-2.1229,-2.1102,-2.1229,-2.1348,-2.0976,-2.0856,-2.0475,-2.0221,-2.0221,-2.0094,-1.9717,-1.959,-2.6338,-2.6367,-2.6473,-2.6321,-2.6153,-2.6116,-2.6343,-2.6682,-2.6789,-2.6825,-2.6763,-2.7107,-2.7008,-2.6691,-2.6791,-2.6791,-2.6691,-2.6591,-2.6591,-2.6591,-2.6591,-2.6591,-2.6591,-2.6591,-2.6591,-2.6591,-2.6591,-2.6591,-2.6591,-2.6591,-2.6591,-2.6591,-2.6591,-2.6591,-2.6591,-2.6591,-2.6591,-2.6591,-2.6591,-2.6591,-2.6591,-2.6591,-2.6591,-2.6591,-2.6591,-2.6591,-2.6591,-2.6591,-2.6591,-2.6591,-2.6591,-2.6591,-2.6591,-2.6591,-2.6591,-2.6591,-2.6591,-2.6591,-2.6591,-2.6591,-2.704,-2.7426,-2.7783,-2.8205,-2.8608,-2.8893,-2.8975,-2.8984,-2.8984,-2.8984,-2.8984,-2.8984,-2.8984,-2.8984,-2.8984,-2.8984,-2.8984,-2.8984,-2.8984,-2.8984,-2.8984,-2.8984,-2.8984,-2.8984,-2.8984,-2.8984,-2.8984,-2.8984,-2.8984,-2.8856,-2.8241,-2.7263,-2.7142,-2.6892,-2.6277,-2.579,-2.5415,-2.4679,-2.3946,-2.345,-2.3208,-2.2466,-2.1601,-2.1957,-2.2313,-2.1832,-2.1706,-2.1315,-2.1056,-2.0849,-2.0596,-2.0214,-1.996,-1.9833,-1.9705,-2.5898,-2.5839,-2.6039,-2.6002,-2.5948,-2.6058,-2.6032,-2.605,-2.6324,-2.6517,-2.6905,-2.698,-2.6871,-2.6645,-2.6682,-2.6691,-2.6691,-2.6582,-2.6591,-2.6591,-2.6591,-2.6591,-2.6591,-2.6591,-2.6591,-2.6591,-2.6591,-2.6591,-2.6591,-2.6591,-2.6591,-2.6591,-2.6591,-2.6591,-2.6591,-2.6591,-2.6591,-2.6591,-2.6591,-2.6591,-2.6591,-2.6591,-2.6591,-2.6591,-2.6591,-2.6591,-2.6591,-2.6591,-2.6591,-2.6591,-2.6591,-2.6591,-2.6591,-2.6591,-2.6591,-2.6591,-2.6591,-2.6591,-2.6591,-2.6637,-2.7004,-2.7471,-2.7856,-2.8306,-2.8663,-2.8874,-2.8984,-2.8984,-2.8984,-2.8984,-2.8984,-2.8984,-2.8984,-2.8984,-2.8984,-2.8984,-2.8984,-2.8984,-2.8984,-2.8984,-2.8984,-2.8984,-2.8984,-2.8984,-2.8984,-2.8984,-2.8984,-2.8984,-2.8984,-2.8856,-2.8856,-2.8241,-2.837,-2.8122,-2.7513,-2.7142,-2.665,-2.6034,-2.5301,-2.4933,-2.4564,-2.3822,-2.3201,-2.3536,-2.3762,-2.3164,-2.2527,-2.1693,-2.1332,-2.1553,-2.1209,-2.1076,-2.0956,-2.0703,-2.0449,-2.5732,-2.5674,-2.578,-2.5778,-2.5826,-2.5748,-2.5838,-2.5907,-2.5907,-2.6163,-2.6449,-2.6733,-2.6738,-2.6488,-2.659,-2.6791,-2.6682,-2.6691,-2.6682,-2.6691,-2.6591,-2.6591,-2.6591,-2.6591,-2.6591,-2.6591,-2.6591,-2.6591,-2.6582,-2.6591,-2.6591,-2.6591,-2.6591,-2.6591,-2.6591,-2.6591,-2.6591,-2.6591,-2.6591,-2.6591,-2.6591,-2.6591,-2.6591,-2.6591,-2.6591,-2.6591,-2.6591,-2.6591,-2.6591,-2.6591,-2.6591,-2.6591,-2.6591,-2.6591,-2.6591,-2.6591,-2.6591,-2.6591,-2.6591,-2.6692,-2.6958,-2.7453,-2.7765,-2.815,-2.8783,-2.8984,-2.8984,-2.8984,-2.8984,-2.8984,-2.8984,-2.8984,-2.8984,-2.8984,-2.8984,-2.8984,-2.8984,-2.8984,-2.8984,-2.8984,-2.8984,-2.8984,-2.8984,-2.8984,-2.8984,-2.8984,-2.8984,-2.8984,-2.8984,-2.8984,-2.8984,-2.8984,-2.8984,-2.8984,-2.8489,-2.8122,-2.8002,-2.7383,-2.665,-2.5912,-2.5178,-2.5056,-2.4925,-2.5016,-2.4885,-2.4525,-2.3731,-2.3477,-2.3091,-2.3311,-2.282,-2.2062,-2.1943,-2.1943,-2.2076,-2.5732,-2.5732,-2.5645,-2.5645,-2.5645,-2.5352,-2.5455,-2.5662,-2.5591,-2.5477,-2.5657,-2.6248,-2.6244,-2.6407,-2.6504,-2.6769,-2.6881,-2.6682,-2.6791,-2.6791,-2.67,-2.6591,-2.6591,-2.6591,-2.6691,-2.6691,-2.6582,-2.6691,-2.6691,-2.6691,-2.6591,-2.6591,-2.6591,-2.6591,-2.6591,-2.6591,-2.6591,-2.6591,-2.6591,-2.6591,-2.6591,-2.6591,-2.6591,-2.6591,-2.6591,-2.6591,-2.6591,-2.6591,-2.6591,-2.6591,-2.6591,-2.6591,-2.6591,-2.6591,-2.6591,-2.6591,-2.6591,-2.6591,-2.6591,-2.66,-2.7022,-2.7444,-2.7646,-2.8067,-2.87,-2.8966,-2.8966,-2.8984,-2.8984,-2.8984,-2.8984,-2.8984,-2.8984,-2.8984,-2.8984,-2.8984,-2.8984,-2.8984,-2.8984,-2.8984,-2.8984,-2.8984,-2.8984,-2.8984,-2.8984,-2.8984,-2.8984,-2.8984,-2.8984,-2.8984,-2.8984,-2.8984,-2.8984,-2.8984,-2.8984,-2.8856,-2.8609,-2.837,-2.7633,-2.665,-2.6156,-2.6407,-2.6407,-2.6034,-2.5904,-2.6017,-2.6394,-2.6583,-2.6182,-2.5079,-2.3566,-2.2812,-2.3427,-2.3559,-2.4193,-2.5732,-2.5645,-2.544,-2.5333,-2.5333,-2.5128,-2.4881,-2.4839,-2.4758,-2.4616,-2.482,-2.5145,-2.5685,-2.6268,-2.612,-2.6365,-2.6784,-2.6652,-2.6545,-2.6582,-2.6534,-2.6499,-2.6636,-2.6534,-2.6754,-2.6682,-2.6682,-2.6691,-2.6691,-2.6691,-2.6591,-2.6591,-2.6591,-2.6591,-2.6591,-2.6591,-2.6591,-2.6591,-2.6591,-2.6591,-2.6591,-2.6591,-2.6591,-2.6591,-2.6591,-2.6591,-2.6591,-2.6591,-2.6591,-2.6591,-2.6591,-2.6591,-2.6591,-2.6591,-2.6591,-2.6591,-2.6591,-2.6591,-2.6591,-2.6591,-2.6967,-2.7297,-2.7554,-2.7967,-2.8498,-2.8883,-2.8911,-2.8975,-2.8984,-2.8984,-2.8984,-2.8984,-2.8984,-2.8984,-2.8984,-2.8984,-2.8984,-2.8984,-2.8984,-2.8984,-2.8984,-2.8984,-2.8984,-2.8984,-2.8984,-2.8984,-2.8984,-2.8984,-2.8984,-2.8984,-2.8984,-2.8984,-2.8984,-2.8984,-2.8984,-2.8984,-2.8856,-2.8865,-2.8737,-2.7882,-2.7753,-2.825,-2.8131,-2.7513,-2.7633,-2.7993,-2.8532,-2.8277,-2.7704,-2.6327,-2.4317,-2.3442,-2.4301,-2.517,-2.5554]},{"header":{"parameterUnit":"m.s-1","parameterCategory":1,"la1":31.0,"la2":29.5877,"lo1":-88.7671,"lo2":-86.6584,"dy":0.0162,"dx":0.0185,"nx":115,"ny":88,"refTime":"2024-05-23T18:00:00:Z","depth":0,"parameterNumber":3,"parameterNumberName":"V-component_of_WINDS"},"data":[0.0,0.0,0.0,0.0,0.0,0.0,0.0,0.0,0.0,0.0,0.0,0.0,0.0,0.0,0.0,0.0,0.0,0.0,0.0,0.0,0.0,0.0,0.0,0.0,0.0,0.0,0.0,0.0,0.0,0.0,0.0,0.0,0.0,0.0,0.0,0.0,0.0,0.0,0.0,0.0,0.0,0.0,0.0,0.0,0.0,0.0,0.0,0.0,0.0,0.0,0.0,0.0,0.0,0.0,0.0,0.0,0.0,0.0,0.0,0.0,0.0,0.0,0.0,0.0,0.0,0.0,0.0,0.0,0.0,0.0,0.0,0.0,0.0,0.0,0.0,0.0,0.0,0.0,0.0,0.0,0.0,0.0,0.0,0.0,0.0,0.0,0.0,0.0,0.0,0.0,0.0,0.0,0.0,0.0,0.0,0.0,0.0,0.0,0.0,0.0,0.0,0.0,0.0,0.0,0.0,0.0,0.0,0.0,0.0,0.0,0.0,0.0,0.0,0.0,0.0,0.0,0.0,0.0,0.0,0.0,0.0,0.0,0.0,0.0,0.0,0.0,0.0,0.0,0.0,0.0,0.0,0.0,0.0,0.0,0.0,0.0,0.0,0.0,0.0,0.0,0.0,0.0,0.0,0.0,0.0,0.0,0.0,0.0,0.0,0.0,0.0,0.0,0.0,0.0,0.0,0.0,0.0,0.0,0.0,0.0,0.0,0.0,0.0,0.0,0.0,0.0,0.0,0.0,0.0,0.0,0.0,0.0,0.0,0.0,0.0,0.0,0.0,0.0,0.0,0.0,0.0,0.0,0.0,0.0,0.0,0.0,0.0,0.0,0.0,0.0,0.0,0.0,0.0,0.0,0.0,0.0,0.0,0.0,0.0,0.0,0.0,0.0,0.0,0.0,0.0,0.0,0.0,0.0,0.0,0.0,0.0,0.0,0.0,0.0,0.0,0.0,0.0,0.0,0.0,0.0,0.0,0.0,0.0,0.0,0.0,0.0,0.0,0.0,0.0,0.0,0.0,0.0,0.0,0.0,0.0,0.0,0.0,0.0,0.0,0.0,0.0,0.0,0.0,0.0,0.0,0.0,0.0,0.0,0.0,0.0,0.0,0.0,0.0,0.0,0.0,0.0,0.0,0.0,0.0,0.0,0.0,0.0,0.0,0.0,0.0,0.0,0.0,0.0,0.0,0.0,0.0,0.0,0.0,0.0,0.0,0.0,0.0,0.0,0.0,0.0,0.0,0.0,0.0,0.0,0.0,0.0,0.0,0.0,0.0,0.0,0.0,0.0,0.0,0.0,0.0,0.0,0.0,0.0,0.0,0.0,0.0,0.0,0.0,0.0,0.0,0.0,0.0,0.0,0.0,0.0,0.0,0.0,0.0,0.0,0.0,0.0,0.0,0.0,0.0,0.0,0.0,0.0,0.0,0.0,0.0,0.0,0.0,0.0,0.0,0.0,0.0,0.0,0.0,0.0,0.0,0.0,0.0,0.0,0.0,0.0,0.0,0.0,0.0,0.0,0.0,0.0,0.0,0.0,0.0,0.0,0.0,0.0,0.0,0.0,0.0,0.0,0.0,0.0,0.0,0.0,0.0,0.0,0.0,0.0,0.0,0.0,0.0,0.0,0.0,0.0,0.0,0.0,0.0,0.0,0.0,0.0,0.0,0.0,0.0,0.0,0.0,0.0,0.0,0.0,0.0,0.0,0.0,0.0,0.0,0.0,0.0,0.0,0.0,0.0,0.0,0.0,0.0,0.0,0.0,0.0,0.0,0.0,0.0,0.0,0.0,0.0,0.0,0.0,0.0,0.0,0.0,0.0,0.0,0.0,0.0,0.0,0.0,0.0,0.0,0.0,0.0,0.0,0.0,0.0,0.0,0.0,0.0,0.0,0.0,0.0,0.0,0.0,0.0,0.0,0.0,0.0,0.0,0.0,0.0,0.0,0.0,0.0,0.0,0.0,0.0,0.0,0.0,0.0,0.0,0.0,0.0,0.0,0.0,0.0,0.0,0.0,0.0,0.0,0.0,0.0,0.0,0.0,0.0,0.0,0.0,0.0,0.0,0.0,0.0,0.0,0.0,0.0,0.0,0.0,0.0,0.0,0.0,0.0,0.0,0.0,0.0,0.0,0.0,0.0,0.0,0.0,0.0,0.0,0.0,0.0,0.0,0.0,0.0,0.0,0.0,0.0,0.0,0.0,0.0,0.0,0.0,0.0,0.0,0.0,0.0,0.0,0.0,0.0,0.0,0.0,0.0,0.0,0.0,0.0,0.0,0.0,0.0,0.0,0.0,0.0,0.0,0.0,0.0,0.0,0.0,0.0,0.0,0.0,0.0,0.0,0.0,0.0,0.0,0.0,0.0,0.0,0.0,0.0,0.0,0.0,0.0,0.0,0.0,0.0,0.0,0.0,0.0,0.0,0.0,0.0,0.0,0.0,0.0,0.0,0.0,0.0,0.0,0.0,0.0,0.0,0.0,0.0,0.0,0.0,0.0,0.0,0.0,0.0,0.0,0.0,0.0,0.0,0.0,0.0,0.0,0.0,0.0,0.0,0.0,0.0,0.0,0.0,0.0,0.0,0.0,0.0,0.0,0.0,0.0,0.0,0.0,0.0,0.0,0.0,0.0,0.0,0.0,0.0,0.0,0.0,0.0,0.0,0.0,0.0,0.0,0.0,0.0,0.0,0.0,0.0,0.0,0.0,0.0,0.0,0.0,0.0,0.0,0.0,0.0,0.0,0.0,0.0,0.0,0.0,0.0,0.0,0.0,0.0,0.0,0.0,0.0,0.0,0.0,0.0,0.0,0.0,0.0,0.0,0.0,0.0,0.0,0.0,0.0,0.0,0.0,0.0,0.0,0.0,0.0,0.0,0.0,0.0,0.0,0.0,0.0,0.0,0.0,0.0,0.0,0.0,0.0,0.0,0.0,0.0,0.0,0.0,0.0,0.0,0.0,0.0,0.0,0.0,0.0,0.0,0.0,0.0,0.0,0.0,0.0,0.0,0.0,0.0,0.0,0.0,0.0,0.0,0.0,0.0,0.0,0.0,0.0,0.0,0.0,0.0,0.0,0.0,0.0,0.0,0.0,0.0,0.0,0.0,0.0,0.0,0.0,0.0,0.0,0.0,0.0,0.0,0.0,0.0,0.0,0.0,0.0,0.0,0.0,0.0,0.0,0.0,0.0,0.0,0.0,0.0,0.0,0.0,0.0,0.0,0.0,0.0,0.0,0.0,0.0,0.0,0.0,0.0,0.0,0.0,0.0,0.0,0.0,0.0,0.0,0.0,0.0,0.0,0.0,0.0,0.0,0.0,0.0,0.0,0.0,0.0,0.0,0.0,0.0,0.0,0.0,0.0,0.0,0.0,0.0,0.0,0.0,0.0,0.0,0.0,0.0,0.0,0.0,0.0,0.0,0.0,0.0,0.0,0.0,0.0,0.0,0.0,0.0,0.0,0.0,0.0,0.0,0.0,0.0,0.0,0.0,0.0,0.0,0.0,0.0,0.0,0.0,0.0,0.0,0.0,0.0,0.0,0.0,0.0,0.0,0.0,0.0,0.0,0.0,0.0,0.0,0.0,0.0,0.0,0.0,0.0,0.0,0.0,0.0,0.0,0.0,0.0,0.0,0.0,0.0,0.0,0.0,0.0,0.0,0.0,0.0,0.0,0.0,0.0,0.0,0.0,0.0,0.0,0.0,0.0,0.0,0.0,0.0,0.0,0.0,0.0,0.0,0.0,0.0,0.0,0.0,0.0,0.0,0.0,0.0,0.0,0.0,0.0,0.0,0.0,0.0,0.0,0.0,0.0,0.0,0.0,0.0,0.0,0.0,0.0,0.0,0.0,0.0,0.0,0.0,0.0,0.0,0.0,0.0,0.0,0.0,0.0,0.0,0.0,0.0,0.0,0.0,0.0,0.0,0.0,0.0,0.0,0.0,0.0,0.0,0.0,0.0,0.0,0.0,0.0,0.0,0.0,0.0,0.0,0.0,0.0,0.0,0.0,0.0,0.0,0.0,0.0,0.0,0.0,0.0,0.0,0.0,0.0,0.0,0.0,0.0,0.0,0.0,0.0,0.0,0.0,0.0,0.0,0.0,0.0,0.0,0.0,0.0,0.0,0.0,0.0,0.0,0.0,0.0,0.0,0.0,0.0,0.0,0.0,0.0,0.0,0.0,0.0,0.0,0.0,0.0,0.0,0.0,0.0,0.0,0.0,0.0,0.0,0.0,0.0,0.0,0.0,0.0,0.0,0.0,0.0,0.0,0.0,-2.1332,0.0,0.0,0.0,0.0,0.0,0.0,0.0,0.0,0.0,0.0,0.0,0.0,0.0,0.0,0.0,0.0,0.0,0.0,0.0,0.0,0.0,0.0,0.0,0.0,0.0,0.0,0.0,0.0,0.0,0.0,0.0,0.0,0.0,0.0,0.0,0.0,0.0,0.0,0.0,0.0,0.0,0.0,0.0,0.0,0.0,0.0,0.0,0.0,0.0,0.0,0.0,0.0,0.0,0.0,0.0,0.0,0.0,0.0,0.0,0.0,0.0,0.0,0.0,0.0,0.0,0.0,0.0,0.0,0.0,0.0,0.0,0.0,0.0,0.0,0.0,0.0,0.0,0.0,0.0,0.0,0.0,0.0,0.0,0.0,0.0,0.0,0.0,0.0,0.0,0.0,0.0,0.0,0.0,0.0,0.0,0.0,0.0,0.0,0.0,0.0,0.0,0.0,0.0,0.0,0.0,0.0,0.0,0.0,0.0,0.0,-2.2908,-2.327,-2.2129,-2.1495,-2.1477,0.0,0.0,0.0,0.0,0.0,0.0,0.0,0.0,0.0,0.0,0.0,0.0,0.0,0.0,0.0,0.0,0.0,0.0,0.0,0.0,0.0,0.0,0.0,0.0,0.0,0.0,0.0,0.0,0.0,0.0,0.0,0.0,0.0,0.0,0.0,0.0,0.0,0.0,0.0,0.0,0.0,0.0,0.0,0.0,0.0,0.0,0.0,0.0,0.0,0.0,0.0,0.0,0.0,0.0,0.0,0.0,0.0,0.0,0.0,0.0,0.0,0.0,0.0,0.0,0.0,0.0,0.0,0.0,0.0,0.0,0.0,0.0,0.0,0.0,0.0,0.0,0.0,0.0,0.0,0.0,0.0,0.0,0.0,0.0,0.0,0.0,0.0,0.0,0.0,0.0,0.0,0.0,0.0,0.0,0.0,0.0,0.0,0.0,0.0,0.0,0.0,0.0,0.0,0.0,0.0,0.0,0.0,0.0,0.0,0.0,0.0,0.0,-2.2926,-2.2312,-2.237,0.0,0.0,0.0,0.0,0.0,0.0,0.0,0.0,0.0,0.0,0.0,0.0,0.0,0.0,0.0,0.0,0.0,0.0,0.0,0.0,0.0,0.0,0.0,0.0,0.0,0.0,0.0,0.0,0.0,0.0,0.0,0.0,0.0,0.0,0.0,0.0,0.0,0.0,0.0,0.0,0.0,0.0,0.0,0.0,0.0,0.0,0.0,0.0,0.0,0.0,0.0,0.0,0.0,0.0,0.0,0.0,0.0,0.0,0.0,0.0,0.0,0.0,0.0,0.0,0.0,0.0,0.0,0.0,0.0,0.0,0.0,0.0,0.0,0.0,0.0,0.0,0.0,0.0,0.0,0.0,0.0,0.0,0.0,0.0,0.0,0.0,0.0,0.0,0.0,0.0,0.0,0.0,0.0,0.0,0.0,0.0,0.0,0.0,0.0,0.0,0.0,0.0,0.0,0.0,0.0,0.0,0.0,0.0,0.0,0.0,-2.2654,-2.4809,-2.4737,0.0,-2.4992,0.0,0.0,0.0,0.0,0.0,0.0,0.0,0.0,0.0,0.0,0.0,0.0,0.0,0.0,0.0,0.0,0.0,0.0,0.0,0.0,0.0,0.0,0.0,0.0,0.0,0.0,0.0,0.0,0.0,0.0,0.0,0.0,0.0,0.0,0.0,0.0,0.0,0.0,0.0,0.0,0.0,0.0,0.0,0.0,0.0,0.0,0.0,0.0,0.0,0.0,0.0,0.0,0.0,0.0,0.0,0.0,0.0,0.0,0.0,0.0,0.0,0.0,0.0,0.0,0.0,0.0,0.0,0.0,0.0,0.0,0.0,0.0,0.0,0.0,0.0,0.0,0.0,0.0,0.0,0.0,0.0,0.0,0.0,0.0,0.0,0.0,0.0,0.0,0.0,0.0,0.0,0.0,0.0,0.0,0.0,0.0,0.0,0.0,0.0,0.0,0.0,0.0,0.0,0.0,0.0,0.0,0.0,0.0,0.0,0.0,0.0,-2.4972,-2.4638,-2.429,0.0,0.0,0.0,0.0,0.0,0.0,0.0,0.0,0.0,0.0,0.0,0.0,0.0,0.0,0.0,0.0,0.0,0.0,0.0,0.0,0.0,0.0,0.0,0.0,0.0,0.0,0.0,0.0,0.0,0.0,0.0,0.0,0.0,0.0,0.0,0.0,0.0,0.0,0.0,0.0,0.0,0.0,0.0,0.0,0.0,0.0,0.0,0.0,0.0,0.0,0.0,0.0,0.0,0.0,0.0,0.0,0.0,0.0,0.0,0.0,0.0,0.0,0.0,0.0,0.0,0.0,0.0,0.0,0.0,0.0,0.0,0.0,0.0,0.0,0.0,0.0,0.0,0.0,0.0,0.0,0.0,0.0,0.0,0.0,0.0,0.0,0.0,0.0,0.0,0.0,0.0,0.0,0.0,0.0,0.0,0.0,0.0,0.0,0.0,0.0,0.0,0.0,0.0,0.0,0.0,0.0,0.0,0.0,0.0,0.0,-2.32,0.0,-2.5552,-2.4853,-2.4116,-2.3418,0.0,0.0,0.0,0.0,0.0,0.0,0.0,0.0,0.0,0.0,0.0,0.0,0.0,0.0,0.0,0.0,0.0,0.0,0.0,0.0,0.0,0.0,0.0,0.0,0.0,0.0,0.0,0.0,0.0,0.0,0.0,0.0,0.0,0.0,0.0,0.0,0.0,0.0,0.0,0.0,0.0,0.0,0.0,0.0,0.0,0.0,0.0,0.0,0.0,0.0,0.0,0.0,0.0,0.0,0.0,0.0,0.0,0.0,0.0,0.0,0.0,0.0,0.0,0.0,0.0,0.0,0.0,0.0,0.0,0.0,0.0,0.0,0.0,0.0,0.0,0.0,0.0,0.0,0.0,0.0,0.0,0.0,0.0,0.0,0.0,0.0,0.0,0.0,0.0,0.0,0.0,0.0,0.0,0.0,0.0,0.0,0.0,0.0,0.0,0.0,0.0,0.0,0.0,0.0,0.0,0.0,0.0,0.0,0.0,-2.4668,-2.5105,-2.7158,-2.614,-2.5097,0.0,0.0,0.0,0.0,0.0,0.0,0.0,0.0,0.0,0.0,0.0,0.0,0.0,0.0,0.0,0.0,0.0,0.0,0.0,0.0,0.0,0.0,0.0,0.0,0.0,0.0,0.0,0.0,0.0,0.0,0.0,0.0,0.0,0.0,0.0,0.0,0.0,0.0,0.0,0.0,0.0,0.0,0.0,0.0,0.0,0.0,0.0,0.0,0.0,0.0,0.0,0.0,0.0,0.0,0.0,0.0,0.0,0.0,0.0,0.0,0.0,0.0,0.0,0.0,0.0,0.0,0.0,0.0,0.0,0.0,0.0,0.0,0.0,0.0,0.0,0.0,0.0,0.0,0.0,0.0,0.0,0.0,0.0,0.0,0.0,0.0,0.0,0.0,0.0,0.0,0.0,0.0,0.0,0.0,0.0,0.0,0.0,0.0,0.0,0.0,0.0,0.0,0.0,0.0,0.0,0.0,0.0,0.0,0.0,-2.1838,-2.2777,-2.462,0.0,-2.5104,-2.3934,0.0,0.0,0.0,0.0,0.0,0.0,0.0,0.0,0.0,0.0,0.0,0.0,0.0,0.0,0.0,0.0,0.0,0.0,0.0,0.0,0.0,0.0,0.0,0.0,0.0,0.0,0.0,0.0,0.0,0.0,0.0,0.0,0.0,0.0,0.0,0.0,0.0,0.0,0.0,0.0,0.0,0.0,0.0,0.0,0.0,0.0,0.0,0.0,0.0,0.0,0.0,0.0,0.0,0.0,0.0,0.0,0.0,0.0,0.0,0.0,0.0,0.0,0.0,0.0,0.0,0.0,0.0,0.0,0.0,0.0,0.0,0.0,0.0,0.0,0.0,0.0,0.0,0.0,0.0,0.0,0.0,0.0,0.0,0.0,0.0,0.0,0.0,0.0,0.0,0.0,0.0,0.0,0.0,0.0,0.0,0.0,0.0,0.0,0.0,0.0,0.0,0.0,0.0,0.0,0.0,0.0,0.0,0.0,0.0,-2.15,0.0,-2.5129,0.0,-2.4498,-2.3088,0.0,0.0,0.0,0.0,0.0,0.0,0.0,0.0,0.0,0.0,0.0,0.0,0.0,0.0,0.0,0.0,0.0,0.0,0.0,0.0,0.0,0.0,0.0,0.0,0.0,0.0,0.0,0.0,0.0,0.0,0.0,0.0,0.0,0.0,0.0,0.0,0.0,0.0,0.0,0.0,0.0,0.0,0.0,0.0,0.0,0.0,0.0,0.0,0.0,0.0,0.0,0.0,0.0,0.0,0.0,0.0,0.0,0.0,0.0,0.0,0.0,0.0,0.0,0.0,0.0,0.0,0.0,0.0,0.0,0.0,0.0,0.0,0.0,0.0,0.0,0.0,0.0,0.0,0.0,0.0,0.0,0.0,0.0,0.0,0.0,0.0,0.0,0.0,0.0,0.0,0.0,0.0,0.0,0.0,0.0,0.0,0.0,0.0,0.0,0.0,0.0,0.0,0.0,0.0,0.0,0.0,0.0,0.0,-2.1704,-2.5439,-2.6686,-2.6645,-2.523,-2.4593,-2.2737,0.0,0.0,0.0,0.0,0.0,0.0,0.0,0.0,0.0,0.0,0.0,0.0,0.0,0.0,0.0,0.0,0.0,0.0,0.0,0.0,0.0,0.0,0.0,0.0,0.0,0.0,0.0,0.0,0.0,0.0,0.0,0.0,0.0,0.0,0.0,0.0,0.0,0.0,0.0,0.0,0.0,0.0,0.0,0.0,0.0,0.0,0.0,0.0,0.0,0.0,0.0,0.0,0.0,0.0,0.0,0.0,0.0,0.0,0.0,0.0,0.0,0.0,0.0,0.0,0.0,0.0,0.0,0.0,0.0,0.0,0.0,0.0,0.0,0.0,0.0,0.0,0.0,0.0,0.0,0.0,0.0,0.0,0.0,0.0,0.0,0.0,0.0,0.0,0.0,0.0,0.0,0.0,0.0,0.0,0.0,0.0,0.0,0.0,0.0,0.0,0.0,0.0,0.0,0.0,0.0,0.0,0.0,0.0,0.0,-2.4063,-2.5445,-2.6741,-2.777,-2.4979,-2.4007,0.0,0.0,0.0,0.0,0.0,0.0,0.0,0.0,0.0,0.0,0.0,0.0,0.0,0.0,0.0,0.0,0.0,0.0,0.0,0.0,0.0,0.0,0.0,0.0,0.0,0.0,0.0,0.0,0.0,0.0,0.0,0.0,0.0,0.0,0.0,0.0,0.0,0.0,0.0,0.0,0.0,0.0,0.0,0.0,0.0,0.0,0.0,0.0,0.0,0.0,0.0,0.0,0.0,0.0,0.0,0.0,0.0,0.0,0.0,0.0,0.0,0.0,0.0,0.0,0.0,0.0,0.0,0.0,0.0,0.0,0.0,0.0,0.0,0.0,0.0,0.0,0.0,0.0,0.0,0.0,0.0,0.0,0.0,0.0,0.0,0.0,0.0,0.0,0.0,0.0,0.0,0.0,0.0,0.0,0.0,0.0,0.0,0.0,0.0,0.0,0.0,0.0,0.0,0.0,0.0,0.0,0.0,0.0,0.0,-2.6599,-2.7651,-2.8547,-2.9191,-2.6407,-2.5301,-2.6079,0.0,0.0,0.0,0.0,0.0,0.0,0.0,0.0,0.0,0.0,0.0,0.0,0.0,0.0,0.0,0.0,0.0,0.0,0.0,0.0,0.0,0.0,0.0,0.0,0.0,0.0,0.0,0.0,0.0,0.0,0.0,0.0,0.0,0.0,0.0,0.0,0.0,0.0,0.0,0.0,0.0,0.0,0.0,0.0,0.0,0.0,0.0,0.0,0.0,0.0,0.0,0.0,0.0,0.0,0.0,0.0,0.0,0.0,0.0,0.0,0.0,0.0,0.0,0.0,0.0,0.0,0.0,0.0,0.0,0.0,0.0,0.0,0.0,0.0,0.0,0.0,0.0,0.0,0.0,0.0,0.0,0.0,0.0,0.0,0.0,0.0,0.0,0.0,0.0,0.0,0.0,0.0,0.0,0.0,0.0,0.0,0.0,0.0,0.0,0.0,0.0,0.0,0.0,0.0,0.0,0.0,0.0,0.0,-3.2015,-3.273,-3.2027,-2.9755,-2.8699,-2.6673,0.0,0.0,0.0,0.0,0.0,0.0,0.0,0.0,0.0,0.0,0.0,0.0,0.0,0.0,0.0,0.0,0.0,0.0,0.0,0.0,0.0,0.0,0.0,0.0,0.0,0.0,0.0,0.0,0.0,0.0,0.0,0.0,0.0,0.0,0.0,0.0,0.0,0.0,0.0,0.0,0.0,0.0,0.0,0.0,0.0,0.0,0.0,0.0,0.0,0.0,0.0,0.0,0.0,0.0,0.0,0.0,0.0,0.0,0.0,0.0,0.0,0.0,0.0,0.0,0.0,0.0,0.0,0.0,0.0,0.0,0.0,0.0,0.0,0.0,0.0,0.0,0.0,0.0,0.0,0.0,0.0,0.0,0.0,0.0,0.0,0.0,0.0,0.0,0.0,0.0,0.0,0.0,0.0,0.0,0.0,0.0,0.0,0.0,0.0,0.0,0.0,0.0,0.0,0.0,0.0,0.0,0.0,0.0,0.0,-3.3765,-3.6777,-3.7209,-3.4754,-3.108,-2.8983,0.0,0.0,0.0,0.0,0.0,0.0,0.0,0.0,0.0,0.0,0.0,0.0,0.0,0.0,0.0,0.0,0.0,0.0,0.0,0.0,0.0,0.0,0.0,0.0,0.0,0.0,0.0,0.0,0.0,0.0,0.0,0.0,0.0,0.0,0.0,0.0,0.0,0.0,0.0,0.0,0.0,0.0,0.0,0.0,0.0,0.0,0.0,0.0,0.0,0.0,0.0,0.0,0.0,0.0,0.0,0.0,0.0,0.0,0.0,0.0,0.0,0.0,0.0,0.0,0.0,0.0,0.0,0.0,0.0,0.0,0.0,0.0,0.0,0.0,0.0,0.0,0.0,0.0,0.0,0.0,0.0,0.0,0.0,0.0,0.0,0.0,0.0,0.0,0.0,0.0,0.0,0.0,0.0,0.0,0.0,0.0,0.0,0.0,0.0,0.0,0.0,0.0,0.0,0.0,0.0,0.0,0.0,0.0,-3.3679,-3.5829,-3.9154,-4.0291,-3.8964,-3.508,-3.2113,0.0,0.0,0.0,0.0,0.0,0.0,0.0,0.0,0.0,0.0,0.0,0.0,0.0,0.0,0.0,0.0,0.0,0.0,0.0,0.0,0.0,0.0,0.0,0.0,0.0,0.0,0.0,0.0,0.0,0.0,0.0,0.0,0.0,0.0,0.0,0.0,0.0,0.0,0.0,0.0,0.0,0.0,0.0,0.0,0.0,0.0,0.0,0.0,0.0,0.0,0.0,0.0,0.0,0.0,0.0,0.0,0.0,0.0,0.0,0.0,0.0,0.0,0.0,0.0,0.0,0.0,0.0,0.0,0.0,0.0,0.0,0.0,0.0,0.0,0.0,0.0,0.0,0.0,0.0,0.0,0.0,0.0,0.0,0.0,0.0,0.0,0.0,0.0,0.0,0.0,0.0,0.0,0.0,0.0,0.0,0.0,0.0,0.0,0.0,0.0,0.0,0.0,0.0,0.0,0.0,0.0,0.0,0.0,-3.5158,-3.8007,-4.0561,-4.1978,-4.207,-3.9238,-3.5254,0.0,0.0,0.0,0.0,0.0,0.0,0.0,0.0,0.0,0.0,0.0,0.0,0.0,0.0,0.0,0.0,0.0,0.0,0.0,0.0,0.0,0.0,0.0,0.0,0.0,0.0,0.0,0.0,0.0,0.0,0.0,0.0,0.0,0.0,0.0,0.0,0.0,0.0,0.0,0.0,0.0,0.0,0.0,0.0,0.0,0.0,0.0,0.0,0.0,0.0,0.0,0.0,0.0,0.0,0.0,0.0,0.0,0.0,0.0,0.0,0.0,0.0,0.0,0.0,0.0,0.0,0.0,0.0,0.0,0.0,0.0,0.0,0.0,0.0,0.0,0.0,0.0,0.0,0.0,0.0,0.0,0.0,0.0,0.0,0.0,0.0,0.0,0.0,0.0,0.0,0.0,0.0,0.0,0.0,0.0,0.0,0.0,0.0,0.0,0.0,0.0,0.0,0.0,0.0,0.0,0.0,0.0,0.0,-3.7057,-3.9156,-4.221,-4.3649,-4.3264,-3.8705,-3.4894,0.0,0.0,0.0,0.0,0.0,0.0,0.0,0.0,0.0,0.0,0.0,0.0,0.0,0.0,0.0,0.0,0.0,0.0,0.0,0.0,0.0,0.0,0.0,0.0,0.0,0.0,0.0,0.0,0.0,0.0,0.0,0.0,0.0,0.0,0.0,0.0,0.0,0.0,0.0,0.0,0.0,0.0,0.0,0.0,0.0,0.0,0.0,0.0,-2.5054,0.0,0.0,0.0,0.0,0.0,0.0,0.0,0.0,0.0,0.0,0.0,0.0,0.0,0.0,0.0,0.0,0.0,0.0,0.0,0.0,0.0,0.0,0.0,0.0,0.0,0.0,0.0,0.0,0.0,0.0,0.0,0.0,0.0,0.0,0.0,0.0,0.0,0.0,0.0,0.0,0.0,0.0,0.0,0.0,0.0,0.0,0.0,0.0,0.0,0.0,0.0,0.0,0.0,0.0,0.0,0.0,0.0,0.0,0.0,-3.8257,-4.0836,-4.3299,-4.4505,-4.4219,-4.0511,-3.6767,0.0,0.0,0.0,0.0,0.0,0.0,0.0,0.0,0.0,0.0,0.0,0.0,0.0,0.0,0.0,0.0,0.0,0.0,0.0,0.0,0.0,0.0,0.0,0.0,0.0,0.0,0.0,0.0,0.0,0.0,0.0,0.0,0.0,0.0,0.0,0.0,0.0,0.0,0.0,0.0,0.0,0.0,0.0,0.0,0.0,0.0,0.0,0.0,0.0,0.0,0.0,0.0,0.0,0.0,0.0,0.0,0.0,0.0,0.0,0.0,0.0,0.0,0.0,0.0,0.0,0.0,0.0,0.0,0.0,0.0,0.0,0.0,0.0,0.0,0.0,0.0,0.0,0.0,0.0,0.0,0.0,0.0,0.0,0.0,0.0,0.0,0.0,0.0,0.0,0.0,0.0,0.0,0.0,0.0,0.0,0.0,0.0,0.0,0.0,0.0,0.0,0.0,0.0,0.0,0.0,0.0,0.0,-3.5913,-3.9022,-4.2524,-4.4096,-4.5001,-4.5222,-4.2928,-3.9278,-3.4292,0.0,0.0,0.0,0.0,0.0,0.0,0.0,0.0,0.0,0.0,0.0,0.0,0.0,0.0,0.0,0.0,0.0,0.0,0.0,0.0,0.0,0.0,0.0,0.0,0.0,0.0,0.0,0.0,0.0,0.0,0.0,0.0,0.0,0.0,0.0,0.0,0.0,0.0,-2.3891,-2.5153,0.0,0.0,0.0,0.0,0.0,0.0,0.0,0.0,-2.5548,0.0,0.0,0.0,0.0,0.0,0.0,0.0,0.0,0.0,0.0,0.0,0.0,0.0,0.0,0.0,0.0,0.0,0.0,0.0,0.0,0.0,0.0,0.0,0.0,0.0,0.0,0.0,0.0,0.0,0.0,0.0,0.0,0.0,0.0,0.0,0.0,0.0,0.0,0.0,0.0,0.0,0.0,0.0,0.0,0.0,0.0,0.0,0.0,0.0,0.0,0.0,0.0,0.0,0.0,0.0,0.0,-3.5605,-3.6748,-3.938,-4.3611,-4.4649,-4.5263,-4.549,-4.3763,-4.0441,-3.5489,0.0,0.0,0.0,0.0,0.0,0.0,0.0,0.0,0.0,0.0,0.0,0.0,0.0,0.0,0.0,0.0,0.0,0.0,0.0,0.0,0.0,0.0,0.0,0.0,0.0,0.0,0.0,0.0,0.0,0.0,0.0,0.0,0.0,0.0,0.0,0.0,0.0,0.0,0.0,-2.8001,-2.8642,0.0,0.0,0.0,0.0,0.0,0.0,0.0,0.0,-2.5862,0.0,0.0,0.0,0.0,0.0,0.0,0.0,0.0,0.0,0.0,0.0,0.0,0.0,0.0,0.0,0.0,0.0,0.0,0.0,0.0,0.0,0.0,0.0,0.0,0.0,0.0,0.0,0.0,0.0,0.0,0.0,0.0,0.0,0.0,0.0,0.0,0.0,0.0,0.0,0.0,0.0,0.0,0.0,0.0,0.0,0.0,0.0,0.0,0.0,0.0,0.0,0.0,0.0,0.0,0.0,-3.5665,-3.8249,-4.1207,-4.469,-4.5208,-4.5476,-4.5528,-4.2701,-3.9373,0.0,0.0,0.0,0.0,0.0,0.0,0.0,0.0,0.0,0.0,0.0,0.0,0.0,0.0,0.0,0.0,0.0,0.0,0.0,0.0,0.0,0.0,0.0,0.0,0.0,0.0,0.0,0.0,0.0,0.0,0.0,0.0,0.0,0.0,0.0,0.0,0.0,0.0,0.0,0.0,-2.9379,-3.0043,-3.0291,0.0,0.0,0.0,0.0,0.0,0.0,-2.742,-2.6906,0.0,0.0,0.0,0.0,0.0,0.0,0.0,0.0,0.0,0.0,0.0,0.0,0.0,0.0,0.0,0.0,0.0,0.0,0.0,0.0,0.0,0.0,0.0,0.0,0.0,0.0,0.0,0.0,0.0,0.0,0.0,0.0,0.0,0.0,0.0,0.0,0.0,0.0,0.0,0.0,0.0,0.0,0.0,0.0,0.0,0.0,0.0,0.0,0.0,0.0,0.0,0.0,0.0,0.0,0.0,-3.5419,-3.918,-4.2542,-4.5432,-4.5586,-4.5586,-4.5528,-4.1835,-3.845,0.0,0.0,0.0,0.0,0.0,0.0,0.0,0.0,0.0,0.0,0.0,0.0,0.0,0.0,0.0,0.0,0.0,0.0,0.0,0.0,0.0,0.0,0.0,0.0,0.0,0.0,0.0,0.0,0.0,0.0,0.0,0.0,0.0,0.0,0.0,0.0,0.0,0.0,0.0,0.0,0.0,-3.1634,-3.1715,-3.114,0.0,0.0,0.0,0.0,-2.9861,-2.9567,0.0,0.0,0.0,0.0,0.0,0.0,0.0,0.0,0.0,0.0,0.0,0.0,0.0,0.0,0.0,0.0,0.0,0.0,0.0,0.0,0.0,0.0,0.0,0.0,0.0,0.0,0.0,0.0,0.0,0.0,0.0,0.0,0.0,0.0,0.0,0.0,0.0,0.0,0.0,0.0,0.0,0.0,0.0,0.0,0.0,0.0,0.0,0.0,0.0,0.0,0.0,0.0,0.0,0.0,0.0,0.0,-3.5354,-3.8171,-4.1543,-4.5355,-4.5586,-4.5586,-4.5547,-4.2951,-3.9623,0.0,0.0,0.0,0.0,0.0,0.0,0.0,0.0,0.0,0.0,0.0,0.0,0.0,0.0,0.0,0.0,0.0,0.0,0.0,0.0,0.0,0.0,0.0,0.0,0.0,0.0,0.0,0.0,0.0,0.0,0.0,0.0,0.0,0.0,0.0,0.0,0.0,0.0,0.0,0.0,0.0,-3.4418,-3.2803,-3.2419,-3.2265,0.0,0.0,-3.2339,-3.3128,-3.377,0.0,0.0,0.0,0.0,0.0,0.0,0.0,0.0,0.0,0.0,0.0,0.0,0.0,0.0,0.0,0.0,0.0,0.0,0.0,0.0,0.0,0.0,0.0,0.0,0.0,0.0,0.0,0.0,0.0,0.0,0.0,0.0,0.0,0.0,0.0,0.0,0.0,0.0,0.0,0.0,0.0,0.0,0.0,0.0,0.0,0.0,0.0,0.0,0.0,0.0,0.0,0.0,0.0,0.0,0.0,-3.1056,-3.5464,-3.9422,-4.2794,-4.547,-4.5586,-4.5353,-4.4872,-4.147,-3.8123,0.0,0.0,0.0,0.0,0.0,0.0,0.0,0.0,0.0,0.0,0.0,0.0,0.0,0.0,0.0,0.0,0.0,0.0,0.0,0.0,0.0,0.0,0.0,0.0,0.0,0.0,0.0,0.0,0.0,0.0,0.0,0.0,0.0,0.0,0.0,0.0,0.0,0.0,0.0,0.0,0.0,0.0,-3.5441,-3.5532,0.0,0.0,0.0,-3.5161,-3.5781,0.0,0.0,0.0,0.0,0.0,0.0,0.0,0.0,0.0,0.0,0.0,0.0,0.0,0.0,0.0,0.0,0.0,0.0,0.0,0.0,0.0,0.0,0.0,0.0,0.0,0.0,0.0,0.0,0.0,0.0,0.0,0.0,0.0,0.0,0.0,0.0,0.0,0.0,0.0,0.0,0.0,0.0,0.0,0.0,0.0,0.0,0.0,0.0,0.0,0.0,0.0,0.0,0.0,0.0,0.0,0.0,0.0,-3.5489,-4.0523,-4.3912,-4.5528,-4.5586,-4.5295,-4.4581,-4.0735,0.0,0.0,0.0,0.0,0.0,0.0,0.0,0.0,0.0,0.0,0.0,0.0,0.0,0.0,0.0,0.0,0.0,0.0,0.0,0.0,0.0,0.0,0.0,0.0,0.0,0.0,0.0,-1.6916,0.0,0.0,0.0,0.0,0.0,0.0,0.0,0.0,0.0,0.0,0.0,0.0,0.0,0.0,-3.6379,-3.7393,-3.8014,-3.8403,0.0,0.0,-3.7933,-3.8315,-3.7698,-3.6156,0.0,0.0,0.0,0.0,0.0,0.0,0.0,0.0,0.0,0.0,0.0,0.0,0.0,0.0,0.0,0.0,0.0,0.0,0.0,0.0,0.0,0.0,0.0,0.0,0.0,0.0,0.0,0.0,0.0,0.0,0.0,0.0,0.0,0.0,0.0,0.0,0.0,0.0,0.0,0.0,0.0,0.0,0.0,0.0,0.0,0.0,0.0,0.0,0.0,0.0,0.0,0.0,0.0,0.0,0.0,-3.5528,-4.0523,-4.3912,-4.5509,-4.5586,-4.5566,-4.5451,-4.2143,-3.8777,0.0,0.0,0.0,0.0,0.0,0.0,0.0,0.0,0.0,0.0,0.0,0.0,0.0,0.0,0.0,0.0,0.0,0.0,0.0,0.0,0.0,0.0,0.0,0.0,0.0,0.0,0.0,0.0,0.0,0.0,0.0,0.0,0.0,0.0,0.0,0.0,0.0,0.0,0.0,0.0,0.0,-3.7081,-3.7542,-3.8842,-4.0042,0.0,0.0,-4.0822,-4.0836,-4.1992,-4.0933,-3.4962,0.0,0.0,0.0,0.0,0.0,0.0,0.0,0.0,0.0,0.0,0.0,0.0,0.0,0.0,0.0,0.0,0.0,0.0,0.0,0.0,0.0,0.0,0.0,0.0,0.0,0.0,0.0,0.0,0.0,0.0,0.0,0.0,0.0,0.0,0.0,0.0,0.0,0.0,0.0,0.0,0.0,0.0,0.0,0.0,0.0,0.0,0.0,0.0,0.0,0.0,0.0,0.0,0.0,-3.2627,-3.5501,-4.0508,-4.3912,-4.5509,-4.5586,-4.5336,-4.4818,-4.2527,-3.9454,0.0,0.0,0.0,0.0,0.0,0.0,0.0,0.0,0.0,0.0,0.0,0.0,0.0,0.0,0.0,0.0,0.0,0.0,0.0,0.0,0.0,0.0,0.0,0.0,0.0,0.0,0.0,0.0,-2.1001,-2.1732,-2.3178,0.0,0.0,0.0,0.0,0.0,0.0,0.0,0.0,0.0,0.0,-3.8767,-4.0289,-4.1138,0.0,0.0,-4.2308,-4.2218,-4.2522,-4.1431,-3.9606,-3.6822,-3.4723,0.0,0.0,0.0,0.0,0.0,0.0,0.0,0.0,0.0,0.0,0.0,0.0,0.0,0.0,0.0,0.0,0.0,0.0,0.0,0.0,0.0,0.0,0.0,0.0,0.0,0.0,0.0,0.0,0.0,0.0,0.0,0.0,0.0,0.0,0.0,0.0,0.0,0.0,0.0,0.0,0.0,0.0,0.0,0.0,0.0,0.0,0.0,0.0,0.0,0.0,0.0,0.0,-3.3089,-3.5848,-4.0658,-4.3912,-4.5547,-4.5586,-4.5316,-4.4664,-4.2819,-4.0031,0.0,0.0,0.0,0.0,0.0,0.0,0.0,0.0,0.0,0.0,0.0,0.0,0.0,0.0,0.0,0.0,0.0,0.0,0.0,0.0,0.0,0.0,0.0,0.0,0.0,0.0,0.0,0.0,-2.2816,-2.3418,-2.4738,0.0,0.0,0.0,0.0,0.0,0.0,0.0,0.0,0.0,0.0,-4.0059,-4.2007,-4.2765,-4.3225,-4.359,-4.3347,-4.3212,-4.359,-4.168,-3.979,-3.8711,0.0,0.0,0.0,0.0,0.0,0.0,0.0,0.0,0.0,0.0,0.0,0.0,0.0,0.0,0.0,0.0,0.0,0.0,0.0,0.0,0.0,0.0,0.0,0.0,0.0,0.0,0.0,0.0,0.0,0.0,-2.3007,0.0,0.0,0.0,0.0,0.0,0.0,0.0,0.0,0.0,0.0,0.0,0.0,0.0,0.0,0.0,0.0,0.0,0.0,0.0,0.0,0.0,0.0,-3.3359,-3.6646,-4.0943,-4.3912,-4.5528,-4.5586,-4.5566,-4.549,-4.3124,-4.0604,-3.795,0.0,0.0,0.0,0.0,0.0,0.0,0.0,0.0,0.0,0.0,0.0,0.0,0.0,0.0,0.0,0.0,0.0,0.0,0.0,0.0,0.0,0.0,0.0,0.0,0.0,0.0,-2.3676,-2.4344,-2.4728,0.0,0.0,0.0,0.0,0.0,0.0,0.0,0.0,0.0,0.0,-3.86,-4.0714,-4.2117,-4.3245,-4.3974,-4.3992,-4.397,-4.3996,-4.3998,-4.3605,-4.268,0.0,0.0,0.0,0.0,0.0,0.0,0.0,0.0,0.0,0.0,0.0,0.0,0.0,0.0,0.0,0.0,0.0,0.0,0.0,0.0,0.0,0.0,0.0,0.0,0.0,0.0,0.0,-2.8016,-2.6487,0.0,0.0,0.0,0.0,0.0,0.0,0.0,0.0,0.0,0.0,0.0,-3.5639,-3.618,0.0,0.0,0.0,0.0,0.0,0.0,0.0,0.0,0.0,0.0,0.0,0.0,-3.4456,-3.6806,-4.1463,-4.4451,-4.5547,-4.5586,-4.5586,-4.5586,-4.4201,-4.147,-3.7257,0.0,0.0,0.0,0.0,0.0,0.0,0.0,0.0,0.0,0.0,0.0,0.0,0.0,0.0,0.0,0.0,0.0,0.0,0.0,0.0,0.0,0.0,0.0,0.0,0.0,-2.4302,0.0,0.0,0.0,0.0,0.0,0.0,0.0,0.0,0.0,0.0,0.0,-3.6029,-3.8617,-4.0486,-4.1963,-4.2947,-4.3876,-4.446,0.0,0.0,0.0,0.0,0.0,0.0,0.0,0.0,0.0,0.0,0.0,0.0,0.0,0.0,-3.9713,-3.5131,-3.3812,-3.3388,-3.3403,0.0,0.0,0.0,0.0,0.0,0.0,0.0,0.0,0.0,0.0,0.0,0.0,0.0,0.0,-3.2039,0.0,-3.0447,0.0,0.0,0.0,0.0,0.0,0.0,0.0,0.0,-3.7421,-3.8878,-3.911,-3.9631,-3.9405,0.0,-3.804,-3.5335,0.0,0.0,0.0,0.0,0.0,0.0,0.0,0.0,-3.5771,-3.8103,-4.2159,-4.4701,-4.5547,-4.5586,-4.5605,-4.5531,-4.4435,-4.169,-3.7271,-3.4131,-3.1328,0.0,0.0,0.0,0.0,0.0,0.0,0.0,0.0,0.0,0.0,0.0,0.0,0.0,0.0,0.0,0.0,0.0,0.0,0.0,0.0,0.0,0.0,0.0,-2.4961,0.0,0.0,0.0,0.0,0.0,0.0,0.0,0.0,0.0,-3.3921,-3.6177,-3.8664,-4.1014,-4.2128,-4.3094,-4.4176,0.0,0.0,0.0,0.0,0.0,0.0,0.0,-4.3002,-4.2968,-4.2718,-4.2358,-4.1838,-4.3311,-4.4428,-4.3971,0.0,0.0,-3.8793,-3.7219,-3.6644,-3.6671,-3.7026,-3.7405,-3.7681,-3.7871,-3.8254,0.0,0.0,0.0,0.0,0.0,0.0,0.0,0.0,-3.5277,-3.5329,0.0,-3.5057,0.0,0.0,0.0,0.0,0.0,-3.6157,0.0,0.0,-4.2792,-4.4051,-4.3312,-4.3312,-4.2907,-4.2193,-4.3574,-4.2152,-3.8012,-3.3229,0.0,0.0,0.0,0.0,0.0,0.0,-3.7238,-4.0446,-4.3028,-4.4739,-4.5547,-4.5586,-4.555,-4.5457,-4.3847,-4.1451,-3.8249,-3.714,-3.474,-3.0702,-2.8821,0.0,0.0,0.0,0.0,0.0,0.0,0.0,0.0,0.0,0.0,0.0,0.0,0.0,0.0,0.0,0.0,0.0,0.0,0.0,0.0,-2.4466,0.0,0.0,0.0,0.0,0.0,0.0,0.0,0.0,0.0,0.0,-3.73,-3.9013,-4.1118,-4.3296,0.0,0.0,0.0,0.0,-4.5551,-4.6279,-4.6408,-4.6426,-4.6387,-4.6098,-4.5865,-4.5828,0.0,0.0,-4.4253,-4.5105,-4.5587,-4.4327,-4.5142,-4.5681,-4.4782,-4.2669,-4.1222,-4.1185,-4.1167,-4.1497,-4.2213,-4.2705,-4.3461,-4.1583,0.0,0.0,0.0,0.0,-3.8774,-4.0548,-4.2942,-4.209,-4.1156,-4.0169,-3.9356,0.0,0.0,0.0,0.0,0.0,0.0,-3.9219,-4.1277,-4.3423,-4.4913,-4.5863,-4.648,-4.6328,-4.5486,-4.5315,-4.4314,-4.2447,-3.9831,-3.5982,-3.1095,0.0,0.0,0.0,0.0,-3.9273,-4.1424,-4.3929,-4.5336,-4.5586,-4.5547,-4.5494,-4.5438,-4.4365,-4.3099,-4.151,-3.9478,-3.7274,-3.4875,-3.1456,0.0,0.0,0.0,0.0,0.0,0.0,0.0,0.0,0.0,0.0,0.0,0.0,0.0,0.0,0.0,0.0,0.0,0.0,0.0,-2.5359,-2.557,-2.6521,0.0,0.0,0.0,0.0,0.0,0.0,0.0,0.0,0.0,-4.2539,-4.2621,-4.3284,0.0,0.0,-4.5458,-4.6178,-4.641,-4.6635,-4.6856,0.0,0.0,0.0,-4.6525,-4.6194,-4.5957,-4.6379,-4.682,-4.7003,-4.7334,-4.7499,-4.7077,-4.6856,-4.6691,-4.6434,-4.5424,-4.4562,-4.4525,-4.4525,-4.458,-4.4819,-4.5076,-4.5259,-4.7237,-4.2635,-4.183,-4.1936,-4.2643,-4.3133,-4.4698,-4.6822,-4.5969,-4.52,-4.4485,-4.3653,-4.1777,-3.9185,-3.8504,0.0,0.0,0.0,-4.2305,-4.4453,-4.5436,-4.6425,-4.7372,-4.7911,-4.7874,-4.7375,-4.6836,-4.6317,-4.5778,-4.447,-4.1258,-3.6353,0.0,0.0,-3.5988,-3.8815,-4.112,-4.2791,-4.4641,-4.5605,-4.5568,-4.5494,-4.5438,-4.5398,-4.49,-4.4231,-4.335,-4.1551,-3.9808,-3.812,-3.4381,-3.1373,0.0,0.0,0.0,0.0,0.0,0.0,0.0,0.0,0.0,0.0,0.0,-2.3429,0.0,0.0,0.0,0.0,-2.5381,-2.7085,-2.8307,-2.8858,0.0,0.0,0.0,0.0,0.0,0.0,0.0,-4.1553,-4.2667,-4.4004,-4.6086,-4.581,-4.5718,-4.6556,-4.623,-4.6341,-4.7515,0.0,-4.781,-4.8471,-4.8563,-4.8563,-4.8563,-4.8339,-4.8062,-4.7884,-4.8233,-4.8563,-4.8746,-4.8802,-4.8691,-4.8343,-4.7902,-4.759,-4.759,-4.7186,-4.6599,-4.6049,-4.6177,-4.6379,-4.6379,-4.6636,-4.6856,-5.2154,-5.1029,-4.7975,-4.6993,-4.7492,-4.7569,-4.8029,-4.8624,-4.7773,-4.785,-4.8527,-4.7618,-4.6341,-4.48,-4.3211,0.0,-4.4839,-4.5565,-4.6689,-4.8179,-4.8256,-4.8277,-4.8221,-4.8298,-4.8259,-4.8202,-4.8202,-4.8163,-4.8029,-4.7336,-4.5797,-4.3489,-4.1162,-4.02,-4.0623,-4.1527,-4.2797,-4.4393,-4.5182,-4.5568,-4.5495,-4.5438,-4.5416,-4.5394,-4.5258,-4.4819,-4.4036,-4.3157,-4.1973,-4.0385,-3.719,-3.4312,-3.1872,0.0,0.0,0.0,0.0,0.0,0.0,0.0,0.0,0.0,0.0,0.0,0.0,0.0,0.0,0.0,-2.9427,0.0,-3.2009,-3.3345,0.0,0.0,0.0,-3.6696,-3.8518,-4.0447,-4.2337,-4.406,0.0,0.0,-4.8269,0.0,-4.8224,-4.7497,-4.6764,-4.7132,-4.941,-4.9024,-4.9058,-5.0453,-5.0738,-5.078,-5.0567,-5.0582,-5.0545,-5.0508,-5.082,-5.0435,-4.9829,-4.9682,-4.9352,-4.8746,-4.8471,-4.8416,-4.8416,-4.8306,-4.7847,-4.6416,-4.6728,-4.7223,-4.7241,-4.7719,-4.8141,-5.3794,-5.294,-5.2089,-5.1064,-5.0078,-5.0751,-5.1119,-5.1196,-5.0384,-5.0113,-5.021,-4.869,-4.7789,-4.7394,-4.7008,-4.6976,-4.7328,-4.7521,-4.7775,-4.8162,-4.8817,-4.9105,-4.9125,-4.976,-4.974,-4.9106,-4.9106,-4.8759,-4.8125,-4.7913,-4.7528,-4.6913,-4.6297,-4.4509,-4.1662,-4.2951,-4.4239,-4.5278,-4.5435,-4.5495,-4.5419,-4.5419,-4.5378,-4.5316,-4.4666,-4.4227,-4.3997,-4.2584,-4.1609,-4.1151,-3.8014,-3.5662,-3.4413,-3.001,0.0,0.0,0.0,0.0,0.0,0.0,0.0,0.0,0.0,-2.8664,-2.4828,0.0,-3.0564,0.0,-3.1666,-3.3412,-3.4377,-3.4809,0.0,0.0,-3.9235,-4.0404,-4.3682,-4.395,-4.4807,-4.7003,-4.7518,-4.8359,-4.9988,-5.0186,-5.0153,-4.9958,-4.9738,-4.9965,-5.0768,-5.0522,-5.0343,-5.0747,-5.0875,-5.082,-5.0875,-5.082,-5.0857,-5.082,-5.082,-5.0729,-5.0545,-5.0527,-5.0435,-5.0215,-4.9682,-4.9334,-4.9279,-4.8765,-4.8251,-4.7829,-4.7902,-4.8031,-4.8031,-4.8196,-4.8324,-5.5105,-5.4663,-5.4624,-5.4027,-5.3102,-5.2865,-5.273,-5.2691,-5.2191,-5.1981,-5.1923,-5.0941,-5.0328,-4.9984,-4.9947,-4.9717,-4.9314,-4.9315,-4.9278,-4.9279,-4.974,-4.9971,-4.999,-5.0471,-5.0433,-4.999,-4.999,-4.9721,-4.926,-4.8875,-4.8682,-4.8663,-4.8298,-4.6932,-4.4739,-4.5182,-4.5491,-4.5568,-4.5495,-4.5458,-4.54,-4.536,-4.5166,-4.4744,-4.4628,-4.4227,-4.3482,-4.2565,-4.1743,-4.0941,-3.8456,-3.6661,-3.5831,-3.2384,-3.0213,0.0,0.0,0.0,0.0,0.0,0.0,0.0,0.0,0.0,0.0,0.0,-3.32,-3.3264,-3.5246,-3.708,-3.8423,-3.9124,-4.0486,-4.2965,-4.2953,-4.3726,-4.6177,-4.6379,-4.6967,-4.8661,-4.9173,-4.9863,-5.1142,-5.1348,-5.1477,-5.1811,-5.1867,-5.182,-5.1632,-5.1437,-5.1444,-5.1793,-5.188,-5.1862,-5.1867,-5.1885,-5.1867,-5.1885,-5.1885,-5.1756,-5.1426,-5.1334,-5.1242,-5.0857,-5.0435,-5.0141,-5.0105,-4.9774,-4.9334,-4.8967,-4.8875,-4.8728,-4.8398,-4.8324,-4.8324,-5.6094,-5.5981,-5.6,-5.5943,-5.5789,-5.434,-5.3721,-5.3702,-5.3531,-5.3397,-5.3282,-5.3282,-5.2915,-5.2241,-5.2184,-5.1722,-5.1029,-5.1029,-5.101,-5.101,-5.0894,-5.0856,-5.0837,-5.0741,-5.0683,-5.0683,-5.0683,-5.0683,-5.0664,-4.9933,-4.9567,-4.9529,-4.8817,-4.8356,-4.8221,-4.7568,-4.6666,-4.5668,-4.5496,-4.5399,-4.5381,-4.532,-4.4935,-4.4229,-4.4706,-4.4303,-4.287,-4.2679,-4.1972,-4.052,-3.8898,-3.7678,-3.6938,-3.4889,-3.3373,0.0,-3.1591,0.0,0.0,0.0,0.0,0.0,0.0,0.0,0.0,-3.4726,-3.5681,-3.7387,-3.9346,-4.119,-4.2871,-4.4131,-4.5186,-4.5957,-4.614,-4.6526,-4.7352,-4.8141,-4.895,-4.98,-5.0512,-5.1257,-5.2016,-5.2155,-5.2435,-5.2968,-5.3078,-5.2821,-5.2307,-5.216,-5.238,-5.3133,-5.3206,-5.3023,-5.3059,-5.3133,-5.3115,-5.3151,-5.3096,-5.2968,-5.2252,-5.216,-5.1922,-5.1334,-5.1077,-5.0949,-5.0949,-5.0857,-5.0527,-4.9866,-4.9738,-4.9426,-4.8581,-4.8324,-4.8324,-5.658,-5.5905,-5.5905,-5.5905,-5.5847,-5.5499,-5.5384,-5.5364,-5.467,-5.3957,-5.3302,-5.3282,-5.3205,-5.2992,-5.2992,-5.2896,-5.2742,-5.2722,-5.2722,-5.2702,-5.201,-5.1664,-5.1645,-5.101,-5.0683,-5.0683,-5.0683,-5.0683,-5.0683,-5.0529,-5.0452,-5.0433,-5.024,-4.9778,-4.9086,0.0,0.0,0.0,-4.5763,-4.5398,-4.5319,-4.5298,-4.522,-4.5031,-4.3883,0.0,-4.2813,-4.2125,-4.1609,-4.1266,-4.0117,0.0,0.0,0.0,0.0,0.0,0.0,0.0,0.0,0.0,0.0,0.0,-3.656,-3.6189,-3.611,-3.8324,-4.024,-4.1438,-4.2875,-4.4176,-4.5165,-4.5516,-4.5993,-4.6801,-4.7462,-4.8177,-4.9022,-4.9829,-5.0659,-5.1437,-5.1691,-5.2087,-5.2779,-5.3004,-5.3023,-5.317,-5.3206,-5.3151,-5.2986,-5.2931,-5.3023,-5.3188,-5.3206,-5.3206,-5.3206,-5.3206,-5.3206,-5.3206,-5.3206,-5.3133,-5.2986,-5.2931,-5.2968,-5.2674,-5.2197,-5.1756,-5.1756,-5.1242,-5.0839,-5.0618,-5.0563,-5.0123,-4.8655,-4.8324,-4.8324,-5.7524,0.0,-5.7099,-5.6847,0.0,-5.6402,-5.6171,-5.5787,-5.5344,-5.488,-5.4494,-5.4475,-5.4243,-5.3837,-5.3857,-5.3606,-5.3203,-5.3203,-5.3203,-5.3183,-5.2741,-5.2549,-5.2529,-5.2125,-5.1933,-5.1914,-5.151,-5.1279,-5.122,-5.0894,-5.0663,-5.0584,-5.0603,-5.0371,-4.989,-4.9447,-4.8562,-4.7254,-4.6392,-4.5912,-4.5872,-4.5509,-4.5105,-4.4683,0.0,0.0,0.0,0.0,0.0,0.0,0.0,0.0,0.0,0.0,0.0,-3.7875,-3.7359,-3.7045,-3.7082,-3.7868,-3.8792,-3.989,-4.0738,-4.0714,-3.9448,-4.1526,-4.3238,-4.4162,-4.489,-4.5626,-4.6397,-4.6489,-4.6985,-4.8159,-4.8691,-4.9279,-5.0086,-5.0894,-5.1522,-5.1952,-5.233,-5.2766,-5.3151,-5.3206,-5.3206,-5.3206,-5.3206,-5.3206,-5.3206,-5.3206,-5.3206,-5.3206,-5.3206,-5.3206,-5.3206,-5.3206,-5.3206,-5.3206,-5.3206,-5.3206,-5.3206,-5.3206,-5.3206,-5.3188,-5.2858,-5.2601,-5.2564,-5.2252,-5.1867,-5.1499,-5.1389,-5.1022,-4.9811,-4.9517,-4.9536,-5.8485,-5.8289,-5.8289,-5.7882,-5.7223,-5.7242,-5.6819,-5.6145,0.0,0.0,0.0,-5.5684,-5.5318,-5.4722,-5.4703,-5.4337,-5.3664,-5.3645,-5.3645,-5.3645,-5.3491,-5.3433,-5.3433,-5.328,-5.3203,-5.3164,-5.2451,-5.1989,-5.1774,-5.1182,-5.0758,-5.054,-5.0562,-5.054,-5.0421,-4.975,-4.9039,-4.8305,-4.7289,-4.6655,-4.6506,-4.5853,-4.5104,-4.4243,-4.476,-4.4418,-4.308,-4.3654,-4.3347,-4.1951,-4.1815,-4.167,-4.1378,-4.0997,-4.0971,-4.139,-4.1351,-4.1332,-4.1332,-4.146,-4.1864,-4.2671,-4.4066,-4.436,-4.3039,-4.414,-4.5259,-4.6049,-4.6104,-4.6452,-4.7241,-4.748,-4.8086,-4.9444,-4.9829,-5.0288,-5.0949,-5.172,-5.222,-5.2279,-5.2808,-5.3206,-5.3206,-5.3206,-5.3206,-5.3206,-5.3206,-5.3206,-5.3206,-5.3206,-5.3206,-5.3206,-5.3206,-5.3206,-5.3206,-5.3206,-5.3206,-5.3206,-5.3206,-5.3206,-5.3206,-5.3206,-5.3206,-5.3206,-5.3206,-5.317,-5.3188,-5.3115,-5.2968,-5.2325,-5.2197,-5.2013,-5.1426,-5.1224,-5.1096,-5.8957,-5.828,-5.828,-5.8223,-5.8107,-5.8127,-5.803,-5.7819,-5.6357,-5.5703,-5.5684,-5.5684,-5.5626,-5.553,-5.553,-5.5472,-5.5357,-5.5338,-5.5338,0.0,-5.4645,-5.4318,-5.428,-5.3549,-5.3203,-5.3203,-5.3006,-5.2543,-5.187,-5.1655,-5.119,-5.0577,-5.0438,-5.0393,-5.0329,-5.0256,-5.0141,-4.992,-4.8477,-4.731,-4.6526,-4.6388,-4.5946,-4.5144,-4.4532,-4.4112,-4.3864,-4.3939,-4.3778,-4.3312,-4.3101,-4.2806,-4.2462,-4.1607,-4.1061,-4.1195,-4.1787,-4.2121,-4.2158,-4.2763,-4.3497,-4.4305,-4.5223,-4.5626,-4.5424,-4.559,-4.6067,-4.6838,-4.6966,-4.7278,-4.8049,-4.8783,-4.9297,-4.9682,-5.0839,-5.1701,-5.183,-5.2491,-5.2986,-5.2968,-5.3115,-5.3206,-5.3206,-5.3206,-5.3206,-5.3206,-5.3206,-5.3206,-5.3206,-5.3206,-5.3206,-5.3206,-5.3206,-5.3206,-5.3206,-5.3206,-5.3206,-5.3206,-5.3206,-5.3206,-5.3206,-5.3206,-5.3206,-5.3206,-5.3206,-5.3206,-5.3206,-5.3206,-5.3133,-5.2931,-5.2949,-5.2876,-5.2692,-5.2711,-5.2362,-5.9992,-5.9665,-5.9646,-5.9377,-5.8934,-5.8492,-5.83,-5.82,-5.7234,-5.6534,-5.6132,-5.6132,-5.5883,-5.5504,-5.564,-5.5684,-5.5684,-5.5684,-5.5684,-5.5665,-5.5297,-5.5124,-5.5107,-5.4677,-5.4463,-5.4466,-5.398,-5.3426,-5.2805,-5.2541,-5.1863,-5.0811,-5.0488,-5.0325,-5.0302,-5.0348,-5.0283,-5.0012,-4.9052,-4.8337,-4.7933,-4.7455,-4.6806,-4.5967,-4.5398,-4.4909,-4.4452,-4.4294,-4.4153,-4.4026,-4.392,-4.3727,-4.3404,-4.2952,-4.2576,-4.2448,-4.2745,-4.3149,-4.3589,-4.4342,-4.5131,-4.5938,-4.6342,-4.6764,-4.7168,-4.6801,-4.6893,-4.77,-4.8159,-4.86,-4.8985,-4.9756,-5.0417,-5.0839,-5.1573,-5.216,-5.2601,-5.2949,-5.3206,-5.3206,-5.3206,-5.3206,-5.3206,-5.3206,-5.3206,-5.3206,-5.3206,-5.3206,-5.3206,-5.3206,-5.3206,-5.3206,-5.3206,-5.3206,-5.3206,-5.3206,-5.3206,-5.3206,-5.3206,-5.3206,-5.3206,-5.3206,-5.3206,-5.3206,-5.3206,-5.3206,-5.3206,-5.3206,-5.3206,-5.3206,-5.3206,-5.3206,-5.3206,-5.3206,-5.2766,-6.08,-6.08,-6.08,-6.0373,-5.9629,-5.8922,-5.8654,-5.8585,-5.8196,-5.7587,-5.6873,-5.6529,-5.6069,-5.56,-5.5533,-5.5508,-5.5508,-5.5508,-5.5489,-5.5508,-5.5418,-5.5399,-5.5423,-5.5326,-5.5301,-5.5293,-5.4713,-5.4167,-5.3612,-5.329,-5.2355,-5.0989,-5.0544,-5.0266,-5.0095,-5.0125,-5.0006,-4.9692,-4.9328,-4.9034,-4.8876,-4.8215,-4.7443,-4.6648,-4.636,-4.5836,-4.5041,-4.4775,-4.4562,-4.4336,-4.4318,-4.4192,-4.3892,-4.386,-4.3855,-4.3771,-4.3773,-4.4121,-4.4929,-4.5718,-4.6452,-4.7076,-4.7297,-4.7645,-4.8177,-4.7939,-4.7921,-4.8563,-4.915,-4.9591,-4.9903,-5.06,-5.1316,-5.1922,-5.2179,-5.2527,-5.3078,-5.3206,-5.3206,-5.3206,-5.3206,-5.3206,-5.3206,-5.3206,-5.3206,-5.3206,-5.3206,-5.3206,-5.3206,-5.3206,-5.3206,-5.3206,-5.3206,-5.3206,-5.3206,-5.3206,-5.3206,-5.3206,-5.3206,-5.3206,-5.3206,-5.3206,-5.3206,-5.3206,-5.3206,-5.3206,-5.3206,-5.3206,-5.3206,-5.3206,-5.3206,-5.3206,-5.3206,-5.3206,-5.3041,-6.08,-6.08,-6.0757,-6.0578,-6.0168,-5.9764,-5.9633,-5.9551,-5.9171,-5.8576,-5.7777,-5.6576,-5.6216,-5.6229,-5.537,-5.4962,-5.4962,-5.4895,-5.4895,-5.4895,-5.475,-5.4682,-5.4712,-5.464,-5.4597,-5.4659,-5.4743,-5.4354,-5.3632,-5.3481,-5.2473,-5.0754,-5.0534,-5.0218,-4.9518,-4.9502,-4.9453,-4.9345,-4.93,-4.8928,-4.8234,-4.8115,-4.768,-4.6791,-4.6738,-4.6354,-4.5566,-4.551,-4.5046,-4.4153,-4.4073,-4.3929,-4.36,-4.3584,-4.3862,-4.4525,-4.4617,-4.4947,-4.5736,-4.6544,-4.704,-4.7112,-4.7792,-4.8214,-4.8361,-4.8948,-4.9352,-4.9536,-4.9517,-4.9939,-5.0618,-5.1426,-5.1922,-5.2087,-5.2656,-5.3151,-5.3188,-5.3206,-5.3206,-5.3206,-5.3206,-5.3206,-5.3206,-5.3206,-5.3206,-5.3206,-5.3316,-5.3353,-5.3353,-5.3445,-5.339,-5.3298,-5.3225,-5.3243,-5.3225,-5.3206,-5.3206,-5.3206,-5.3206,-5.3206,-5.3206,-5.3206,-5.3206,-5.3206,-5.3206,-5.3206,-5.3206,-5.3206,-5.3206,-5.3206,-5.3206,-5.3206,-5.3206,-5.3206,-5.3115,-6.0395,-6.0208,-6.0208,-6.0082,-5.988,-5.9753,-5.9654,-5.9515,-5.9159,-5.8972,-5.8756,-5.7323,-5.6645,-5.6557,-5.5825,-5.5477,-5.5359,-5.4905,-5.4678,-5.4597,-5.4503,-5.4503,-5.4516,-5.4425,-5.4411,-5.4425,-5.4509,-5.4274,-5.3662,-5.3162,-5.2563,-5.1992,-5.1518,-5.0823,-5.0091,-5.0047,-4.9727,-4.9034,-4.8982,-4.8735,-4.8319,-4.8609,-4.8426,-4.7638,-4.7378,-4.6893,-4.6153,-4.5881,-4.5586,-4.5173,-4.5102,-4.5086,-4.4911,-4.4909,-4.5056,-4.5406,-4.5883,-4.6269,-4.6617,-4.7352,-4.7829,-4.781,-4.8122,-4.8489,-4.9022,-4.9389,-4.9939,-5.0839,-5.0986,-5.1151,-5.1518,-5.2234,-5.2729,-5.2747,-5.3023,-5.3206,-5.3206,-5.3206,-5.3206,-5.3206,-5.3206,-5.3206,-5.3206,-5.3206,-5.3206,-5.328,-5.3573,-5.3904,-5.3922,-5.4308,-5.4381,-5.4014,-5.3922,-5.3683,-5.3353,-5.3206,-5.3206,-5.3206,-5.3206,-5.3206,-5.3206,-5.3206,-5.3206,-5.3206,-5.3206,-5.3206,-5.3206,-5.3206,-5.3206,-5.3206,-5.3206,-5.3206,-5.3206,-5.3206,-5.3206,-6.003,-5.9809,-5.9658,-5.9537,-5.943,-5.9342,-5.9196,-5.9084,-5.8812,-5.893,-5.9121,-5.7951,-5.733,-5.7061,-5.6359,-5.592,-5.5755,-5.5003,-5.4612,-5.4525,-5.4233,-5.4121,-5.4137,-5.4033,-5.4016,-5.4088,-5.4123,-5.3961,-5.3645,-5.3125,-5.2828,-5.2638,-5.2078,-5.1388,-5.0642,-5.0415,-4.9849,-4.9065,-4.8806,-4.855,-4.8383,-4.8763,-4.8742,-4.8217,-4.7923,-4.74,-4.6607,-4.6359,-4.6122,-4.5883,-4.5902,-4.5902,-4.5902,-4.5919,-4.5993,-4.6305,-4.6985,-4.7406,-4.7443,-4.7994,-4.8324,-4.8343,-4.8508,-4.8912,-4.9499,-4.9976,-5.0747,-5.1738,-5.2179,-5.2289,-5.2399,-5.2858,-5.3188,-5.3206,-5.3206,-5.3206,-5.3206,-5.3206,-5.3206,-5.3206,-5.3206,-5.3206,-5.3243,-5.3408,-5.361,-5.3665,-5.4234,-5.4711,-5.4766,-5.517,-5.5317,-5.484,-5.473,-5.4308,-5.3463,-5.3206,-5.3206,-5.3206,-5.3206,-5.3206,-5.3206,-5.3206,-5.3206,-5.3206,-5.3206,-5.3206,-5.3206,-5.3206,-5.3206,-5.3206,-5.3206,-5.3206,-5.3206,-5.3206,-5.3206,-5.9809,-5.9744,-5.9326,-5.914,-5.9102,-5.8679,-5.8462,-5.8486,-5.8312,-5.8312,-5.8505,-5.8213,-5.8194,-5.8166,-5.6691,-5.5946,-5.5817,-5.5118,-5.4766,-5.4633,-5.385,-5.3381,-5.3341,-5.3254,-5.3272,-5.3359,-5.3641,-5.372,-5.3663,-5.3626,-5.31,-5.2136,-5.2063,-5.1599,-5.0867,-5.0207,-4.9669,-4.954,-4.886,-4.8381,-4.8324,-4.8363,-4.8364,-4.8288,-4.8289,-4.7848,-4.7205,-4.7058,-4.6746,-4.5957,-4.6012,-4.5975,-4.5957,-4.5974,-4.6323,-4.7022,-4.7774,-4.8251,-4.8251,-4.8361,-4.8416,-4.8489,-4.9132,-4.9572,-4.9866,-5.0949,-5.1756,-5.2013,-5.2674,-5.3078,-5.3059,-5.3115,-5.3206,-5.3206,-5.3206,-5.3206,-5.3206,-5.3206,-5.3206,-5.3206,-5.3206,-5.328,-5.328,-5.3885,-5.4234,-5.4454,-5.5023,-5.5537,-5.5574,-5.5629,-5.5684,-5.5611,-5.5445,-5.5023,-5.3628,-5.339,-5.3353,-5.3316,-5.339,-5.3225,-5.3206,-5.3206,-5.3206,-5.3206,-5.3206,-5.3206,-5.3206,-5.3206,-5.3206,-5.3206,-5.3206,-5.3206,-5.3206,-5.3206,-5.3206,-5.9252,-5.8986,-5.8788,-5.8661,-5.8511,-5.8312,-5.8242,-5.8152,-5.8088,-5.8152,-5.826,-5.8152,-5.8152,-5.8268,-5.7589,-5.7019,-5.6565,-5.5754,-5.5343,-5.519,-5.4412,-5.4002,-5.3946,-5.3445,-5.3206,-5.3206,-5.3336,-5.3359,-5.3359,-5.3378,-5.3189,-5.2863,-5.2766,-5.2362,-5.1646,-5.1279,-5.0894,-5.0343,-4.9536,-4.9134,-4.9081,-4.8601,-4.8324,-4.8324,-4.8324,-4.8177,-4.7884,-4.7884,-4.7755,-4.7443,-4.7443,-4.7443,-4.7443,-4.7407,-4.7573,-4.7847,-4.8141,-4.8545,-4.9022,-4.9132,-4.9352,-4.9866,-5.016,-5.06,-5.1077,-5.1665,-5.2197,-5.2674,-5.2986,-5.3206,-5.3206,-5.3206,-5.3206,-5.3206,-5.3206,-5.3206,-5.3206,-5.3206,-5.3206,-5.3206,-5.3225,-5.339,-5.3904,-5.4252,-5.4601,-5.5133,-5.5849,-5.629,-5.6455,-5.6767,-5.6895,-5.6492,-5.6345,-5.5996,-5.4987,-5.4271,-5.3959,-5.3794,-5.3702,-5.339,-5.3261,-5.3225,-5.3225,-5.3206,-5.3206,-5.3206,-5.3206,-5.3206,-5.3206,-5.3206,-5.3206,-5.3206,-5.3206,-5.3206,-5.3206,-5.8806,-5.8468,-5.8443,-5.8312,-5.8197,-5.8152,-5.8088,-5.7978,-5.7978,-5.8042,-5.8106,-5.8042,-5.8042,-5.8106,-5.8042,-5.7767,-5.7269,-5.647,-5.6084,-5.5904,-5.517,-5.4656,-5.4344,-5.3849,-5.3463,-5.3243,-5.3206,-5.3206,-5.3206,-5.3206,-5.3206,-5.3206,-5.3206,-5.2949,-5.2435,-5.2123,-5.1701,-5.1114,-5.038,-5.0,-4.9912,-4.943,-4.9114,-4.9077,-4.8857,-4.8581,-4.8343,-4.8324,-4.8324,-4.8324,-4.8324,-4.8324,-4.8324,-4.8324,-4.8324,-4.8324,-4.8581,-4.8967,-4.9517,-4.9811,-5.0215,-5.0747,-5.1059,-5.1463,-5.194,-5.2215,-5.2656,-5.3078,-5.3206,-5.3206,-5.3206,-5.3206,-5.3206,-5.3206,-5.3206,-5.3206,-5.3206,-5.3206,-5.3353,-5.3573,-5.3653,-5.3983,-5.462,-5.5005,-5.5427,-5.5941,-5.6693,-5.7171,-5.7281,-5.7574,-5.7868,-5.7317,-5.7207,-5.6987,-5.6381,-5.5768,-5.506,-5.4803,-5.4179,-5.3775,-5.3445,-5.339,-5.3261,-5.3225,-5.3206,-5.3206,-5.3206,-5.3206,-5.3206,-5.3206,-5.3206,-5.3206,-5.3206,-5.3206,-5.3206,-5.8486,-5.8393,-5.8242,-5.8197,-5.8133,-5.8042,-5.7997,-5.7978,-5.7978,-5.7978,-5.8042,-5.7997,-5.7978,-5.7978,-5.7997,-5.7941,-5.7758,-5.7116,-5.6822,-5.673,-5.5978,-5.5225,-5.4638,-5.4491,-5.3995,-5.3371,-5.3261,-5.3243,-5.3206,-5.3206,-5.3206,-5.3206,-5.3206,-5.317,-5.317,-5.2454,-5.205,-5.183,-5.1224,-5.0809,-5.0818,-5.0643,-5.0582,-5.0563,-4.9976,-4.9224,-4.8434,-4.8343,-4.8324,-4.8324,-4.8324,-4.8324,-4.8324,-4.8324,-4.8324,-4.8526,-4.9095,-4.9536,-4.9774,-5.0417,-5.0839,-5.1151,-5.161,-5.2032,-5.2215,-5.2729,-5.3133,-5.317,-5.3206,-5.3206,-5.3225,-5.3298,-5.3298,-5.3206,-5.3206,-5.3206,-5.3206,-5.3243,-5.3537,-5.4216,-5.4387,-5.4742,-5.5508,-5.6095,-5.6536,-5.6859,-5.7391,-5.7831,-5.7795,-5.7923,-5.796,-5.7923,-5.7795,-5.7556,-5.7455,-5.7327,-5.652,-5.5812,-5.4987,-5.4363,-5.4014,-5.3849,-5.3445,-5.3335,-5.3225,-5.3206,-5.3206,-5.3206,-5.3206,-5.3206,-5.3206,-5.3206,-5.3206,-5.3206,-5.3206,-5.8375,-5.8242,-5.8197,-5.8133,-5.8042,-5.7997,-5.7978,-5.7978,-5.7978,-5.7978,-5.7978,-5.7978,-5.7978,-5.7978,-5.7978,-5.7978,-5.796,-5.774,-5.7629,-5.7464,-5.6804,-5.629,-5.5959,-5.5445,-5.4803,-5.4161,-5.4032,-5.3739,-5.3298,-5.3225,-5.3206,-5.3206,-5.3206,-5.3206,-5.3206,-5.2968,-5.2839,-5.2729,-5.2032,-5.161,-5.1573,-5.1096,-5.0812,-5.0785,-5.0519,-5.0031,-4.9224,-4.8618,-4.8324,-4.8324,-4.8324,-4.8324,-4.8324,-4.8324,-4.8561,-4.9145,-4.9404,-5.016,-5.1114,-5.1481,-5.1867,-5.2325,-5.2692,-5.2803,-5.2839,-5.3041,-5.3206,-5.3206,-5.3206,-5.3206,-5.3298,-5.3739,-5.3775,-5.3261,-5.3206,-5.3298,-5.3408,-5.3739,-5.4381,-5.5042,-5.5239,-5.5606,-5.6242,-5.6793,-5.7051,-5.7483,-5.7831,-5.7978,-5.7978,-5.7978,-5.7978,-5.7978,-5.7978,-5.7978,-5.7831,-5.7675,-5.7336,-5.6638,-5.5868,-5.517,-5.4785,-5.4326,-5.3904,-5.3463,-5.3335,-5.3206,-5.3206,-5.3206,-5.3206,-5.3206,-5.3206,-5.3206,-5.3206,-5.3206,-5.3206,-5.8242,-5.8152,-5.8133,-5.8088,-5.7978,-5.7978,-5.7978,-5.7978,-5.7978,-5.7978,-5.7978,-5.7978,-5.7978,-5.7978,-5.7978,-5.7978,-5.7978,-5.7978,-5.7978,-5.7941,-5.7538,-5.7116,-5.6767,-5.5978,-5.5372,-5.4858,-5.4546,-5.4161,-5.3647,-5.3353,-5.3206,-5.3206,-5.3206,-5.3206,-5.3206,-5.3206,-5.3206,-5.3115,-5.2711,-5.2449,-5.2333,-5.1954,-5.1674,-5.1645,-5.1381,-5.1004,-5.0435,-4.9664,-4.8948,-4.8453,-4.8324,-4.8434,-4.8712,-4.8802,-4.9148,-4.986,-5.0376,-5.0967,-5.1903,-5.2234,-5.2637,-5.3115,-5.3206,-5.3206,-5.3206,-5.3206,-5.3206,-5.3206,-5.3206,-5.3206,-5.3316,-5.3922,-5.4106,-5.3739,-5.3995,-5.4069,-5.4179,-5.4528,-5.517,-5.5776,-5.6066,-5.647,-5.7014,-5.7262,-5.7436,-5.7886,-5.7978,-5.7978,-5.7978,-5.7978,-5.7978,-5.7978,-5.7978,-5.7978,-5.7978,-5.796,-5.796,-5.7409,-5.6785,-5.618,-5.5684,-5.517,-5.4693,-5.394,-5.361,-5.3261,-5.3206,-5.3206,-5.3206,-5.3206,-5.3206,-5.3206,-5.3206,-5.3206,-5.3206,-5.8106,-5.7978,-5.7978,-5.7978,-5.7978,-5.7978,-5.7978,-5.7978,-5.7978,-5.7978,-5.7978,-5.7978,-5.7978,-5.7978,-5.7978,-5.7978,-5.7978,-5.7978,-5.7978,-5.7978,-5.785,-5.7574,-5.695,-5.6326,-5.5923,-5.5574,-5.4895,-5.4473,-5.4216,-5.3555,-5.3206,-5.3206,-5.3206,-5.3206,-5.3206,-5.3206,-5.3206,-5.3206,-5.317,-5.3133,-5.3091,-5.3115,-5.3078,-5.3017,-5.2417,-5.1958,-5.1665,-5.0949,-4.9958,-4.8728,-4.8673,-4.9005,-4.9505,-4.9669,-5.0013,-5.0798,-5.1573,-5.1867,-5.2197,-5.2692,-5.3133,-5.3188,-5.3206,-5.3206,-5.3206,-5.3206,-5.3206,-5.3206,-5.3206,-5.3206,-5.3353,-5.4069,-5.4491,-5.473,-5.5097,-5.5354,-5.5592,-5.5647,-5.6033,-5.6638,-5.693,-5.7114,-5.7776,-5.7868,-5.7923,-5.796,-5.7978,-5.7978,-5.7978,-5.7978,-5.7978,-5.7978,-5.7978,-5.7978,-5.7978,-5.7978,-5.7978,-5.7813,-5.7299,-5.6895,-5.6308,-5.5776,-5.5115,-5.4399,-5.394,-5.3555,-5.3225,-5.3225,-5.3225,-5.3206,-5.3206,-5.3206,-5.3206,-5.3206,-5.3206,-5.8042,-5.7997,-5.7978,-5.7978,-5.7978,-5.7978,-5.7978,-5.7978,-5.7978,-5.7978,-5.7978,-5.7978,-5.7978,-5.7978,-5.7978,-5.7978,-5.7978,-5.7978,-5.7978,-5.7978,-5.7978,-5.7905,-5.7703,-5.7464,-5.7005,-5.6436,-5.5647,-5.4968,-5.4381,-5.3665,-5.3243,-5.3206,-5.3206,-5.3206,-5.3206,-5.3206,-5.3206,-5.3206,-5.3206,-5.3206,-5.3206,-5.3206,-5.3206,-5.3188,-5.2968,-5.2564,-5.1995,-5.1224,-5.0674,-5.0251,-5.0141,-5.022,-5.0448,-5.0478,-5.0817,-5.1564,-5.188,-5.2289,-5.2784,-5.3059,-5.3206,-5.3206,-5.3206,-5.3206,-5.3206,-5.3206,-5.3206,-5.3206,-5.3206,-5.3225,-5.3427,-5.4473,-5.5629,-5.6712,-5.6271,-5.5923,-5.6345,-5.651,-5.6804,-5.7501,-5.7657,-5.7804,-5.7868,-5.7978,-5.7978,-5.7978,-5.7978,-5.7978,-5.7978,-5.7978,-5.7978,-5.7978,-5.7978,-5.7978,-5.7978,-5.7978,-5.7978,-5.7978,-5.7703,-5.7428,-5.6767,-5.6088,-5.5317,-5.4528,-5.4454,-5.4161,-5.3573,-5.3243,-5.3243,-5.339,-5.3225,-5.3225,-5.3206,-5.3206,-5.3206,-5.7978,-5.7978,-5.7978,-5.7978,-5.7978,-5.7978,-5.7978,-5.7978,-5.7978,-5.7978,-5.7978,-5.7978,-5.7978,-5.7978,-5.7978,-5.7978,-5.7978,-5.7978,-5.7978,-5.7978,-5.7978,-5.796,-5.796,-5.796,-5.774,-5.7281,-5.6473,-5.5702,-5.4913,-5.4106,-5.3592,-5.3261,-5.3206,-5.3206,-5.3206,-5.3206,-5.3206,-5.3206,-5.3206,-5.3206,-5.3206,-5.3206,-5.3206,-5.3206,-5.3206,-5.2931,-5.2472,-5.205,-5.1555,-5.1004,-5.0802,-5.0956,-5.1277,-5.1287,-5.1678,-5.2425,-5.2504,-5.2747,-5.3078,-5.3206,-5.3206,-5.3206,-5.3206,-5.3206,-5.3206,-5.3206,-5.3206,-5.3206,-5.3206,-5.339,-5.3922,-5.5152,-5.6583,-5.7519,-5.7152,-5.6785,-5.7262,-5.7317,-5.7519,-5.785,-5.7978,-5.7978,-5.7978,-5.7978,-5.7978,-5.7978,-5.7978,-5.7978,-5.7978,-5.7978,-5.7978,-5.7978,-5.7978,-5.7978,-5.7978,-5.7978,-5.7978,-5.7978,-5.7941,-5.7703,-5.7299,-5.6583,-5.6051,-5.5445,-5.5133,-5.4748,-5.4252,-5.3849,-5.3794,-5.3775,-5.3482,-5.3225,-5.3225,-5.3206,-5.3206,-5.7978,-5.7978,-5.7978,-5.7978,-5.7978,-5.7978,-5.7978,-5.7978,-5.7978,-5.7978,-5.7978,-5.7978,-5.7978,-5.7978,-5.7978,-5.7978,-5.7978,-5.7978,-5.7978,-5.7978,-5.7978,-5.7978,-5.7978,-5.7978,-5.7941,-5.774,-5.7152,-5.6308,-5.5445,-5.4711,-5.3959,-5.339,-5.3206,-5.3206,-5.3206,-5.3206,-5.3206,-5.3206,-5.3206,-5.3206,-5.3206,-5.3206,-5.3206,-5.3206,-5.3206,-5.3188,-5.3115,-5.3004,-5.2527,-5.1151,-5.1041,-5.1503,-5.204,-5.2128,-5.2417,-5.2968,-5.3096,-5.3133,-5.3206,-5.3206,-5.3206,-5.3206,-5.3206,-5.3206,-5.3206,-5.3206,-5.3206,-5.3206,-5.3206,-5.3628,-5.4564,-5.5904,-5.6987,-5.7758,-5.7905,-5.796,-5.7978,-5.7978,-5.7978,-5.7978,-5.7978,-5.7978,-5.7978,-5.7978,-5.7978,-5.7978,-5.7978,-5.7978,-5.7978,-5.7978,-5.7978,-5.7978,-5.7978,-5.7978,-5.7978,-5.7978,-5.7978,-5.7978,-5.7978,-5.7868,-5.7795,-5.7299,-5.6987,-5.6547,-5.5996,-5.5574,-5.5244,-5.4913,-5.4528,-5.4051,-5.3647,-5.339,-5.3206,-5.3206,-5.3206,-5.7978,-5.7978,-5.7978,-5.7978,-5.7978,-5.7978,-5.7978,-5.7978,-5.7978,-5.7978,-5.7978,-5.7978,-5.7978,-5.7978,-5.7978,-5.7978,-5.7978,-5.7978,-5.7978,-5.7978,-5.7978,-5.7978,-5.7978,-5.7978,-5.7978,-5.7813,-5.7189,-5.6418,-5.5611,-5.4876,-5.4014,-5.3371,-5.3243,-5.3206,-5.3206,-5.3206,-5.3206,-5.3206,-5.3206,-5.3206,-5.3206,-5.3206,-5.3206,-5.3206,-5.3206,-5.3206,-5.3206,-5.3206,-5.3041,-5.2784,-5.2619,-5.2601,-5.2766,-5.2876,-5.2986,-5.3115,-5.3206,-5.3206,-5.3206,-5.3206,-5.3206,-5.3206,-5.3206,-5.3206,-5.3206,-5.3206,-5.3206,-5.3206,-5.3243,-5.3885,-5.5207,-5.6198,-5.7134,-5.7795,-5.7978,-5.7978,-5.7978,-5.7978,-5.7978,-5.7978,-5.7978,-5.7978,-5.7978,-5.7978,-5.7978,-5.7978,-5.7978,-5.7978,-5.7978,-5.7978,-5.7978,-5.7978,-5.7978,-5.7978,-5.7978,-5.7978,-5.7978,-5.7978,-5.7978,-5.7978,-5.7923,-5.785,-5.7446,-5.7079,-5.6712,-5.6363,-5.6143,-5.528,-5.473,-5.4289,-5.3885,-5.3628,-5.3427,-5.3353,-5.3371,-5.7978,-5.7978,-5.7978,-5.7978,-5.7978,-5.7978,-5.7978,-5.7978,-5.7978,-5.7978,-5.7978,-5.7978,-5.7978,-5.7978,-5.7978,-5.7978,-5.7978,-5.7978,-5.7978,-5.7978,-5.7978,-5.7978,-5.7978,-5.7978,-5.7978,-5.7905,-5.7593,-5.6914,-5.6143,-5.5335,-5.4583,-5.3757,-5.3427,-5.3225,-5.3206,-5.3206,-5.3206,-5.3206,-5.3206,-5.3206,-5.3206,-5.3206,-5.3206,-5.3206,-5.3206,-5.3206,-5.3206,-5.3206,-5.3206,-5.3206,-5.3206,-5.3206,-5.3206,-5.3206,-5.3206,-5.3206,-5.3206,-5.3206,-5.3206,-5.3206,-5.3206,-5.3206,-5.3206,-5.3206,-5.3206,-5.3206,-5.3206,-5.3298,-5.3665,-5.4418,-5.5959,-5.6877,-5.7574,-5.7831,-5.7978,-5.7978,-5.7978,-5.7978,-5.7978,-5.7978,-5.7978,-5.7978,-5.7978,-5.7978,-5.7978,-5.7978,-5.7978,-5.7978,-5.7978,-5.7978,-5.7978,-5.7978,-5.7978,-5.7978,-5.7978,-5.7978,-5.7978,-5.7978,-5.7978,-5.7978,-5.796,-5.7905,-5.7813,-5.7501,-5.7226,-5.7299,-5.6969,-5.5996,-5.5207,-5.4932,-5.4583,-5.4069,-5.3702,-5.3628,-5.3739,-5.7978,-5.7978,-5.7978,-5.7978,-5.7978,-5.7978,-5.7978,-5.7978,-5.7978,-5.7978,-5.7978,-5.7978,-5.7978,-5.7978,-5.7978,-5.7978,-5.7978,-5.7978,-5.7978,-5.7978,-5.7978,-5.7978,-5.7978,-5.7978,-5.7978,-5.7978,-5.7905,-5.7464,-5.6712,-5.5978,-5.5023,-5.4344,-5.3573,-5.3243,-5.3206,-5.3206,-5.3206,-5.3206,-5.3206,-5.3206,-5.3206,-5.3206,-5.3206,-5.3206,-5.3206,-5.3206,-5.3206,-5.3206,-5.3206,-5.3206,-5.3206,-5.3206,-5.3206,-5.3206,-5.3206,-5.3206,-5.3206,-5.3206,-5.3206,-5.3206,-5.3206,-5.3206,-5.3206,-5.3206,-5.3206,-5.3206,-5.3206,-5.3537,-5.3995,-5.5152,-5.6638,-5.7409,-5.7831,-5.7978,-5.7978,-5.7978,-5.7978,-5.7978,-5.7978,-5.7978,-5.7978,-5.7978,-5.7978,-5.7978,-5.7978,-5.7978,-5.7978,-5.7978,-5.7978,-5.7978,-5.7978,-5.7978,-5.7978,-5.7978,-5.7978,-5.7978,-5.7978,-5.7978,-5.7978,-5.7978,-5.7978,-5.7941,-5.7923,-5.7941,-5.7813,-5.7795,-5.7574,-5.6804,-5.6161,-5.5776,-5.5262,-5.473,-5.4326,-5.3959,-5.4179,-5.7978,-5.7978,-5.7978,-5.7978,-5.7978,-5.7978,-5.7978,-5.7978,-5.7978,-5.7978,-5.7978,-5.7978,-5.7978,-5.7978,-5.7978,-5.7978,-5.7978,-5.7978,-5.7978,-5.7978,-5.7978,-5.7997,-5.7867,-5.7857,-5.7886,-5.7978,-5.7886,-5.7473,-5.6859,-5.5996,-5.5244,-5.4399,-5.3592,-5.3225,-5.3206,-5.3206,-5.3206,-5.3206,-5.3206,-5.3206,-5.3206,-5.3206,-5.3206,-5.3206,-5.3206,-5.3206,-5.3206,-5.3206,-5.3206,-5.3206,-5.3206,-5.3206,-5.3206,-5.3206,-5.3206,-5.3206,-5.3206,-5.3206,-5.3206,-5.3206,-5.3206,-5.3206,-5.3206,-5.3206,-5.3206,-5.3243,-5.3316,-5.3775,-5.462,-5.5812,-5.6712,-5.7556,-5.7905,-5.7978,-5.7978,-5.7978,-5.7978,-5.7978,-5.7978,-5.7978,-5.7978,-5.7978,-5.7978,-5.7978,-5.7978,-5.7978,-5.7978,-5.7978,-5.7978,-5.7978,-5.7978,-5.7978,-5.7978,-5.7978,-5.7978,-5.7978,-5.7978,-5.7978,-5.7978,-5.7978,-5.7978,-5.7978,-5.7978,-5.7978,-5.7978,-5.7923,-5.7629,-5.7299,-5.6895,-5.6363,-5.5868,-5.539,-5.517,-5.4968,-5.5042,-5.7978,-5.7978,-5.7978,-5.7978,-5.7978,-5.7978,-5.7978,-5.7978,-5.7978,-5.7978,-5.7978,-5.7978,-5.7978,-5.7978,-5.7978,-5.7978,-5.7978,-5.7978,-5.7978,-5.7978,-5.7978,-5.7774,-5.7565,-5.7522,-5.7338,-5.7206,-5.7108,-5.7351,-5.7272,-5.6161,-5.5365,-5.4858,-5.3849,-5.3225,-5.3206,-5.3206,-5.3206,-5.3206,-5.3206,-5.3206,-5.3206,-5.3206,-5.3206,-5.3206,-5.3206,-5.3206,-5.3206,-5.3206,-5.3206,-5.3206,-5.3206,-5.3206,-5.3206,-5.3164,-5.3206,-5.3188,-5.3206,-5.3206,-5.3206,-5.3206,-5.3206,-5.3206,-5.3206,-5.3206,-5.3206,-5.3261,-5.3573,-5.4491,-5.5372,-5.6547,-5.7373,-5.7776,-5.7941,-5.7978,-5.7978,-5.7978,-5.7978,-5.7978,-5.7978,-5.7932,-5.7932,-5.7932,-5.7978,-5.7978,-5.7978,-5.7978,-5.7978,-5.7978,-5.7978,-5.7978,-5.7978,-5.7978,-5.7978,-5.7978,-5.7978,-5.7978,-5.7978,-5.7978,-5.7978,-5.7978,-5.7978,-5.7978,-5.7978,-5.7978,-5.7978,-5.7978,-5.7905,-5.7648,-5.7281,-5.695,-5.6528,-5.6198,-5.6088,-5.6033,-5.6051,-5.7978,-5.7978,-5.7978,-5.7978,-5.7978,-5.7978,-5.7978,-5.7978,-5.7978,-5.7978,-5.7978,-5.7978,-5.7978,-5.7978,-5.7978,-5.7978,-5.7978,-5.7978,-5.7932,-5.7755,-5.7708,-5.7498,-5.7051,-5.6901,-5.6796,-5.6546,-5.6486,-5.6778,-5.6975,-5.5877,-5.5377,-5.482,-5.3767,-5.3121,-5.3164,-5.3206,-5.3206,-5.3206,-5.3206,-5.3206,-5.3206,-5.3206,-5.3206,-5.3206,-5.3206,-5.3164,-5.3017,-5.3164,-5.306,-5.3017,-5.2999,-5.3023,-5.3054,-5.3066,-5.3023,-5.3054,-5.3109,-5.3206,-5.3206,-5.3206,-5.3206,-5.3206,-5.3206,-5.3206,-5.3316,-5.3518,-5.4051,-5.5372,-5.629,-5.6951,-5.7481,-5.7932,-5.7886,-5.7755,-5.7774,-5.7839,-5.7886,-5.7886,-5.7839,-5.7839,-5.7857,-5.7904,-5.7904,-5.7978,-5.7978,-5.7978,-5.7978,-5.7978,-5.7978,-5.7978,-5.7978,-5.7978,-5.7978,-5.7978,-5.7978,-5.7978,-5.7978,-5.7978,-5.7978,-5.7978,-5.7978,-5.7978,-5.7978,-5.7978,-5.7978,-5.7978,-5.7978,-5.796,-5.7648,-5.7373,-5.7152,-5.7005,-5.695,-5.6859,-5.6804,-5.7978,-5.7978,-5.7978,-5.7978,-5.7978,-5.7978,-5.7978,-5.7978,-5.7978,-5.7978,-5.7978,-5.7978,-5.7978,-5.7932,-5.7932,-5.7978,-5.7932,-5.7821,-5.7565,-5.7284,-5.7166,-5.6912,-5.6492,-5.6393,-5.6268,-5.607,-5.6109,-5.6357,-5.6206,-5.4932,-5.4467,-5.4465,-5.3499,-5.2717,-5.306,-5.3164,-5.3206,-5.3164,-5.3164,-5.3146,-5.3127,-5.3127,-5.3078,-5.3158,-5.3078,-5.2912,-5.2627,-5.2761,-5.285,-5.2499,-5.2518,-5.2498,-5.2498,-5.2516,-5.247,-5.2608,-5.2889,-5.3206,-5.3206,-5.3206,-5.3206,-5.3164,-5.3164,-5.3164,-5.3273,-5.3785,-5.4462,-5.5445,-5.6318,-5.6839,-5.7237,-5.766,-5.7594,-5.7382,-5.7234,-5.7498,-5.766,-5.7576,-5.7594,-5.7533,-5.7496,-5.766,-5.7799,-5.7904,-5.7978,-5.7978,-5.7978,-5.7978,-5.7978,-5.7978,-5.7978,-5.7978,-5.7978,-5.7978,-5.7978,-5.7978,-5.7978,-5.7978,-5.7978,-5.7978,-5.7978,-5.7978,-5.7978,-5.7978,-5.7978,-5.7978,-5.7978,-5.796,-5.7905,-5.7776,-5.7556,-5.7648,-5.7831,-5.7703,-5.7446,-5.5862,-5.6432,-5.7478,-5.7679,-5.7468,-5.7726,-5.7904,-5.7904,-5.795,-5.7978,-5.7978,-5.7978,-5.7821,-5.7565,-5.7498,-5.7284,-5.7134,-5.7083,-5.693,-5.6704,-5.6581,-5.6312,-5.5922,-5.5759,-5.5648,-5.5371,-5.5304,-5.5218,-5.4911,-5.4543,-5.4161,-5.4345,-5.323,-5.2499,-5.2761,-5.306,-5.2955,-5.2806,-5.2743,-5.2722,-5.2656,-5.2481,-5.2441,-5.2705,-5.2459,-5.2239,-5.2108,-5.2108,-5.2203,-5.1964,-5.1964,-5.194,-5.2051,-5.2216,-5.2409,-5.2432,-5.2926,-5.3188,-5.3206,-5.3164,-5.3164,-5.306,-5.2948,-5.2763,-5.3059,-5.3652,-5.443,-5.523,-5.6057,-5.6533,-5.6649,-5.6843,-5.6861,-5.6757,-5.6652,-5.6809,-5.7065,-5.718,-5.7193,-5.7115,-5.7061,-5.7252,-5.7351,-5.7361,-5.7571,-5.7978,-5.7932,-5.7932,-5.7978,-5.7978,-5.7978,-5.7978,-5.7978,-5.7978,-5.7978,-5.7978,-5.7978,-5.7978,-5.7978,-5.7978,-5.7978,-5.7978,-5.7978,-5.7978,-5.7978,-5.7978,-5.7978,-5.796,-5.7941,-5.796,-5.7978,-5.7978,-5.7978,-5.7941,-5.7685,-5.3584,-5.415,-5.5974,-5.6518,-5.6317,-5.68,-5.7039,-5.717,-5.7133,-5.7354,-5.7675,-5.7711,-5.7498,-5.7116,-5.6964,-5.6739,-5.6384,-5.633,-5.6166,-5.6111,-5.5999,-5.5716,-5.5343,-5.5122,-5.4974,-5.4512,-5.47,-5.4499,-5.4157,-5.3742,-5.362,-5.4173,-5.257,-5.212,-5.2268,-5.2481,-5.2472,-5.2217,-5.2216,-5.2185,-5.2155,-5.1831,-5.1889,-5.193,-5.1805,-5.1551,-5.1416,-5.1619,-5.1669,-5.1416,-5.1398,-5.1414,-5.1462,-5.1679,-5.185,-5.1963,-5.2354,-5.2654,-5.2717,-5.2761,-5.2912,-5.2717,-5.2572,-5.2348,-5.2824,-5.3457,-5.4224,-5.5062,-5.5884,-5.6169,-5.6166,-5.6203,-5.6276,-5.6221,-5.6055,-5.6166,-5.6258,-5.6438,-5.6606,-5.6679,-5.6613,-5.6652,-5.6704,-5.6653,-5.7023,-5.7745,-5.7932,-5.7886,-5.7932,-5.7978,-5.7978,-5.7978,-5.7978,-5.7978,-5.7978,-5.7978,-5.7978,-5.7978,-5.7978,-5.7978,-5.7978,-5.7978,-5.7978,-5.7978,-5.7978,-5.7978,-5.7978,-5.7978,-5.7978,-5.7978,-5.7978,-5.7978,-5.7978,-5.7978,-5.7941,-5.1794,-5.1056,-5.2989,-5.4133,-5.4633,-5.4711,-5.5141,-5.5623,-5.5291,-5.5869,-5.6777,-5.6994,-5.6917,-5.684,-5.6402,-5.6169,-5.6221,-5.6276,-5.5887,-5.556,-5.5402,-5.5122,-5.4834,-5.4665,-5.462,-5.4494,-5.4374,-5.4011,-5.3425,-5.2762,-5.2782,-5.2839,-5.1776,-5.1473,-5.1518,-5.1782,-5.1824,-5.1636,-5.1634,-5.1652,-5.1653,-5.1547,-5.1547,-5.159,-5.1582,-5.1365,-5.091,-5.121,-5.1262,-5.0839,-5.0839,-5.0858,-5.0876,-5.1052,-5.1172,-5.1304,-5.1674,-5.1897,-5.1915,-5.2155,-5.2155,-5.1866,-5.174,-5.1925,-5.2591,-5.3353,-5.4207,-5.49,-5.5588,-5.5759,-5.5773,-5.583,-5.5791,-5.5618,-5.5502,-5.5618,-5.5658,-5.5716,-5.5882,-5.6075,-5.6142,-5.6156,-5.603,-5.5953,-5.6671,-5.7401,-5.7821,-5.7774,-5.7932,-5.7978,-5.7978,-5.7978,-5.7978,-5.7978,-5.7978,-5.7978,-5.7978,-5.7978,-5.7978,-5.7978,-5.7978,-5.7978,-5.7978,-5.7978,-5.7978,-5.7978,-5.7978,-5.7978,-5.7978,-5.7978,-5.7978,-5.7978,-5.7978,-5.7978,-5.7978,-5.0145,-4.9794,-5.0555,-5.1817,-5.3384,-5.4128,-5.4449,-5.4548,-5.5018,-5.5304,-5.5556,-5.5324,-5.5222,-5.5221,-5.5178,-5.5062,-5.5172,-5.5164,-5.5026,-5.4957,-5.479,-5.4665,-5.4512,-5.4512,-5.4512,-5.4391,-5.4098,-5.377,-5.3356,-5.2201,-5.1709,-5.1483,-5.1057,-5.1015,-5.1052,-5.1087,-5.1126,-5.1079,-5.1111,-5.1082,-5.1063,-5.0758,-5.075,-5.1106,-5.0684,-5.0582,-5.0359,-5.0509,-5.0453,-5.0415,-5.0341,-5.0363,-5.0422,-5.0622,-5.0733,-5.0788,-5.1243,-5.1314,-5.121,-5.1569,-5.1651,-5.1262,-5.1176,-5.1528,-5.2379,-5.2774,-5.3539,-5.4325,-5.4997,-5.5147,-5.5061,-5.5061,-5.5018,-5.4913,-5.4957,-5.5061,-5.5164,-5.5224,-5.5196,-5.5413,-5.557,-5.5637,-5.5392,-5.5216,-5.6159,-5.7047,-5.7382,-5.7726,-5.7867,-5.7978,-5.7978,-5.7978,-5.7978,-5.7978,-5.7978,-5.7978,-5.7978,-5.7978,-5.7978,-5.7978,-5.7978,-5.7978,-5.7978,-5.7978,-5.7978,-5.7978,-5.7978,-5.7978,-5.7978,-5.7978,-5.7978,-5.7978,-5.7978,-5.7978,-5.7978,-4.9107,-4.9168,-4.9107,-5.0215,-5.2026,-5.291,-5.3173,-5.3242,-5.3742,-5.417,-5.394,-5.3725,-5.3759,-5.3791,-5.3661,-5.3634,-5.3766,-5.3842,-5.4005,-5.4108,-5.4178,-5.4305,-5.4443,-5.446,-5.4374,-5.4149,-5.3718,-5.3322,-5.2511,-5.1597,-5.1097,-5.0858,-5.0672,-5.0561,-5.0564,-5.0585,-5.0537,-5.0558,-5.0573,-5.0575,-5.0489,-5.0258,-5.0138,-5.0524,-5.0247,-5.0126,-5.0051,-5.0149,-5.0109,-5.0051,-5.0051,-4.9993,-5.0149,-5.0285,-5.0495,-5.0678,-5.084,-5.091,-5.082,-5.082,-5.107,-5.0969,-5.0966,-5.1558,-5.22,-5.258,-5.3437,-5.4309,-5.454,-5.4512,-5.4512,-5.462,-5.4683,-5.4683,-5.462,-5.479,-5.479,-5.4834,-5.479,-5.4757,-5.4938,-5.5079,-5.5157,-5.506,-5.5759,-5.6634,-5.7116,-5.7498,-5.7932,-5.7978,-5.7978,-5.7978,-5.7978,-5.7978,-5.7978,-5.7978,-5.7978,-5.7978,-5.7978,-5.7978,-5.7978,-5.7978,-5.7978,-5.7978,-5.7978,-5.7978,-5.7978,-5.7997,-5.7978,-5.7978,-5.7978,-5.7978,-5.7978,-5.7978,-5.7978,-4.9001,-4.9001,-4.9001,-4.9582,-5.0533,-5.0582,-5.0998,-5.1475,-5.137,-5.1599,-5.227,-5.2687,-5.3001,-5.2897,-5.256,-5.2529,-5.2624,-5.2563,-5.2804,-5.3304,-5.3425,-5.3822,-5.408,-5.4149,-5.3804,-5.3511,-5.3063,-5.2373,-5.139,-5.108,-5.0649,-5.0304,-5.0178,-5.0109,-5.0068,-5.0011,-5.0034,-5.0034,-5.0092,-5.0086,-5.012,-5.0045,-5.008,-5.008,-5.0062,-5.0011,-5.0011,-5.0011,-5.0011,-5.0011,-5.0011,-5.0011,-5.0051,-5.0051,-5.0149,-5.0132,-5.0132,-5.0109,-5.0051,-5.0051,-5.0368,-5.0858,-5.0882,-5.1647,-5.2804,-5.3339,-5.3563,-5.4391,-5.4512,-5.4512,-5.4512,-5.4512,-5.4512,-5.4512,-5.4512,-5.4512,-5.4557,-5.462,-5.4575,-5.4575,-5.4512,-5.4575,-5.4728,-5.4974,-5.5537,-5.6221,-5.6739,-5.7284,-5.7708,-5.7821,-5.7774,-5.7978,-5.7978,-5.7978,-5.7978,-5.7978,-5.7978,-5.7978,-5.7978,-5.7978,-5.7978,-5.7978,-5.7978,-5.7978,-5.7978,-5.7978,-5.7997,-5.7997,-5.7997,-5.8024,-5.7978,-5.7978,-5.7978,-5.7978,-5.8024,-4.9046,-4.9107,-4.9107,-4.9411,-4.9808,-5.0085,-5.0237,-5.0307,-5.0302,-5.061,-5.108,-5.1133,-5.1379,-5.154,-5.1689,-5.1701,-5.2114,-5.2218,-5.2511,-5.2563,-5.2615,-5.2718,-5.2994,-5.3132,-5.2908,-5.2528,-5.2183,-5.1839,-5.1166,-5.0735,-5.0355,-5.0045,-5.0011,-5.0011,-5.0011,-5.0011,-4.9993,-4.9993,-4.9993,-5.0011,-5.0011,-5.0011,-5.0011,-5.0011,-5.0011,-5.0011,-5.0011,-5.0011,-5.0011,-5.0011,-5.0011,-5.0011,-5.0011,-5.0011,-5.0011,-5.0011,-5.0011,-5.0011,-5.0011,-5.0011,-5.0097,-5.0476,-5.1011,-5.1649,-5.2494,-5.3149,-5.3736,-5.4287,-5.4494,-5.4512,-5.4512,-5.4512,-5.4512,-5.4512,-5.4512,-5.4512,-5.4512,-5.4512,-5.4512,-5.4512,-5.4512,-5.4512,-5.462,-5.4728,-5.5164,-5.556,-5.6093,-5.6739,-5.7234,-5.7382,-5.7449,-5.7821,-5.7978,-5.7978,-5.7978,-5.7978,-5.7978,-5.7978,-5.7978,-5.7978,-5.7978,-5.7978,-5.7978,-5.7978,-5.7978,-5.7978,-5.8042,-5.8042,-5.8042,-5.8024,-5.8024,-5.8042,-5.8042,-5.8088,-5.8133,-4.8673,-4.8768,-4.9067,-4.9307,-4.9471,-4.9756,-4.9832,-4.9842,-4.9935,-5.0206,-5.0432,-5.0184,-5.0252,-5.0631,-5.0769,-5.089,-5.1442,-5.1425,-5.1735,-5.177,-5.1839,-5.2063,-5.2201,-5.2132,-5.2149,-5.1787,-5.1407,-5.1028,-5.0649,-5.0235,-5.0045,-5.0028,-5.0011,-5.0011,-5.0011,-5.0011,-5.0011,-5.0011,-5.0011,-5.0011,-5.0011,-5.0011,-5.0011,-5.0011,-5.0011,-5.0011,-5.0011,-5.0011,-5.0011,-5.0011,-5.0011,-5.0011,-5.0011,-5.0011,-5.0011,-5.0011,-5.0011,-5.0011,-5.0011,-5.0011,-5.0166,-5.0545,-5.108,-5.1821,-5.258,-5.3442,-5.3942,-5.4356,-5.4494,-5.4512,-5.4512,-5.4512,-5.4512,-5.4512,-5.4512,-5.4512,-5.4512,-5.4512,-5.4512,-5.4512,-5.4512,-5.4512,-5.4512,-5.4557,-5.4728,-5.5061,-5.5461,-5.6037,-5.6634,-5.6809,-5.7015,-5.7449,-5.7708,-5.7708,-5.7821,-5.7978,-5.7978,-5.7978,-5.7978,-5.7978,-5.7978,-5.7978,-5.7978,-5.7978,-5.7978,-5.7978,-5.8088,-5.8088,-5.8088,-5.8042,-5.8042,-5.8042,-5.8061,-5.8152,-5.8242,-4.7902,-4.7986,-4.8751,-4.9127,-4.9222,-4.9521,-4.9784,-4.9993,-5.0011,-4.9993,-5.0011,-4.9993,-5.008,-5.0045,-5.0062,-5.0149,-5.0235,-5.0218,-5.058,-5.0942,-5.108,-5.1459,-5.1752,-5.1856,-5.1476,-5.12,-5.0925,-5.0597,-5.0097,-5.0045,-5.0011,-5.0011,-5.0011,-5.0011,-5.0011,-5.0011,-5.0011,-5.0011,-5.0011,-5.0011,-5.0011,-5.0011,-5.0011,-5.0011,-5.0011,-5.0011,-5.0011,-5.0011,-5.0011,-5.0011,-5.0011,-5.0011,-5.0011,-5.0011,-5.0011,-5.0011,-5.0011,-5.0011,-5.0011,-5.0011,-5.0373,-5.0856,-5.1649,-5.2511,-5.3218,-5.3839,-5.427,-5.4425,-5.4512,-5.4512,-5.4512,-5.4512,-5.4512,-5.4512,-5.4512,-5.4512,-5.4512,-5.4512,-5.4512,-5.4512,-5.4512,-5.4512,-5.4512,-5.4512,-5.4557,-5.4665,-5.5018,-5.5284,-5.583,-5.6221,-5.6421,-5.6912,-5.7184,-5.7333,-5.7498,-5.7613,-5.7755,-5.766,-5.7932,-5.7978,-5.7978,-5.7978,-5.7978,-5.7978,-5.7978,-5.8024,-5.8042,-5.8106,-5.8106,-5.8106,-5.8133,-5.8152,-5.8152,-5.826,-5.8349,-4.7124,-4.7141,-4.7403,-4.7819,-4.8541,-4.935,-4.9708,-4.9784,-4.9935,-5.0011,-5.0011,-5.0011,-4.9935,-5.0011,-5.0011,-4.9993,-5.0011,-5.0028,-5.0131,-5.0321,-5.0459,-5.0511,-5.0631,-5.0752,-5.0511,-5.0442,-5.0321,-5.0304,-5.008,-5.0011,-5.0011,-5.0011,-5.0011,-5.0011,-5.0011,-5.0011,-5.0011,-5.0011,-5.0011,-5.0011,-5.0011,-5.0011,-5.0011,-5.0011,-5.0011,-5.0011,-5.0011,-5.0011,-5.0011,-5.0011,-5.0011,-5.0011,-5.0011,-5.0011,-5.0011,-5.0011,-5.0011,-5.0011,-5.0011,-5.0011,-5.0355,-5.1114,-5.1821,-5.2563,-5.3322,-5.4029,-5.4494,-5.4512,-5.4512,-5.4512,-5.4512,-5.4512,-5.4512,-5.4512,-5.4512,-5.4512,-5.4512,-5.4512,-5.4512,-5.4512,-5.4512,-5.4512,-5.4512,-5.4512,-5.4512,-5.4512,-5.462,-5.4834,-5.5061,-5.5443,-5.5887,-5.6367,-5.6581,-5.6686,-5.6843,-5.7015,-5.7234,-5.7382,-5.7613,-5.7867,-5.7886,-5.7886,-5.7978,-5.7978,-5.7978,-5.7978,-5.8042,-5.8042,-5.8106,-5.8242,-5.8268,-5.8242,-5.8286,-5.8393,-5.848,-4.6363,-4.6397,-4.6743,-4.7216,-4.7817,-4.8453,-4.8912,-4.922,-4.9664,-4.9918,-5.0011,-4.9877,-4.9877,-5.0011,-4.9935,-4.9918,-5.0011,-5.0011,-5.0045,-5.0062,-5.0011,-5.008,-5.0028,-5.0011,-5.008,-5.0011,-5.0011,-5.0062,-5.0011,-5.0011,-5.0011,-5.0011,-5.0011,-5.0011,-5.0011,-5.0011,-5.0011,-5.0011,-5.0011,-5.0011,-5.0011,-5.0011,-5.0011,-5.0011,-5.0011,-5.0011,-5.0011,-5.0011,-5.0011,-5.0011,-5.0011,-5.0011,-5.0011,-5.0011,-5.0011,-5.0011,-5.0011,-5.0011,-5.0011,-5.0011,-5.0597,-5.1321,-5.1959,-5.277,-5.3546,-5.4287,-5.4443,-5.4512,-5.4512,-5.4512,-5.4512,-5.4512,-5.4512,-5.4512,-5.4512,-5.4512,-5.4512,-5.4512,-5.4512,-5.4512,-5.4512,-5.4512,-5.4512,-5.4512,-5.4512,-5.4512,-5.4512,-5.4557,-5.4728,-5.4896,-5.5343,-5.583,-5.5943,-5.6037,-5.6258,-5.6421,-5.6634,-5.6912,-5.7234,-5.7449,-5.766,-5.7821,-5.7886,-5.7932,-5.7978,-5.7932,-5.7867,-5.8024,-5.8088,-5.8223,-5.8312,-5.8312,-5.8356,-5.8505,-5.8548,-4.5618,-4.5669,-4.6554,-4.6999,-4.7182,-4.7358,-4.7769,-4.8384,-4.9083,-4.9664,-4.9808,-4.9666,-4.9742,-4.9935,-4.986,-4.986,-4.9935,-5.0011,-5.0011,-5.0011,-5.0011,-5.0011,-5.0011,-5.0011,-5.0011,-5.0011,-5.0011,-5.0011,-5.0011,-5.0011,-5.0011,-5.0011,-5.0011,-5.0011,-5.0011,-5.0011,-5.0011,-5.0011,-5.0011,-5.0011,-5.0011,-5.0011,-5.0011,-5.0011,-5.0011,-5.0011,-5.0011,-5.0011,-5.0011,-5.0011,-5.0011,-5.0011,-5.0011,-5.0011,-5.0011,-5.0011,-5.0011,-5.0011,-5.0011,-5.0011,-5.0856,-5.158,-5.2252,-5.3046,-5.3804,-5.4339,-5.4494,-5.4512,-5.4512,-5.4512,-5.4512,-5.4512,-5.4512,-5.4512,-5.4512,-5.4512,-5.4512,-5.4512,-5.4512,-5.4512,-5.4512,-5.4512,-5.4512,-5.4512,-5.4512,-5.4512,-5.4512,-5.4512,-5.4512,-5.4557,-5.4834,-5.5284,-5.5343,-5.5443,-5.5716,-5.5943,-5.6093,-5.6421,-5.6757,-5.6964,-5.7083,-5.7401,-5.7774,-5.7576,-5.7377,-5.7624,-5.7671,-5.7776,-5.785,-5.807,-5.816,-5.8294,-5.8381,-5.8425,-5.8468,-4.4857,-4.4981,-4.579,-4.6192,-4.6334,-4.7011,-4.7449,-4.7729,-4.7734,-4.8586,-4.9554,-4.9691,-4.975,-4.9849,-4.9918,-4.9935,-4.9935,-4.9993,-5.0011,-5.0011,-5.0011,-5.0011,-5.0011,-5.0011,-5.0011,-5.0011,-5.0011,-5.0011,-5.0011,-5.0011,-5.0011,-5.0011,-5.0011,-5.0011,-5.0011,-5.0011,-5.0011,-5.0011,-5.0011,-5.0011,-5.0011,-5.0011,-5.0011,-5.0011,-5.0011,-5.0011,-5.0011,-5.0011,-5.0011,-5.0011,-5.0011,-5.0011,-5.0011,-5.0011,-5.0011,-5.0011,-5.0011,-5.0011,-5.0011,-5.0097,-5.0787,-5.1666,-5.239,-5.3235,-5.3908,-5.4305,-5.4512,-5.4512,-5.4512,-5.4512,-5.4512,-5.4512,-5.4512,-5.4512,-5.4512,-5.4512,-5.4512,-5.4512,-5.4512,-5.4512,-5.4512,-5.4512,-5.4512,-5.4512,-5.4512,-5.4512,-5.4512,-5.4512,-5.4512,-5.4557,-5.4557,-5.4834,-5.479,-5.4896,-5.5182,-5.5343,-5.556,-5.583,-5.6166,-5.633,-5.6492,-5.6809,-5.7065,-5.6822,-5.6665,-5.6975,-5.7188,-5.7259,-5.7436,-5.7645,-5.7877,-5.7905,-5.7969,-5.806,-5.815,-4.457,-4.4694,-4.5106,-4.5331,-4.5416,-4.5976,-4.6374,-4.6737,-4.6737,-4.7444,-4.8712,-4.898,-4.9245,-4.9556,-4.9746,-4.986,-4.9918,-4.9935,-4.9918,-4.9935,-5.0011,-5.0011,-5.0011,-5.0011,-5.0011,-5.0011,-5.0011,-5.0011,-4.9993,-5.0011,-5.0011,-5.0011,-5.0011,-5.0011,-5.0011,-5.0011,-5.0011,-5.0011,-5.0011,-5.0011,-5.0011,-5.0011,-5.0011,-5.0011,-5.0011,-5.0011,-5.0011,-5.0011,-5.0011,-5.0011,-5.0011,-5.0011,-5.0011,-5.0011,-5.0011,-5.0011,-5.0011,-5.0011,-5.0011,-5.02,-5.07,-5.1632,-5.2218,-5.2942,-5.4132,-5.4512,-5.4512,-5.4512,-5.4512,-5.4512,-5.4512,-5.4512,-5.4512,-5.4512,-5.4512,-5.4512,-5.4512,-5.4512,-5.4512,-5.4512,-5.4512,-5.4512,-5.4512,-5.4512,-5.4512,-5.4512,-5.4512,-5.4512,-5.4512,-5.4512,-5.4512,-5.4512,-5.4512,-5.4512,-5.4728,-5.4896,-5.4957,-5.5224,-5.556,-5.5887,-5.6221,-5.6276,-5.6312,-5.6186,-5.6223,-5.6403,-5.6593,-5.6678,-5.6794,-5.6978,-5.7198,-5.7473,-5.754,-5.754,-5.751,-4.457,-4.457,-4.4643,-4.4643,-4.4643,-4.481,-4.5222,-4.5823,-4.593,-4.6439,-4.7253,-4.7843,-4.8335,-4.889,-4.9326,-4.9561,-4.9767,-4.9918,-4.986,-4.986,-4.9952,-5.0011,-5.0011,-5.0011,-4.9935,-4.9935,-4.9993,-4.9935,-4.9935,-4.9935,-5.0011,-5.0011,-5.0011,-5.0011,-5.0011,-5.0011,-5.0011,-5.0011,-5.0011,-5.0011,-5.0011,-5.0011,-5.0011,-5.0011,-5.0011,-5.0011,-5.0011,-5.0011,-5.0011,-5.0011,-5.0011,-5.0011,-5.0011,-5.0011,-5.0011,-5.0011,-5.0011,-5.0011,-5.0011,-5.0028,-5.0821,-5.1614,-5.1994,-5.2787,-5.3977,-5.4477,-5.4477,-5.4512,-5.4512,-5.4512,-5.4512,-5.4512,-5.4512,-5.4512,-5.4512,-5.4512,-5.4512,-5.4512,-5.4512,-5.4512,-5.4512,-5.4512,-5.4512,-5.4512,-5.4512,-5.4512,-5.4512,-5.4512,-5.4512,-5.4512,-5.4512,-5.4512,-5.4512,-5.4512,-5.4512,-5.4557,-5.4665,-5.479,-5.5122,-5.556,-5.5773,-5.5676,-5.5676,-5.583,-5.5869,-5.5794,-5.5963,-5.6046,-5.6148,-5.6329,-5.6894,-5.718,-5.6909,-5.6876,-5.6652,-4.457,-4.4643,-4.4737,-4.4776,-4.4776,-4.4869,-4.5118,-4.5275,-4.5363,-4.5574,-4.5952,-4.6553,-4.7305,-4.8633,-4.8867,-4.9068,-4.933,-4.9602,-4.9924,-4.9993,-4.9642,-4.9838,-4.9832,-4.9642,-4.9791,-4.9918,-4.9918,-4.9935,-4.9935,-4.9935,-5.0011,-5.0011,-5.0011,-5.0011,-5.0011,-5.0011,-5.0011,-5.0011,-5.0011,-5.0011,-5.0011,-5.0011,-5.0011,-5.0011,-5.0011,-5.0011,-5.0011,-5.0011,-5.0011,-5.0011,-5.0011,-5.0011,-5.0011,-5.0011,-5.0011,-5.0011,-5.0011,-5.0011,-5.0011,-5.0011,-5.0718,-5.1338,-5.1821,-5.2597,-5.3598,-5.4322,-5.4374,-5.4494,-5.4512,-5.4512,-5.4512,-5.4512,-5.4512,-5.4512,-5.4512,-5.4512,-5.4512,-5.4512,-5.4512,-5.4512,-5.4512,-5.4512,-5.4512,-5.4512,-5.4512,-5.4512,-5.4512,-5.4512,-5.4512,-5.4512,-5.4512,-5.4512,-5.4512,-5.4512,-5.4512,-5.4512,-5.4557,-5.4575,-5.462,-5.5018,-5.5061,-5.4852,-5.4913,-5.5182,-5.5122,-5.4939,-5.5102,-5.5496,-5.5566,-5.5822,-5.6599,-5.6946,-5.6563,-5.6203,-5.6073]}]]